     2              OBSERVATION DATA    GPS                 RINEX VERSION / TYPE
teqc 1998Mar9 19981223 00:10:06UTC                          PGM / RUN BY / DATE
                                                            COMMENT
Original Marker Name: 0351                                  COMMENT
Campaign Name: HPGN 1998                                    COMMENT
4-Character Station Name: 0351                              COMMENT
6-Character Antenna Code: TRMCMP                            COMMENT
Vertical Measurement Point: BPA                             COMMENT
Vertical Offset to Rinex Ref. Point: 0.0000                 COMMENT
Radial Measurement Point: RRP                               COMMENT
Radial Offset to Rinex Ref. Point: 0.0000                   COMMENT
Antenna Height from Field Measurement: 1.8000 m             COMMENT
Original XYZ: -2352604.0318 -4748955.5336 3537363.6119      COMMENT
New XYZ position is based on association with SCEC monument COMMENT
E1D0U6A3+0011. Position of that monument is believed to be  COMMENT
valid to within 1 m horizontally; vertical accuracy         COMMENT
should be no worse than 3-times this value.                 COMMENT
                                                            COMMENT
Revised Rinex header created by UCSD GPS archive for        COMMENT
GSAC on 30-Aug-1999 (1999:242) 23:22:34 GMT                 COMMENT
For assistance contact dagnew@ucsd.edu or hjohnson@ucsd.edu COMMENT
                                                            COMMENT
BM 603-51                                                   MARKER NAME
unknown CALIF DEPT TRANSPORTATION                           OBSERVER / AGENCY
2233 TRIMBLE 4000 SSI NP 7.26; SP 3.07                      REC # / TYPE / VERS
66122 TR GEOD L1/L2 GP                                      ANT # / TYPE
 -2352603.0000 -4748957.0000  3537357.0000                  APPROX POSITION XYZ
        1.8000        0.0000        0.0000                  ANTENNA: DELTA H/E/N
     1     1     0                                          WAVELENGTH FACT L1/2
     7    C1    L1    L2    P1    P2    S1    S2            # / TYPES OF OBSERV
     0                                                      INTERVAL
  1998     6    17    15    37   15.000000                  TIME OF FIRST OBS
  1998     6    17    21     6   45.000000                  TIME OF LAST OBS
                                                            END OF HEADER
 98  6 17 15 37 15.0000000  0  8G 2G 4G 5G 7G 8G 9G16G24
  23392192.0784    4645175.07956   3619610.09356                  23392200.7074
        14.0004         14.2504
  20560568.2664   -2564821.32558  -1998561.82257                  20560574.3244
        31.2504         29.7504
  22909899.7664   -6716263.60156  -5233451.12156                  22909907.2344
        17.0004         16.0004
  22446395.6414    4602715.89156   3586528.34656                  22446403.1094
        18.0004         19.2504
  22874914.4144   -7631223.97256  -5946406.09656                  22874922.2704
        16.5004         15.2504
  21355299.5864   -2720590.71758  -2119942.24457                  21355306.0314
        31.2504         32.2504
  24675127.3984     -92780.46155    -19683.75755                  24675134.8914
         8.7504          9.7504
  21212495.1724   -7013419.69656  -5464999.82856                  21212502.5004
        18.2504         19.2504
 98  6 17 15 37 30.0000000  0  8G 2G 4G 5G 7G 8G 9G16G24
  23398602.3594    4678859.99446   3645858.03246                  23398610.7894
        13.2504         14.7504
  20559455.0314   -2570671.66748  -2003120.52747                  20559461.0084
        31.2504         29.5004
  22901656.2664   -6759581.02246  -5267204.95046                  22901664.0864
        16.5004         15.7504
  22452054.6174    4632452.03946   3609699.34946                  22452062.1094
        18.0004         19.2504
  22866725.9064   -7674255.26946  -5979936.97646                  22866733.4224
        16.2504         15.2504
  21353810.7424   -2728414.74348  -2126038.89647                  21353817.3164
        30.0004         32.0004
  24671869.3594    -109899.85345    -33023.53245                  24671877.3324
         9.2504         10.0004
  21205152.3134   -7052007.33346  -5495068.09646                  21205159.7584
        17.5004         18.7504
 98  6 17 15 37 45.0000000  0  8G 2G 4G 5G 7G 8G 9G16G24
  23405019.2734    4712582.05546   3672134.90546                  23405028.0314
        13.0004         15.0004
  20558368.0704   -2576383.34148  -2007571.18647                  20558374.0594
        31.7504         29.5004
  22893411.4064   -6802909.32746  -5300967.25146                  22893418.6054
        16.7504         16.0004
  22457712.8364    4662188.09346   3632870.29246                  22457720.3754
        17.7504         19.2504
  22858552.7194   -7717203.30246  -6013402.95546                  22858560.0594
        15.7504         15.2504
  21352344.7584   -2736118.45548  -2132041.79547                  21352351.2734
        30.5004         31.7504
  24668626.9454    -126939.03345    -46300.85345                  24668635.7854
         8.2504         10.5004
  21197825.0554   -7090510.37746  -5525070.44246                  21197832.8404
        17.0004         19.0004
 98  6 17 15 38  0.0000000  0  8G 2G 4G 5G 7G 8G 9G16G24
  23411445.5004    4746350.49445   3698447.91246                  23411454.0944
        11.7504         14.2504
  20557309.3284   -2581948.34848  -2011907.55747                  20557315.3754
        31.7504         29.2504
  22885165.2974   -6846242.33146  -5334733.23046                  22885172.6374
        16.5004         16.0004
  22463373.2034    4691932.70846   3656047.89246                  22463380.5784
        17.5004         18.7504
  22850397.4304   -7760061.75846  -6046799.13646                  22850405.1684
        16.0004         15.5004
  21350902.4384   -2743698.43548  -2137948.28747                  21350908.9304
        32.2504         31.5004
  24665401.8834    -143890.24345    -59509.57345                  24665411.2384
         8.2504         10.5004
  21190515.0234   -7128923.97846  -5555003.11346                  21190522.5394
        16.2504         18.7504
 98  6 17 15 38 15.0000000  0  8G 2G 4G 5G 7G 8G 9G16G24
  23417880.6884    4780171.12345   3724801.57746                  23417889.4344
        11.5004         14.2504
  20556277.9774   -2587367.14348  -2016129.99947                  20556283.9654
        32.0004         29.5004
  22876918.8754   -6889578.11046  -5368501.35646                  22876926.6374
        16.7504         15.7504
  22469035.7814    4721687.62246   3679233.51746                  22469043.1564
        17.7504         18.0004
  22842258.7894   -7802829.33446  -6080124.50846                  22842265.1644
        16.5004         15.0004
  21349483.8284   -2751152.72748  -2143756.83647                  21349490.1454
        32.5004         31.2504
  24662192.3984    -160752.65445    -72649.09445                  24662201.0514
         9.2504         10.5004
  21183222.4304   -7167248.20646  -5584866.11846                  21183229.8164
        16.2504         18.5004
 98  6 17 15 38 30.0000000  0  8G 2G 4G 5G 7G 8G 9G16G24
  23424326.8444    4814041.96645   3751194.37846                  23424336.0474
        11.7504         13.7504
  20555273.1804   -2592647.54548  -2020244.60647                  20555279.2734
        31.7504         29.2504
  22868671.2344   -6932919.75746  -5402274.05746                  22868677.8674
        16.5004         16.0004
  22474698.1334    4751446.20346   3702422.00146                  22474705.0394
        18.0004         18.0004
  22834136.7034   -7845511.69146  -6113383.47346                  22834142.8094
        16.5004         14.5004
  21348088.6254   -2758485.18448  -2149470.44747                  21348094.8954
        32.5004         31.0004
  24658999.8524    -177531.07145    -85723.17745                  24659008.8204
         9.7504         10.7504
  21175945.6254   -7205488.04646  -5614663.38246                  21175953.3284
        15.7504         18.7504
 98  6 17 15 38 45.0000000  0  8G 2G 4G 5G 7G 8G 9G16G24
  23430780.5004    4847958.23746   3777622.57546                  23430789.2934
        12.0004         14.0004
  20554292.7344   -2597799.97648  -2024259.48747                  20554298.7344
        32.0004         29.0004
  22860421.4844   -6976274.07746  -5436056.63546                  22860427.9534
        17.2504         15.5004
  22480360.6094    4781201.69146   3725608.08946                  22480367.5984
        18.0004         17.7504
  22826028.7974   -7888118.44646  -6146583.55046                  22826035.1724
        16.5004         15.0004
  21346714.9844   -2765703.13648  -2155094.83547                  21346721.1604
        32.5004         30.5004
  24655822.1254    -194230.88345    -98736.03545                  24655830.8244
        10.0004         10.5004
  21168683.4844   -7243649.18046  -5644399.31446                  21168691.3054
        15.2504         18.5004
 98  6 17 15 39  0.0000000  0  8G 2G 4G 5G 7G 8G 9G16G24
  23437244.3754    4881926.72345   3804091.46846                  23437253.5664
        11.2504         13.7504
  20553337.1094   -2602821.29448  -2028172.20747                  20553343.1804
        32.2504         29.0004
  22852169.3594   -7019637.63246  -5469846.40746                  22852175.7234
        17.5004         16.0004
  22486023.1254    4810958.12446   3748794.90646                  22486030.0084
        18.2504         18.0004
  22817935.9844   -7930645.25046  -6179721.29746                  22817942.3134
        15.5004         15.0004
  21345364.4064   -2772800.61248  -2160625.34547                  21345370.5234
        32.0004         30.2504
  24652661.0004    -210845.10245   -111682.18845                  24652670.2974
        10.0004         10.5004
  21161437.7974   -7281726.03146  -5674069.56746                  21161445.7114
        15.0004         18.2504
 98  6 17 15 39 15.0000000  0  8G 2G 4G 5G 7G 8G 9G16G24
  23443719.1024    4915949.53845   3830602.69346                  23443727.7194
        11.2504         13.5004
  20552407.0634   -2607709.22548  -2031980.99347                  20552413.1564
        32.0004         28.7504
  22843916.8134   -7063006.26946  -5503640.14746                  22843922.9654
        17.5004         15.5004
  22491685.8054    4840715.56246   3771982.49746                  22491692.2504
        18.2504         17.7504
  22809859.5634   -7973087.83146  -6212793.41246                  22809867.1604
        15.2504         14.5004
  21344037.1804   -2779774.71448  -2166059.71947                  21344043.3914
        31.5004         29.7504
  24649514.8364    -227373.09345   -124561.12245                  24649524.1804
         9.7504         11.0004
  21154208.6174   -7319716.24346  -5703672.31146                  21154216.7424
        14.2504         18.0004
 98  6 17 15 39 30.0000000  0  8G 2G 4G 5G 7G 8G 9G16G24
  23450203.3984    4950027.23245   3857156.70146                  23450211.9224
        10.7504         13.0004
  20551502.1024   -2612464.18948  -2035686.16347                  20551508.1484
        31.7504         28.7504
  22835663.7114   -7106376.98346  -5537435.49346                  22835669.8404
        18.0004         16.0004
  22497347.7584    4870468.95946   3795166.95146                  22497353.9224
        18.7504         17.5004
  22801799.9844   -8015441.20746  -6245796.03846                  22801806.9614
        16.0004         14.7504
  21342733.3054   -2786627.61948  -2171399.65747                  21342739.3164
        31.2504         29.0004
  24646386.7974    -243814.97745   -137372.95245                  24646397.5474
         9.0004         10.5004
  21146996.3984   -7357617.96146  -5733206.11346                  21147004.5234
        14.5004         18.2504
 98  6 17 15 39 45.0000000  0  8G 2G 4G 5G 7G 8G 9G16G24
  23456698.5164    4984157.57145   3883751.71646                  23456707.6844
        10.0004         12.5004
  20550622.3444   -2617088.24848  -2039289.33247                  20550628.3794
        31.5004         28.5004
  22827409.1884   -7149750.98146  -5571233.41046                  22827415.5274
        17.0004         16.0004
  22503008.1094    4900216.18446   3818346.59246                  22503014.8714
        18.0004         17.2504
  22793756.9384   -8057706.21746  -6278729.80846                  22793763.9614
        16.0004         15.5004
  21341451.4144   -2793363.02748  -2176648.04347                  21341457.5784
        30.2504         29.0004
  24643274.3284    -260172.85345   -150119.36545                  24643285.1604
         9.7504         10.5004
  21139800.1174   -7395432.70046  -5762672.13646                  21139808.0204
        14.2504         17.7504
 98  6 17 15 40  0.0000000  0  8G 2G 4G 5G 7G 8G 9G16G24
  23463204.4224    5018347.33345   3910393.03745                  23463213.9184
         9.7504         11.7504
  20549768.5394   -2621574.87148  -2042785.40747                  20549774.4924
        31.5004         28.2504
  22819156.4534   -7193122.60546  -5605029.47146                  22819163.0044
        17.2504         15.7504
  22508668.5004    4929961.18246   3841524.48946                  22508675.3094
        17.7504         17.2504
  22785732.9454   -8099874.03946  -6311587.83746                  22785740.1684
        16.5004         15.7504
  21340193.1724   -2799975.19148  -2181800.39047                  21340199.4184
        30.0004         28.7504
  24640179.0474    -276436.67545   -162792.45345                  24640189.1054
         9.7504         10.5004
  21132622.6484   -7433151.20746  -5792063.16446                  21132630.4924
        14.2504         18.2504
 98  6 17 15 40 15.0000000  0  8G 2G 4G 5G 7G 8G 9G16G24
  23469720.8674    5052591.88245   3937077.05646                  23469730.2584
         9.2504         12.5004
  20548939.8364   -2625929.76348  -2046178.84147                  20548945.8834
        31.5004         28.0004
  22810903.3054   -7236492.21546  -5638823.96346                  22810910.2114
        17.0004         16.5004
  22514327.1804    4959697.59946   3864695.70646                  22514333.9884
        18.2504         17.2504
  22777727.4844   -8141944.35746  -6344369.89546                  22777734.6484
        17.5004         16.0004
  21338958.2034   -2806464.87248  -2186857.30047                  21338964.4024
        29.7504         28.2504
  24637101.8444    -292604.81545   -175391.00345                  24637110.7664
        10.2504         11.0004
  21125463.1024   -7470774.65846  -5821380.13946                  21125470.5824
        14.5004         18.2504
 98  6 17 15 40 30.0000000  0  8G 2G 4G 5G 7G 8G 9G16G24
  23476247.7034    5086891.05245   3963803.61046                  23476258.1374
         9.2504         12.2504
  20548136.6334   -2630151.09548  -2049468.20047                  20548142.6684
        31.2504         28.2504
  22802651.1954   -7279855.66946  -5672613.65846                  22802657.6524
        17.2504         16.2504
  22519984.5234    4989426.22146   3887860.84746                  22519991.2974
        18.0004         17.5004
  22769741.1564   -8183914.45146  -6377073.86446                  22769748.2154
        17.2504         16.0004
  21337747.4384   -2812827.71648  -2191815.37547                  21337753.8484
        29.7504         28.2504
  24634044.0394    -308675.77745   -187913.79345                  24634054.2384
         9.5004         10.7504
  21118322.7194   -7508299.00846  -5850619.89146                  21118329.8834
        14.5004         18.0004
 98  6 17 15 40 45.0000000  0  8G 2G 4G 5G 7G 8G 9G16G24
  23482783.4144    5121236.78045   3990566.46146                  23482793.5554
         9.2504         12.2504
  20547358.7034   -2634237.76648  -2052652.62047                  20547364.7854
        30.7504         28.0004
  22794400.2734   -7323214.98346  -5706400.12746                  22794407.4614
        17.5004         16.2504
  22525639.6954    5019143.67546   3911017.29246                  22525646.6954
        17.7504         17.7504
  22761772.3834   -8225789.09946  -6409703.44646                  22761778.6294
        16.5004         15.5004
  21336559.4774   -2819069.69348  -2196679.26547                  21336565.6994
        29.0004         28.2504
  24631003.6024    -324652.89945   -200363.53045                  24631012.9924
         9.5004         10.5004
  21111199.9454   -7545727.85846  -5879785.22546                  21111207.1094
        14.7504         17.7504
 98  6 17 15 41  0.0000000  0  8G 2G 4G 5G 7G 8G 9G16G24
  23489328.0784    5155627.30445   4017364.23546                  23489337.4574
        10.0004         12.2504
  20546607.0784   -2638187.73948  -2055730.53147                  20546612.9734
        30.7504         27.7504
  22786149.6724   -7366572.38646  -5740185.10646                  22786157.0004
        17.5004         16.5004
  22531292.9144    5048850.23146   3934165.22646                  22531299.9844
        18.5004         17.7504
  22753821.9384   -8267568.57446  -6442258.87046                  22753828.8094
        16.0004         15.5004
  21335394.3364   -2825193.64148  -2201451.18547                  21335400.6884
        29.5004         28.0004
  24627980.7114    -340536.45045   -212740.26545                  24627990.6174
         9.5004         10.5004
  21104095.4694   -7583062.61646  -5908877.23546                  21104102.6214
        15.0004         18.0004
 98  6 17 15 41 15.0000000  0  8G 2G 4G 5G 7G 8G 9G16G24
  23495881.3754    5190062.22745   4044196.56546                  23495891.3284
        10.0004         12.2504
  20545881.6334   -2641999.98148  -2058701.11647                  20545887.5864
        30.5004         28.0004
  22777899.7424   -7409925.46246  -5773966.71746                  22777906.5634
        17.7504         16.7504
  22536943.4064    5078546.64546   3957305.27146                  22536950.3954
        18.5004         18.0004
  22745889.8204   -8309249.28446  -6474737.33646                  22745896.1374
        16.7504         15.2504
  21334251.4144   -2831199.07148  -2206130.75747                  21334257.7304
        29.5004         28.2504
  24624977.1094    -356324.85245   -225042.94445                  24624987.4964
         9.2504         10.2504
  21097008.7274   -7620303.27446  -5937895.92046                  21097015.9964
        15.0004         18.0004
 98  6 17 15 41 30.0000000  0  8G 2G 4G 5G 7G 8G 9G16G24
  23502442.0554    5224541.40045   4071063.41246                  23502452.7704
        10.0004         12.2504
  20545181.9774   -2645677.57748  -2061566.78147                  20545188.0124
        30.0004         27.7504
  22769651.0784   -7453273.65646  -5807744.51046                  22769657.4534
        17.5004         16.5004
  22542592.8284    5108232.78546   3980437.30546                  22542600.1094
        18.5004         18.2504
  22737977.6094   -8350828.84046  -6507136.98046                  22737984.4414
        17.5004         15.7504
  21333131.4454   -2837085.13848  -2210717.31747                  21333137.8094
        29.7504         28.2504
  24621990.0554    -372020.05645   -237272.97245                  24622000.6764
         9.5004         10.2504
  21089940.2504   -7657449.22746  -5966840.80646                  21089947.4844
        15.7504         18.0004
 98  6 17 15 41 45.0000000  0  8G 2G 4G 5G 7G 8G 9G16G24
  23509011.4924    5259062.18245   4097962.67146                  23509020.4964
        10.2504         12.0004
  20544506.8914   -2649225.44248  -2064331.35947                  20544512.7974
        29.7504         27.7504
  22761402.1804   -7496622.03346  -5841522.46146                  22761408.7894
        18.2504         16.5004
  22548240.4774    5137912.13046   4003564.05146                  22548247.5704
        18.7504         18.2504
  22730083.8134   -8392311.52046  -6539461.14546                  22730090.9184
        16.5004         15.7504
  21332033.6414   -2842853.77448  -2215212.36647                  21332039.6644
        30.7504         28.2504
  24619020.7274    -387622.36045   -249430.63545                  24619031.2664
         9.5004         10.0004
  21082888.8054   -7694503.60146  -5995714.33546                  21082895.9104
        16.2504         18.5004
 98  6 17 15 42  0.0000000  0  8G 2G 4G 5G 7G 8G 9G16G24
  23515589.4224    5293629.20245   4124897.95445                  23515597.9574
        10.0004         11.7504
  20543857.6484   -2652636.63448  -2066989.44147                  20543863.6134
        29.7504         28.0004
  22753154.3364   -7539965.88846  -5875296.89746                  22753161.0984
        18.5004         16.5004
  22553888.9454    5167594.59946   4026693.21446                  22553896.0044
        18.5004         18.2504
  22722209.4694   -8433693.23046  -6571706.60846                  22722216.6914
        16.5004         15.2504
  21330960.2034   -2848495.46548  -2219608.50447                  21330966.2384
        31.0004         28.7504
  24616070.7344    -403123.85045   -261509.68445                  24616080.9574
         9.2504          9.7504
  21075856.8364   -7731459.32246  -6024510.98646                  21075863.9064
        17.0004         18.7504
 98  6 17 15 42 15.0000000  0  8G 2G 4G 5G 7G 8G 9G16G24
  23522174.9144    5328236.17245   4151864.39045                  23522183.6484
        10.0004         11.5004
  20543232.8134   -2655920.55848  -2069548.34447                  20543238.7774
        29.5004         28.2504
  22744905.8834   -7583311.16646  -5909072.43246                  22744912.5864
        18.2504         16.5004
  22559536.5704    5197272.19546   4049818.59946                  22559543.4304
        18.2504         18.2504
  22714352.7274   -8474980.25446  -6603878.31646                  22714359.2424
        16.5004         15.7504
  21329909.5314   -2854015.80648  -2223910.08347                  21329915.6134
        31.7504         29.2504
  24613139.0474    -418531.18345   -273515.39445                  24613148.2384
         9.0004          9.2504
  21068841.1884   -7768324.84046  -6053237.35546                  21068848.1644
        18.0004         18.7504
 98  6 17 15 42 30.0000000  0  8G 2G 4G 5G 7G 8G 9G16G24
  23528768.6094    5362884.77445   4178863.22546                  23528777.8834
        11.2504         12.2504
  20542631.4064   -2659081.40248  -2072011.34347                  20542637.5004
        29.0004         28.0004
  22736656.8204   -7626659.49646  -5942850.33546                  22736663.7154
        17.7504         16.5004
  22565183.2424    5226944.71446   4072940.02246                  22565189.8524
        18.5004         18.0004
  22706513.5394   -8516175.94446  -6635978.85946                  22706520.1134
        16.5004         15.5004
  21328882.1724   -2859415.40748  -2228117.58147                  21328888.1724
        32.0004         29.5004
  24610223.3834    -433851.02045   -285452.94145                  24610233.5704
         8.7504          9.2504
  21061842.8524   -7805102.05946  -6081894.90946                  21061850.0164
        19.2504         19.2504
 98  6 17 15 42 45.0000000  0  8G 2G 4G 5G 7G 8G 9G16G24
  23535372.2814    5397582.98446   4205900.73746                  23535381.2974
        12.5004         13.0004
  20542054.6884   -2662111.17248  -2074372.21347                  20542060.6054
        28.7504         28.2504
  22728408.4774   -7670005.13046  -5976626.13946                  22728415.4654
        18.0004         16.5004
  22570830.6174    5256621.90046   4096065.09246                  22570837.2734
        18.0004         18.0004
  22698692.4534   -8557273.79246  -6668003.14846                  22698699.5944
        16.2504         15.7504
  21327878.5004   -2864689.56848  -2232227.33047                  21327884.5594
        32.2504         30.0004
  24607326.2114    -449078.30145   -297318.33345                  24607335.8134
         9.0004          9.0004
  21054862.5084   -7841783.34146  -6110477.71246                  21054869.3284
        19.5004         19.5004
 98  6 17 15 43  0.0000000  0  8G 2G 4G 5G 7G 8G 9G16G24
  23541984.8674    5432331.88346   4232977.76446                  23541993.5904
        13.7504         13.2504
  20541502.3134   -2665013.94248  -2076634.11347                  20541508.2894
        29.0004         28.2504
  22720160.3054   -7713348.40546  -6010400.12546                  22720167.8324
        17.7504         16.7504
  22576478.2894    5286302.50146   4119192.81946                  22576485.4304
        16.7504         17.7504
  22690891.0164   -8598272.52146  -6699950.19846                  22690897.9694
        16.5004         16.5004
  21326898.6804   -2869839.66148  -2236240.40447                  21326904.6684
        30.2504         30.5004
  24604446.0554    -464213.66645   -309112.11745                  24604456.3014
         9.0004         10.0004
  21047901.1254   -7878366.78247  -6138984.27246                  21047908.0784
        20.0004         19.0004
 98  6 17 15 43 15.0000000  0  8G 2G 4G 5G 7G 8G 9G16G24
  23548605.6024    5467126.53346   4260090.42346                  23548614.0664
        14.0004         13.2504
  20540971.9534   -2667800.90148  -2078805.77047                  20540977.9184
        28.7504         28.2504
  22711912.0394   -7756693.79046  -6044175.73046                  22711919.7544
        18.2504         16.7504
  22582125.0394    5315978.88946   4142317.25846                  22582132.2854
        16.7504         17.5004
  22683107.1174   -8639175.38546  -6731822.56046                  22683114.0824
        16.5004         16.0004
  21325941.7664   -2874869.18547  -2240159.52147                  21325947.7774
        24.5004         31.0004
  24601582.0944    -479262.13045   -320838.17645                  24601592.4924
         9.2504          9.2504
  21040957.3054   -7914855.98947  -6167417.41246                  21040964.0084
        20.2504         19.2504
 98  6 17 15 43 30.0000000  0  8G 2G 4G 5G 7G 8G 9G16G24
  23555236.0004    5501969.98446   4287241.13546                  23555244.6884
        13.7504         13.5004
  20540464.5554   -2670468.19248  -2080884.18347                  20540470.5904
        28.2504         28.5004
  22703664.8524   -7800034.08046  -6077947.37946                  22703672.3554
        17.7504         16.7504
  22587772.3594    5345654.30946   4165440.95646                  22587779.4064
        16.5004         17.2504
  22675343.0314   -8679977.57246  -6763616.46846                  22675350.1134
        16.7504         16.2504
  21325009.1254   -2879770.54046  -2243978.77147                  21325015.1254
        17.7504         31.5004
  24598736.2504    -494220.71745   -332494.19945                  24598745.3364
         9.0004          8.7504
  21034032.8914   -7951245.39547  -6195772.78046                  21034039.5234
        20.7504         19.0004
 98  6 17 15 43 45.0000000  0  8G 2G 4G 5G 7G 8G 9G16G24
  23561876.5704    5536866.05046   4314432.81746                  23561885.2814
        13.5004         13.5004
  20539980.8834   -2673009.77848  -2082864.64547                  20539986.8954
        28.2504         28.7504
  22695419.3284   -7843364.04146  -6111710.97146                  22695426.9844
        17.5004         17.2504
  22593420.1644    5375333.34646   4188567.45646                  22593427.1644
        16.5004         17.0004
  22667597.7894   -8720678.35546  -6795331.35146                  22667604.9184
        16.7504         16.5004
  21324101.5164   -2884539.24146  -2247694.65347                  21324107.5164
        17.7504         32.0004
  24595906.9534    -509085.45045   -344077.07545                  24595915.0554
         9.0004          9.2504
  21027127.6414   -7987530.33047  -6224046.74246                  21027134.0744
        20.7504         19.0004
 98  6 17 15 44  0.0000000  0  8G 2G 4G 5G 7G 8G 9G16G24
  23568525.8364    5571807.22846   4341659.66646                  23568534.4064
        13.0004         12.7504
  20539520.3834   -2675428.98048  -2084749.74147                  20539526.4414
        28.5004         29.0004
  22687174.6094   -7886690.46246  -6145471.81746                  22687182.1724
        18.2504         17.0004
  22599066.8364    5405006.98046   4211689.74946                  22599073.9654
        16.2504         16.7504
  22659870.9534   -8761285.55846  -6826973.32446                  22659878.7624
        16.2504         16.7504
  21323217.8134   -2889183.57046  -2251313.62447                  21323223.7774
        18.0004         32.2504
  24593094.9924    -523862.62845   -355591.76645                  24593103.8324
         9.2504          9.5004
  21020241.6884   -8023716.91347  -6252244.05446                  21020248.8404
        20.2504         19.0004
 98  6 17 15 44 15.0000000  0  8G 2G 4G 5G 7G 8G 9G16G24
  23575184.2344    5606797.92846   4368925.09746                  23575192.9694
        12.2504         12.5004
  20539084.4384   -2677720.74248  -2086535.53147                  20539090.4614
        28.5004         29.2504
  22678931.8134   -7930006.27946  -6179224.39546                  22678938.7424
        17.7504         16.7504
  22604712.3134    5434672.28646   4234805.55546                  22604719.2774
        16.0004         16.2504
  22652161.9224   -8801795.27346  -6858539.31846                  22652170.2234
        16.7504         16.7504
  21322358.5164   -2893699.86946  -2254832.82447                  21322364.5514
        18.2504         32.7504
  24590300.7664    -538549.01245   -367035.66845                  24590310.0394
         9.7504          9.2504
  21013375.0234   -8059802.42447  -6280362.60946                  21013382.2704
        20.5004         18.7504
 98  6 17 15 44 30.0000000  0  8G 2G 4G 5G 7G 8G 9G16G24
  23581852.0864    5641835.93346   4396227.37246                  23581860.7734
        12.5004         12.7504
  20538671.5944   -2679889.40448  -2088225.39947                  20538677.6994
        28.7504         29.7504
  22670690.2194   -7973314.69046  -6212971.19246                  22670696.8284
        18.0004         16.7504
  22610354.9774    5464323.95746   4257910.73446                  22610362.1524
        16.5004         16.0004
  22644470.3134   -8842213.12146  -6890033.73946                  22644478.2274
        15.7504         16.5004
  21321522.1564   -2898093.94546  -2258256.79347                  21321528.2274
        18.2504         32.7504
  24587522.4924    -553146.78245   -378410.52745                  24587531.3674
         9.5004          9.2504
  21006526.6414   -8095790.75547  -6308405.44046                  21006533.9104
        20.5004         19.0004
 98  6 17 15 44 45.0000000  0  8G 2G 4G 5G 7G 8G 9G16G24
  23588527.5314    5676919.06346   4423564.83046                  23588536.3014
        12.2504         12.7504
  20538283.3364   -2681930.76948  -2089816.07747                  20538289.4064
        28.7504         29.7504
  22662450.2034   -8016617.05446  -6246713.30046                  22662456.7774
        17.0004         16.2504
  22615995.2664    5493963.22846   4281006.24346                  22616001.8634
        17.2504         16.5004
  22636795.7424   -8882542.15146  -6921458.94246                  22636803.5984
        15.2504         16.7504
  21320708.9454   -2902367.57846  -2261586.90547                  21320715.0744
        18.0004         33.0004
  24584761.8444    -567653.13945   -389714.20145                  24584771.1174
         9.2504          9.0004
  20999696.6334   -8131681.22147  -6336372.02446                  20999703.7854
        21.2504         19.0004
 98  6 17 15 45  0.0000000  0  8G 2G 4G 5G 7G 8G 9G16G24
  23595211.8524    5712044.47545   4450935.22646                  23595221.4184
        11.5004         12.2504
  20537919.6254   -2683841.65748  -2091305.08347                  20537925.6024
        29.7504         30.2504
  22654211.0314   -8059912.74846  -6280450.20546                  22654217.6764
        18.0004         16.5004
  22621633.0084    5523589.69046   4304091.76746                  22621639.7704
        17.5004         17.0004
  22629138.1024   -8922782.73446  -6952815.23346                  22629146.2274
        16.0004         16.2504
  21319918.5784   -2906520.62346  -2264823.05847                  21319924.6024
        18.0004         32.7504
  24582019.7194    -582064.51945   -400943.81545                  24582029.3444
         9.0004         10.2504
  20992885.4224   -8167474.76347  -6364263.07046                  20992892.4924
        21.5004         19.0004
 98  6 17 15 45 15.0000000  0  8G 2G 4G 5G 7G 8G 9G16G24
  23601904.3914    5747213.26845   4478339.40146                  23601913.9104
        11.2504         12.0004
  20537581.1804   -2685620.11648  -2092690.90147                  20537587.1804
        30.0004         30.5004
  22645973.5784   -8103201.63446  -6314181.80046                  22645980.1764
        17.5004         16.5004
  22627268.5314    5553204.00746   4327167.84946                  22627275.8244
        17.0004         17.0004
  22621497.7194   -8962934.30246  -6984102.17446                  22621505.5514
        15.2504         16.0004
  21319151.6174   -2910550.63846  -2267963.34047                  21319157.6414
        18.0004         33.0004
  24579295.5704    -596379.20645   -412098.11145                  24579304.4804
         9.5004          9.2504
  20986092.7814   -8203172.43047  -6392079.42546                  20986099.6134
        21.5004         19.0004
 98  6 17 15 45 30.0000000  0  8G 2G 4G 5G 7G 8G 9G16G24
  23608605.9614    5782428.91845   4505780.12646                  23608615.8674
        11.0004         12.2504
  20537269.8054   -2687256.54248  -2093966.03647                  20537275.7584
        30.0004         30.5004
  22637737.7894   -8146480.38846  -6347905.49846                  22637744.3284
        17.7504         16.7504
  22632902.7894    5582811.66646   4350238.71846                  22632909.8364
        17.7504         17.2504
  22613874.9064   -9002992.88346  -7015316.63646                  22613882.8914
        15.0004         16.5004
  21318408.8984   -2914453.63446  -2271004.65147                  21318414.8634
        17.7504         33.0004
  24576590.9304    -610592.53545   -423173.38745                  24576601.3054
         9.5004          9.2504
  20979317.8984   -8238773.58447  -6419820.57346                  20979324.6844
        21.5004         19.0004
 98  6 17 15 45 45.0000000  0  8G 2G 4G 5G 7G 8G 9G16G24
  23615316.7584    5817692.37445   4533258.07746                  23615327.0164
        11.0004         12.2504
  20536986.3204   -2688746.54048  -2095127.08147                  20536992.3554
        30.5004         30.7504
  22629503.8204   -8189750.95446  -6381622.80746                  22629510.3134
        17.7504         16.5004
  22638535.7734    5612414.25546   4373305.64746                  22638542.9144
        17.7504         17.5004
  22606270.3284   -9042958.43546  -7046458.61446                  22606278.1374
        15.7504         16.2504
  21317690.3054   -2918230.11046  -2273947.37647                  21317696.3874
        17.7504         32.7504
  24573905.4144    -624704.58645   -434169.75845                  24573914.2544
         9.2504          9.5004
  20972561.8054   -8274277.56547  -6447485.99746                  20972568.8404
        21.0004         18.7504
 98  6 17 15 46  0.0000000  0  8G 2G 4G 5G 7G 8G 9G16G24
  23622035.1094    5852999.62445   4560770.14946                  23622044.6524
        10.5004         12.0004
  20536729.2814   -2690096.85848  -2096179.27847                  20536735.3164
        31.5004         31.0004
  22621269.7424   -8233022.14546  -6415340.62146                  22621276.6374
        18.2504         16.5004
  22644166.4774    5642003.45946   4396362.13346                  22644173.0044
        17.5004         17.5004
  22598681.6954   -9082834.38646  -7077530.79246                  22598689.8324
        15.7504         16.5004
  21316994.0164   -2921889.94546  -2276799.20347                  21317000.0634
        18.2504         32.5004
  24571238.1414    -638721.96745   -445092.38545                  24571247.6484
         9.7504          9.5004
  20965822.8204   -8309688.84547  -6475079.17546                  20965830.1134
        20.7504         18.7504
 98  6 17 15 46 15.0000000  0  8G 2G 4G 5G 7G 8G 9G16G24
  23628762.0944    5888349.41145   4588315.36545                  23628770.4414
        10.5004         11.7504
  20536498.2344   -2691311.68548  -2097125.90047                  20536504.2234
        32.0004         31.2504
  22613034.7814   -8276296.96546  -6449061.25046                  22613041.7234
        18.2504         17.0004
  22649794.2274    5671577.52046   4419406.83946                  22649801.6604
        17.0004         17.5004
  22591109.8524   -9122622.36246  -7108534.39346                  22591117.2034
        15.7504         16.5004
  21316319.7344   -2925433.51246  -2279560.43647                  21316325.8284
        18.7504         32.0004
  24568588.9064    -652646.87745   -455942.93545                  24568599.3754
        10.5004          9.2504
  20959101.6564   -8345009.18547  -6502601.50246                  20959108.8444
        20.5004         19.0004
 98  6 17 15 46 30.0000000  0  8G 2G 4G 5G 7G 8G 9G16G24
  23635496.9924    5923742.46645   4615894.33345                  23635505.3754
        11.0004         11.7504
  20536292.5634   -2692392.48448  -2097968.08547                  20536298.4804
        32.2504         31.2504
  22604799.3204   -8319573.86846  -6482783.49446                  22604806.5204
        19.2504         17.0004
  22655419.6954    5701139.49246   4442442.10846                  22655427.0124
        17.2504         17.5004
  22583555.2734   -9162323.88046  -7139470.64546                  22583563.4454
        15.2504         16.2504
  21315667.7034   -2928858.92647  -2282229.59947                  21315673.7154
        21.5004         31.7504
  24565955.8594    -666479.04645   -466721.22645                  24565965.8954
         9.5004          9.2504
  20952398.0634   -8380237.33147  -6530051.99546                  20952404.9694
        20.2504         18.5004
 98  6 17 15 46 45.0000000  0  8G 2G 4G 5G 7G 8G 9G16G24
  23642240.7974    5959180.69945   4643508.49045                  23642249.0044
        11.2504         11.7504
  20536113.2424   -2693335.86048  -2098703.19047                  20536119.1844
        32.5004         31.2504
  22596564.5234   -8362849.06147  -6516504.42346                  22596570.7704
        20.0004         17.2504
  22661043.7504    5730695.02346   4465472.37046                  22661050.7854
        17.2504         17.5004
  22576017.6804   -9201934.83546  -7170336.31146                  22576025.6884
        16.2504         16.2504
  21315038.8054   -2932164.39748  -2284805.30747                  21315044.9344
        29.0004         31.5004
  24563341.5944    -680216.93545   -477426.05845                  24563352.2854
         9.0004          8.7504
  20945712.8284   -8415368.64146  -6557427.03046                  20945719.7704
        19.5004         18.5004
 98  6 17 15 47  0.0000000  0  8G 2G 4G 5G 7G 8G 9G16G24
  23648992.5554    5994660.85445   4671155.28845                  23649000.7034
        10.5004         11.5004
  20535958.9924   -2694145.39248  -2099334.00247                  20535965.0274
        32.0004         31.0004
  22588329.5394   -8406123.76246  -6550224.96746                  22588336.0554
        19.7504         17.5004
  22666666.7274    5760241.66246   4488495.71246                  22666673.6804
        17.0004         17.2504
  22568497.3204   -9241453.26946  -7201129.88646                  22568505.0824
        16.7504         17.0004
  21314432.1094   -2935352.30248  -2287289.40047                  21314438.0744
        32.5004         31.0004
  24560743.6564    -693867.57245   -488062.92245                  24560753.1174
         8.2504          8.0004
  20939045.4454   -8450406.53346  -6584729.27046                  20939052.2894
        19.0004         18.5004
 98  6 17 15 47 15.0000000  0  8G 2G 4G 5G 7G 8G 9G16G24
  23655754.4694    6030193.58245   4698843.08045                  23655763.6604
        10.5004         11.5004
  20535832.0784   -2694812.03548  -2099853.46647                  20535837.9264
        31.0004         31.2504
  22580097.3984   -8449384.83446  -6583934.87546                  22580104.1024
        19.7504         18.0004
  22672288.8134    5789787.47146   4511518.39646                  22672295.7774
        16.7504         17.2504
  22560997.6954   -9280865.29746  -7231840.55546                  22561004.9184
        16.7504         17.0004
  21313850.3134   -2938409.66548  -2289671.77647                  21313856.3364
        31.2504         30.2504
  24558164.0474    -707424.61545   -498626.82345                  24558174.8444
         7.7504          8.2504
  20932397.3984   -8485340.61746  -6611950.62746                  20932404.1844
        18.7504         18.2504
 98  6 17 15 47 30.0000000  0  8G 2G 4G 5G 7G 8G 9G16G24
  23662524.9454    6065771.62445   4726566.16845                  23662533.6564
        10.7504         11.7504
  20535730.5394   -2695346.46448  -2100269.90847                  20535736.4804
        31.7504         31.2504
  22571866.0634   -8492640.49847  -6617640.58146                  22571872.7894
        20.0004         17.7504
  22677908.6174    5819321.57946   4534531.97346                  22677915.4884
        16.7504         17.2504
  22553517.1564   -9320177.80546  -7262473.66246                  22553524.5664
        17.0004         16.7504
  21313291.9144   -2941343.39648  -2291957.81447                  21313297.9844
        30.7504         30.0004
  24555599.6884    -720898.72445   -509126.14145                  24555608.6914
         8.7504          8.7504
  20925768.0864   -8520177.48746  -6639096.22446                  20925775.2034
        18.0004         18.5004
 98  6 17 15 47 45.0000000  0  8G 2G 4G 5G 7G 8G 9G16G24
  23669302.3674    6101389.81945   4754320.52846                  23669310.9144
        10.5004         12.0004
  20535652.4454   -2695755.73248  -2100588.82647                  20535658.3874
        32.0004         31.0004
  22563634.8444   -8535895.88347  -6651346.07646                  22563640.8674
        20.0004         17.7504
  22683525.3054    5848838.59846   4557532.23346                  22683533.2194
        16.0004         17.0004
  22546053.6484   -9359396.80446  -7293033.92346                  22546060.7074
        17.5004         17.5004
  21312756.1564   -2944158.33548  -2294151.28847                  21312762.3674
        30.7504         29.7504
  24553050.9614    -734294.09145   -519564.08345                  24553060.5514
         8.2504          8.7504
  20919156.8914   -8554919.40746  -6666167.83046                  20919163.7734
        17.5004         18.5004
 98  6 17 15 48  0.0000000  0  8G 2G 4G 5G 7G 8G 9G16G24
  23676089.8364    6137057.19445   4782113.24645                  23676099.2384
        10.0004         11.7504
  20535599.0234   -2696037.66648  -2100808.52147                  20535605.0004
        32.2504         31.0004
  22555405.2424   -8579143.21847  -6685045.29446                  22555411.7584
        20.0004         17.7504
  22689140.5234    5878344.46746   4580523.79246                  22689147.8284
        16.5004         17.5004
  22538609.6954   -9398514.96646  -7323515.59146                  22538616.6604
        18.0004         17.2504
  21312244.6414   -2946846.39248  -2296245.89847                  21312250.9454
        29.0004         29.2504
  24550518.3364    -747601.76045   -529933.69345                  24550528.4414
         8.0004          8.5004
  20912564.9844   -8589560.04246  -6693160.53046                  20912572.0084
        17.2504         18.5004
 98  6 17 15 48 15.0000000  0  8G 2G 4G 5G 7G 8G 9G16G24
  23682885.5234    6172769.19945   4809940.73045                  23682895.1724
        10.0004         11.5004
  20535568.4454   -2696197.22048  -2100932.85647                  20535574.4104
        31.7504         30.7504
  22547176.9304   -8622384.21446  -6718739.57546                  22547183.3524
        19.5004         18.0004
  22694752.5634    5907837.04346   4603505.00146                  22694759.8554
        16.2504         17.2504
  22531183.9384   -9437538.81346  -7353923.77146                  22531190.4534
        18.5004         17.2504
  21311757.1024   -2949409.27548  -2298242.96547                  21311763.4534
        29.0004         28.7504
  24548002.2664    -760823.95445   -540236.69145                  24548011.0594
         7.5004          7.2504
  20905991.2504   -8624105.82546  -6720079.31146                  20905998.3674
        16.7504         18.2504
 98  6 17 15 48 30.0000000  0  8G 2G 4G 5G 7G 8G 9G16G24
  23689690.5084    6208531.36745   4837807.28745                  23689699.6994
        10.2504         11.7504
  20535562.9924   -2696226.92148  -2100956.00547                  20535569.0394
        32.5004         30.5004
  22538950.4694   -8665612.00146  -6752423.54646                  22538957.1374
        18.7504         17.7504
  22700364.7034    5937326.71246   4626483.94046                  22700372.3014
        16.5004         17.5004
  22523776.9694   -9476461.85446  -7384253.42346                  22523783.6604
        18.7504         17.5004
  21311295.0944   -2951837.44748  -2300135.06447                  21311301.2344
        28.7504         28.5004
  24545504.1094    -773952.18644   -550466.45245                  24545512.5514
         6.7504          7.2504
  20899436.6254   -8658551.54946  -6746920.12346                  20899443.4224
        16.7504         18.2504
 98  6 17 15 48 45.0000000  0  8G 2G 4G 5G 7G 8G 9G16G24
  23696503.8204    6244335.08845   4865706.21645                  23696513.4104
        10.2504         11.7504
  20535581.0234   -2696131.29848  -2100881.49747                  20535586.9884
        32.2504         30.0004
  22530725.4144   -8708835.65746  -6786104.31446                  22530731.8364
        19.2504         17.7504
  22705974.8594    5966807.37646   4649455.86046                  22705982.9144
        16.7504         17.2504
  22516388.7734   -9515286.85646  -7414506.66746                  22516395.8794
        18.5004         17.7504
  21310857.0474   -2954139.78448  -2301929.09947                  21310863.1054
        28.7504         28.0004
  24543021.9144    -786992.70344   -560627.95545                  24543029.0554
         7.2504          7.0004
  20892899.6564   -8692904.79746  -6773688.88646                  20892906.8914
        16.5004         18.5004
 98  6 17 15 49  0.0000000  0  8G 2G 4G 5G 7G 8G 9G16G24
  23703325.2894    6280181.08345   4893638.11345                  23703335.5704
        10.2504         11.5004
  20535623.0784   -2695911.06848  -2100709.89947                  20535629.0664
        31.7504         29.7504
  22522500.8984   -8752055.61646  -6819782.20746                  22522507.9574
        18.5004         18.5004
  22711583.0314    5996280.17846   4672421.64746                  22711590.7464
        17.0004         17.5004
  22509020.0944   -9554008.36646  -7444679.25146                  22509027.7034
        18.2504         17.2504
  21310443.1804   -2956314.79848  -2303623.93247                  21310449.3674
        29.0004         28.2504
  24540557.9304    -799943.36144   -570719.38045                  24540566.5124
         7.2504          8.0004
  20886379.5084   -8727166.37046  -6800386.21546                  20886386.6374
        16.5004         18.2504
 98  6 17 15 49 15.0000000  0  8G 2G 4G 5G 7G 8G 9G16G24
  23710154.8054    6316070.65045   4921603.95046                  23710164.3834
        10.5004         12.0004
  20535689.1644   -2695563.57748  -2100439.13447                  20535695.1524
        31.5004         29.2504
  22514277.2974   -8795270.83846  -6853456.38946                  22514284.8834
        18.0004         18.0004
  22717190.4614    6025745.52746   4695381.63746                  22717197.5904
        17.0004         17.0004
  22501671.8594   -9592624.11546  -7474769.44346                  22501679.8444
        17.7504         17.0004
  21310054.0944   -2958358.49448  -2305216.43347                  21310060.3164
        29.2504         28.0004
  24538112.1954    -812798.14544   -580736.07645                  24538121.7384
         6.5004          7.5004
  20879878.2814   -8761332.71346  -6827009.32946                  20879885.6684
        15.7504         18.0004
 98  6 17 15 49 30.0000000  0  8G 2G 4G 5G 7G 8G 9G16G24
  23716991.9064    6352000.36545   4949601.06545                  23717002.9144
        10.7504         11.5004
  20535778.4534   -2695093.91648  -2100073.16647                  20535784.3834
        30.7504         29.2504
  22506053.5234   -8838487.30946  -6887131.56246                  22506060.4774
        18.5004         18.0004
  22722795.2584    6055200.29946   4718333.38246                  22722802.7034
        16.7504         16.7504
  22494342.8914   -9631139.44946  -7504781.37546                  22494350.1844
        18.2504         17.2504
  21309689.4064   -2960274.55348  -2306709.47447                  21309695.5944
        29.5004         28.2504
  24535684.3054    -825555.65344   -590677.00445                  24535694.2464
         6.7504          7.7504
  20873394.3134   -8795404.87746  -6853559.06446                  20873401.8284
        15.7504         18.0004
 98  6 17 15 49 45.0000000  0  8G 2G 4G 5G 7G 8G 9G16G24
  23723838.9304    6387979.09545   4977636.37845                  23723848.2274
        11.0004         11.5004
  20535892.5704   -2694494.16548  -2099605.83447                  20535898.5704
        30.0004         28.7504
  22497830.3054   -8881699.47746  -6920803.37746                  22497837.2464
        18.5004         18.0004
  22728400.7274    6084656.29146   4741286.08046                  22728408.6524
        16.5004         16.7504
  22487034.3444   -9669545.05746  -7534707.82246                  22487041.4144
        18.2504         17.0004
  21309350.0784   -2962059.30648  -2308100.20147                  21309356.3484
        29.7504         28.2504
  24533277.1024    -838203.27844   -600532.27545                  24533286.3984
         6.5004          7.2504
  20866930.1414   -8829373.71546  -6880028.28646                  20866937.1054
        15.7504         18.2504
 98  6 17 15 50  0.0000000  0  8G 2G 4G 5G 7G 8G 9G16G24
  23730694.5554    6424006.30445   5005709.50445                  23730704.4264
        11.0004         11.2504
  20536032.2894   -2693760.80348  -2099034.39047                  20536038.2194
        30.0004         28.5004
  22489608.7664   -8924904.61046  -6954469.69746                  22489615.5744
        18.7504         17.7504
  22734006.4304    6114115.36946   4764241.17646                  22734014.1094
        16.2504         16.2504
  22479746.7664   -9707840.49646  -7564548.41646                  22479753.8834
        17.7504         16.5004
  21309035.1644   -2963713.89448  -2309389.49747                  21309041.4804
        30.0004         28.5004
  24530891.3914    -850739.77344   -610300.93245                  24530899.4344
         6.2504          7.0004
  20860485.1094   -8863240.99446  -6906418.36646                  20860492.5904
        15.7504         18.2504
 98  6 17 15 50 15.0000000  0  8G 2G 4G 5G 7G 8G 9G16G24
  23737558.7974    6460077.17745   5033816.60745                  23737568.3524
        10.5004         11.5004
  20536196.9064   -2692894.06648  -2098359.01447                  20536202.8714
        29.5004         28.0004
  22481388.5634   -8968103.46346  -6988131.13646                  22481395.2074
        19.0004         18.0004
  22739613.0234    6143576.35446   4787197.76646                  22739620.3754
        16.7504         16.5004
  22472480.7034   -9746024.83046  -7594302.42946                  22472487.3714
        18.2504         16.5004
  21308744.9844   -2965238.68548  -2310577.65947                  21308751.3484
        30.2504         28.7504
  24528525.9304    -863168.65944   -619985.74245                  24528532.9184
         6.2504          7.2504
  20854059.8674   -8897007.18746  -6932729.69046                  20854067.3014
        15.7504         18.5004
 98  6 17 15 50 30.0000000  0  8G 2G 4G 5G 7G 8G 9G16G24
  23744430.1094    6496186.91245   5061953.99945                  23744440.1564
        11.0004         11.7504
  20536386.8754   -2691895.62348  -2097581.01347                  20536392.8634
        28.7504         28.0004
  22473168.4384   -9011298.48246  -7021789.59446                  22473175.3094
        18.5004         18.0004
  22745218.7424    6173036.61446   4810153.79546                  22745226.1994
        16.2504         16.0004
  22465235.3984   -9784098.35646  -7623970.11146                  22465241.7274
        18.5004         16.2504
  21308478.5004   -2966637.65148  -2311667.76847                  21308484.8524
        30.7504         29.2504
  24526181.1884    -875492.99544   -629589.14445                  24526191.0704
         6.2504          7.5004
  20847653.7114   -8930672.01946  -6958962.02246                  20847661.1914
        15.7504         18.7504
 98  6 17 15 50 45.0000000  0  8G 2G 4G 5G 7G 8G 9G16G24
  23751308.5394    6532333.27245   5090119.93645                  23751318.2704
        10.7504         11.7504
  20536601.9304   -2690767.05448  -2096701.61747                  20536607.9774
        28.7504         27.7504
  22464949.6334   -9054490.27746  -7055445.52846                  22464956.7974
        18.7504         18.0004
  22750823.6024    6202490.75846   4833105.05246                  22750830.7194
        16.2504         15.7504
  22458011.1804   -9822061.25746  -7653551.58646                  22458017.2154
        18.0004         16.5004
  21308235.5944   -2967915.79248  -2312663.73447                  21308241.8874
        31.5004         29.2504
  24523854.7424    -887715.29343   -639113.02145                  24523864.1914
         6.0004          7.2504
  20841266.9844   -8964234.49946  -6985114.59946                  20841274.4414
        16.0004         19.0004
 98  6 17 15 51  0.0000000  0  8G 2G 4G 5G 7G 8G 9G16G24
  23758192.6954    6568508.90045   5118308.68045                  23758201.5004
        10.7504         11.2504
  20536839.7814   -2689515.87448  -2095726.67547                  20536845.8054
        28.5004         27.7504
  22456729.8834   -9097683.38946  -7089102.48046                  22456736.8834
        19.2504         18.0004
  22756424.9694    6231926.28146   4856041.80046                  22756431.6604
        15.5004         15.7504
  22450806.8674   -9859921.33246  -7683052.92446                  22450812.7974
        18.7504         16.0004
  21308013.5004   -2969083.16848  -2313573.38647                  21308019.7814
        32.2504         29.7504
  24521547.4384    -899843.19544   -648563.32245                  24521554.7664
         6.5004          7.2504
  20834897.6724   -8997704.06246  -7011194.77346                  20834905.1994
        15.7504         19.0004
 98  6 17 15 51 15.0000000  0  8G 2G 4G 5G 7G 8G 9G16G24
  23765085.0314    6604726.42345   5146530.04045                  23765093.6134
        11.2504         11.5004
  20537103.1564   -2688132.21847  -2094648.50747                  20537109.1564
        27.2504         27.7504
  22448512.6484   -9140865.48746  -7122750.85946                  22448519.9184
        19.2504         18.0004
  22762024.4384    6261351.92546   4878970.85246                  22762031.9884
        15.2504         15.5004
  22443623.5164   -9897669.77846  -7712467.29746                  22443629.8324
        19.2504         16.7504
  21307814.4844   -2970129.46148  -2314388.68647                  21307820.6954
        29.7504         30.2504
  24519258.7424    -911864.88843   -657930.84145                  24519270.1724
         5.5004          6.5004
  20828548.8754   -9031067.76146  -7037192.45246                  20828556.2854
        16.7504         19.5004
 98  6 17 15 51 30.0000000  0  8G 2G 4G 5G 7G 8G 9G16G24
  23771983.9694    6640981.12145   5174780.41245                  23771992.4104
        11.2504         11.0004
  20537390.7814   -2686620.32347  -2093470.41147                  20537396.8284
        27.2504         28.0004
  22440296.5084   -9184042.12746  -7156394.98946                  22440303.3054
        19.5004         18.2504
  22767621.6484    6290764.13846   4901889.44046                  22767629.3404
        15.0004         15.5004
  22436459.8054   -9935315.19346  -7741801.38346                  22436466.3914
        18.5004         16.7504
  21307637.3594   -2971061.27947  -2315114.79247                  21307643.4534
        21.7504         30.7504
  24516991.1804    -923786.82643   -667220.63345                  24516998.5084
         6.0004          6.5004
  20822219.4144   -9064330.08246  -7063111.14146                  20822226.4844
        18.0004         19.7504
 98  6 17 15 51 45.0000000  0  8G 2G 4G 5G 7G 8G 9G16G24
  23778892.1644    6677284.01645   5203068.32345                  23778900.1724
        11.2504         11.0004
  20537704.6564   -2684971.33947  -2092185.49347                  20537710.7974
        27.7504         28.2504
  22432083.1094   -9227203.62246  -7190027.30946                  22432090.0394
        19.0004         18.2504
  22773217.8204    6320175.06046   4924807.02546                  22773225.4884
        14.7504         15.5004
  22429317.3364   -9972848.90646  -7771048.41346                  22429324.6524
        18.2504         16.7504
  21307483.1884   -2971870.15846  -2315745.09247                  21307489.4804
        19.0004         31.0004
  24514742.7584    -935599.82343   -676425.55645                  24514752.1484
         6.0004          6.0004
  20815910.6804   -9097482.69046  -7088944.33846                  20815917.7384
        18.2504         20.0004
 98  6 17 15 52  0.0000000  0  8G 2G 4G 5G 7G 8G 9G16G24
  23785806.6094    6713619.94345   5231381.97245                  23785815.5314
        10.7504         11.5004
  20538042.2504   -2683196.73447  -2090802.68747                  20538048.3444
        27.2504         28.2504
  22423870.6484   -9270361.54246  -7223656.84446                  22423877.4924
        18.7504         18.0004
  22778811.5554    6349569.84046   4947712.01746                  22778819.3984
        15.0004         15.7504
  22422193.5784  -10010285.30046  -7800219.62646                  22422200.9184
        18.0004         16.7504
  21307350.3134   -2972567.84046  -2316288.75147                  21307356.5594
        18.2504         31.5004
  24512512.1564    -947320.64743   -685558.64745                  24512524.3364
         5.5004          6.7504
  20809619.3134   -9130544.08746  -7114706.46246                  20809626.2424
        18.7504         20.5004
 98  6 17 15 52 15.0000000  0  8G 2G 4G 5G 7G 8G 9G16G24
  23792728.5164    6749992.83145   5259724.41145                  23792737.2974
        10.7504         11.2504
  20538404.4534   -2681293.63848  -2089319.76047                  20538410.6054
        28.0004         28.7504
  22415659.9534   -9313507.83546  -7257277.31946                  22415666.5864
        19.7504         17.7504
  22784402.6724    6378952.19346   4970607.32646                  22784410.3754
        15.2504         16.0004
  22415088.8834  -10047620.00046  -7829311.59646                  22415096.0594
        17.7504         16.7504
  21307240.4384   -2973145.70746  -2316739.04747                  21307246.7424
        18.0004         31.7504
  24510299.9064    -958945.14243   -694616.70345                  24510311.0664
         5.7504          6.7504
  20803346.0554   -9163509.64546  -7140393.90146                  20803352.8054
        19.5004         20.5004
 98  6 17 15 52 30.0000000  0  8G 2G 4G 5G 7G 8G 9G16G24
  23799658.7034    6786413.35345   5288103.98145                  23799667.2384
        10.5004         10.7504
  20538792.2734   -2679255.65548  -2087731.72347                  20538798.6604
        28.5004         29.0004
  22407452.7814   -9356635.96546  -7290883.65146                  22407460.0394
        19.5004         18.2504
  22789993.2894    6408328.85446   4993498.21746                  22790001.4144
        15.7504         16.0004
  22408005.3834  -10084844.72546  -7858317.86346                  22408012.5354
        18.2504         17.2504
  21307154.4614   -2973597.86646  -2317091.39047                  21307160.8134
        18.5004         32.2504
  24508108.7814    -970463.54843   -703592.09245                  24508118.9104
         5.7504          7.2504
  20797093.2114   -9196368.85547  -7165998.47046                  20797100.5164
        20.0004         20.7504
 98  6 17 15 52 45.0000000  0  8G 2G 4G 5G 7G 8G 9G16G24
  23806598.1414    6822878.01845   5316517.93545                  23806607.1804
        10.7504         10.7504
  20539204.1954   -2677091.13948  -2086045.08847                  20539210.2194
        28.7504         29.5004
  22399247.6884   -9399754.91346  -7324482.80946                  22399255.0044
        19.2504         18.7504
  22795580.8134    6437691.35846   5016378.06546                  22795588.7504
        15.2504         15.7504
  22400940.4304  -10121970.73046  -7887247.22046                  22400947.8164
        17.5004         16.7504
  21307090.5084   -2973935.01946  -2317354.11447                  21307096.7424
        18.2504         32.5004
  24505936.5704    -981884.05643   -712491.12945                  24505947.6484
         5.7504          6.2504
  20790858.5864   -9229130.92246  -7191527.34146                  20790865.8914
        19.7504         21.5004
 98  6 17 15 53  0.0000000  0  8G 2G 4G 5G 7G 8G 9G16G24
  23813545.7424    6859387.66045   5344966.94645                  23813555.1564
        10.2504         11.5004
  20539640.5394   -2674798.20748  -2084258.38847                  20539646.5514
        29.7504         29.7504
  22391043.8674   -9442866.34746  -7358076.13146                  22391050.7624
        19.5004         18.7504
  22801166.0704    6467041.64646   5039248.39546                  22801174.2894
        15.0004         15.7504
  22393893.9454  -10158999.56746  -7916100.85546                  22393901.4024
        17.2504         16.7504
  21307048.4844   -2974156.06846  -2317526.36947                  21307054.7894
        18.7504         32.7504
  24503781.5944    -993205.88644   -721313.32045                  24503793.7854
         6.7504          7.5004
  20784642.8834   -9261796.66147  -7216981.15846                  20784650.2114
        20.5004         21.2504
 98  6 17 15 53 15.0000000  0  8G 2G 4G 5G 7G 8G 9G16G24
  23820502.8204    6895947.11945   5373454.76445                  23820511.7424
         9.5004         10.7504
  20540101.6644   -2672375.70848  -2082370.72847                  20540107.6524
        30.2504         30.0004
  22382841.3054   -9485970.61046  -7391663.87046                  22382848.2704
        19.5004         18.5004
  22806750.1414    6496385.81846   5062113.95346                  22806757.9734
        14.5004         14.7504
  22386866.5944  -10195928.30046  -7944876.48646                  22386873.9344
        18.0004         16.7504
  21307029.5164   -2974256.27946  -2317604.46847                  21307035.6684
        18.5004         32.5004
  24501646.1174   -1004425.84345   -730056.18145                  24501654.9224
         7.7504          8.0004
  20778445.5004   -9294362.59547  -7242357.19746                  20778452.8404
        21.2504         21.7504
 98  6 17 15 53 30.0000000  0  8G 2G 4G 5G 7G 8G 9G16G24
  23827468.6724    6932553.24645   5401978.96245                  23827478.4144
         9.7504         11.0004
  20540586.4064   -2669827.94048  -2080385.46047                  20540592.4534
        30.5004         30.2504
  22374639.5474   -9529070.64846  -7425248.30146                  22374646.5354
        19.2504         18.7504
  22812333.2974    6525726.14446   5084976.52946                  22812341.8204
        14.0004         15.0004
  22379857.7504  -10232761.78146  -7973577.90446                  22379864.9844
        18.5004         17.0004
  21307032.8914   -2974237.04946  -2317589.49447                  21307039.1374
        18.5004         32.7504
  24499529.8204   -1015546.96845   -738721.95845                  24499538.2274
         8.0004          8.0004
  20772267.5394   -9326829.32747  -7267655.93546                  20772274.6914
        22.0004         21.5004
 98  6 17 15 53 45.0000000  0  8G 2G 4G 5G 7G 8G 9G16G24
  23834444.1094    6969209.52345   5430542.21745                  23834452.6804
         9.7504         10.7504
  20541095.9534   -2667150.04648  -2078298.79347                  20541102.0004
        31.5004         30.7504
  22366439.9614   -9572160.07847  -7458824.46946                  22366447.1604
        20.0004         19.2504
  22817916.0704    6555064.60146   5107837.63046                  22817924.4534
        13.7504         14.7504
  22372867.3524  -10269495.19146  -8002201.33546                  22372874.7034
        18.2504         17.0004
  21307060.1954   -2974093.85846  -2317477.92547                  21307066.2194
        18.7504         32.7504
  24497433.7274   -1026565.35545   -747307.75245                  24497443.6804
         8.0004          8.0004
  20766108.6564   -9359193.79247  -7292874.98446                  20766115.8094
        22.5004         21.7504
 98  6 17 15 54  0.0000000  0  8G 2G 4G 5G 7G 8G 9G16G24
  23841429.1094    7005912.43445   5459141.84045                  23841438.5704
        10.0004         11.2504
  20541629.8444   -2664345.50648  -2076113.44447                  20541635.7504
        32.0004         31.0004
  22358242.0704   -9615240.55546  -7492393.67646                  22358249.4694
        19.5004         19.2504
  22823497.2504    6584393.12646   5130691.00946                  22823505.3164
        14.0004         14.7504
  22365896.1954  -10306129.29146  -8030747.38846                  22365903.7814
        17.7504         17.7504
  21307110.3134   -2973830.50846  -2317272.72447                  21307116.4064
        18.5004         33.0004
  24495355.3754   -1037485.13145   -755816.67345                  24495364.0864
         7.5004          7.2504
  20759968.8594   -9391459.41447  -7318017.01946                  20759975.8714
        22.0004         22.0004
 98  6 17 15 54 15.0000000  0  8G 2G 4G 5G 7G 8G 9G16G24
  23848422.6724    7042666.10445   5487781.01745                  23848432.5554
        10.0004         11.0004
  20542187.9064   -2661412.99648  -2073828.37247                  20542193.9774
        32.5004         31.2504
  22350046.5474   -9658308.01747  -7525952.71846                  22350053.8524
        20.5004         19.7504
  22829076.5164    6613710.72146   5153535.85346                  22829083.6804
        14.5004         15.0004
  22358944.3594  -10342660.58446  -8059213.31846                  22358952.1334
        17.7504         17.0004
  21307183.5864   -2973445.84846  -2316973.00147                  21307189.6684
        18.5004         33.0004
  24493296.4534   -1048304.77644   -764247.53645                  24493304.2034
         7.2504          7.0004
  20753848.4614   -9423623.11047  -7343079.62746                  20753855.2344
        22.2504         21.5004
 98  6 17 15 54 30.0000000  0  8G 2G 4G 5G 7G 8G 9G16G24
  23855426.9384    7079473.58745   5516462.10645                  23855436.6334
         9.5004         11.0004
  20542770.7424   -2658350.11248  -2071441.71247                  20542776.7424
        31.5004         31.5004
  22341853.9224   -9701361.92947  -7559501.22146                  22341860.8754
        20.7504         20.0004
  22834653.7194    6643018.80046   5176373.29646                  22834661.1524
        14.7504         15.2504
  22352013.1174  -10379086.67746  -8087597.27146                  22352020.9494
        18.7504         17.5004
  21307279.5554   -2972940.84746  -2316579.50247                  21307285.6374
        18.2504         33.0004
  24491257.3984   -1059022.51645   -772599.01045                  24491266.5554
         7.5004          8.0004
  20747748.4694   -9455678.04847  -7368057.48146                  20747755.2074
        22.2504         21.7504
 98  6 17 15 54 45.0000000  0  8G 2G 4G 5G 7G 8G 9G16G24
  23862439.5944    7116325.62345   5545177.90845                  23862448.7734
         9.2504         11.0004
  20543377.0474   -2655164.29048  -2068959.25547                  20543382.9414
        28.0004         31.7504
  22333661.1094   -9744414.07847  -7593048.34646                  22333667.6134
        20.5004         19.5004
  22840227.4844    6672309.15646   5199196.93346                  22840234.5434
        14.7504         15.0004
  22345099.5234  -10415417.46146  -8115906.96546                  22345106.3954
        18.5004         17.2504
  21307396.5314   -2972325.63746  -2316100.12547                  21307402.6374
        18.0004         32.5004
  24489235.7194   -1069648.44145   -780878.95845                  24489244.5004
         8.0004          8.0004
  20741667.4304   -9487633.01747  -7392957.44246                  20741674.4654
        22.0004         21.5004
 98  6 17 15 55  0.0000000  0  8G 2G 4G 5G 7G 8G 9G16G24
  23869461.1334    7153223.59345   5573929.52845                  23869470.1374
         9.2504         11.2504
  20544007.2274   -2651852.36348  -2066378.54047                  20544013.1454
        31.7504         31.5004
  22325469.8444   -9787460.62547  -7626591.10846                  22325476.3834
        21.2504         20.0004
  22845798.9774    6701586.13846   5222010.13946                  22845805.6564
        15.2504         15.0004
  22338204.8914  -10451647.89346  -8144138.46546                  22338212.1724
        18.7504         17.7504
  21307535.7814   -2971594.12146  -2315530.12647                  21307541.8754
        18.5004         32.2504
  24487231.0864   -1080180.84945   -789086.04045                  24487238.2624
         8.7504          7.5004
  20735606.3364   -9519483.81447  -7417776.23346                  20735613.4064
        22.0004         21.5004
 98  6 17 15 55 15.0000000  0  8G 2G 4G 5G 7G 8G 9G16G24
  23876491.6254    7190172.51645   5602720.83545                  23876501.5784
         8.7504         10.0004
  20544662.7194   -2648407.31148  -2063694.08747                  20544668.7194
        30.7504         31.5004
  22317281.3594   -9830490.80447  -7660121.11246                  22317288.1094
        21.0004         20.0004
  22851369.2424    6730858.25446   5244819.56746                  22851376.2774
        15.2504         15.2504
  22331332.1644  -10487765.92947  -8172282.37546                  22331339.0824
        20.0004         17.7504
  21307698.8524   -2970737.48747  -2314862.62547                  21307705.0164
        20.0004         32.0004
  24485246.2664   -1090610.44645   -797213.00845                  24485253.3014
         8.5004          8.0004
  20729566.5864   -9551222.84047  -7442507.92046                  20729573.8324
        22.0004         21.5004
 98  6 17 15 55 30.0000000  0  8G 2G 4G 5G 7G 8G 9G16G24
  23883531.5164    7227165.35945   5631546.36645                  23883542.1954
         8.7504         10.5004
  20545342.2894   -2644836.24748  -2060911.44347                  20545348.2774
        32.0004         31.2504
  22309096.2894   -9873504.48747  -7693638.26246                  22309103.1214
        20.2504         20.0004
  22856937.9304    6760120.11546   5267620.99146                  22856944.9654
        15.5004         15.2504
  22324479.5864  -10523774.40847  -8200340.93246                  22324485.8674
        20.2504         17.5004
  21307884.5234   -2969762.16247  -2314102.64647                  21307890.7114
        26.2504         31.7504
  24483280.3754   -1100942.29945   -805263.75545                  24483287.6804
         8.0004          8.5004
  20723547.1334   -9582854.76447  -7467156.15846                  20723554.6604
        22.2504         21.5004
 98  6 17 15 55 45.0000000  0  8G 2G 4G 5G 7G 8G 9G16G24
  23890579.0704    7264200.35445   5660404.76445                  23890589.9144
         9.0004         10.7504
  20546045.7974   -2641139.21648  -2058030.64247                  20546051.8094
        32.5004         31.2504
  22300914.2274   -9916500.87647  -7727141.94746                  22300921.0234
        20.0004         20.0004
  22862503.0474    6789367.45046   5290411.11546                  22862510.3524
        15.0004         15.2504
  22317648.2894  -10559673.66647  -8228314.37946                  22317654.6524
        20.0004         18.0004
  21308092.2504   -2968670.55748  -2313252.05747                  21308098.5204
        32.0004         31.2504
  24481333.2584   -1111178.49345   -813240.01345                  24481340.3164
         9.2504          8.0004
  20717547.5704   -9614382.12947  -7491722.92346                  20717554.8984
        22.7504         21.0004
 98  6 17 15 56  0.0000000  0  8G 2G 4G 5G 7G 8G 9G16G24
  23897635.0004    7301278.47045   5689296.78245                  23897645.7734
         9.0004         10.7504
  20546773.7974   -2637313.95548  -2055049.92247                  20546779.7734
        32.0004         31.0004
  22292735.2734   -9959480.13247  -7760632.26346                  22292742.4734
        20.5004         20.5004
  22868065.9614    6818599.32746   5313189.17246                  22868073.2074
        14.5004         15.2504
  22310838.4844  -10595459.55046  -8256199.46846                  22310845.0124
        19.7504         17.7504
  21308322.2814   -2967460.22348  -2312308.95547                  21308328.4574
        32.0004         31.0004
  24479403.0084   -1121318.25145   -821141.09545                  24479410.4064
         8.5004          7.7504
  20711568.4534   -9645804.28747  -7516207.70746                  20711575.2974
        23.0004         21.0004
 98  6 17 15 56 15.0000000  0  8G 2G 4G 5G 7G 8G 9G16G24
  23904698.1094    7338394.49745   5718218.30045                  23904708.5084
         9.0004         11.0004
  20547525.0164   -2633366.19248  -2051973.74647                  20547531.0394
        31.7504         30.5004
  22284559.2194  -10002448.08547  -7794113.76846                  22284566.0394
        21.5004         20.2504
  22873625.1024    6847814.47046   5335954.19446                  22873632.9104
        14.5004         15.0004
  22304049.5314  -10631136.87147  -8283999.96846                  22304056.1414
        20.2504         18.2504
  21308574.8364   -2966134.09048  -2311275.62247                  21308581.1884
        31.5004         30.5004
  24477490.5234   -1131366.49245   -828970.89345                  24477498.5664
         8.7504          8.0004
  20705608.4454   -9677123.81247  -7540612.52046                  20705615.3054
        23.5004         21.0004
 98  6 17 15 56 30.0000000  0  8G 2G 4G 5G 7G 8G 9G16G24
  23911769.6024    7375557.50345   5747176.44445                  23911780.9734
         7.5004         10.2504
  20548301.4454   -2629285.81948  -2048794.23547                  20548307.4804
        30.7504         30.0004
  22276386.1174  -10045396.75747  -7827580.27046                  22276393.0594
        21.0004         20.5004
  22879184.1724    6877026.97346   5358717.17646                  22879192.3444
        14.5004         14.7504
  22297283.1884  -10666695.33846  -8311707.86046                  22297289.7034
        19.7504         18.0004
  21308851.4614   -2964679.88748  -2310142.48747                  21308857.5784
        31.2504         30.2504
  24475597.9064   -1141312.53045   -836721.06745                  24475604.7274
         8.2504          8.0004
  20699670.2664   -9708329.33747  -7564928.50446                  20699677.3484
        23.5004         20.7504
 98  6 17 15 56 45.0000000  0  8G 2G 4G 5G 7G 8G 9G16G24
  23918849.6954    7412763.21045   5776167.84045                  23918860.3164
         8.0004         10.2504
  20549102.7584   -2625074.65148  -2045512.80547                  20549108.7814
        29.7504         29.5004
  22268216.4774  -10088329.53547  -7861034.36446                  22268223.5234
        21.2504         20.2504
  22884742.9224    6906237.99446   5381478.98746                  22884751.9144
        14.2504         14.7504
  22290538.3914  -10702136.33146  -8339324.20346                  22290545.2734
        19.5004         18.0004
  21309152.5864   -2963098.27748  -2308910.07847                  21309158.8674
        30.5004         29.7504
  24473724.2584   -1151157.64545   -844392.56645                  24473733.0864
         8.7504          8.0004
  20693753.5394   -9739421.60347  -7589156.23646                  20693760.4694
        23.2504         20.5004
 98  6 17 15 57  0.0000000  0  8G 2G 4G 5G 7G 8G 9G16G24
  23925936.0004    7450002.00945   5805185.02945                  23925946.7624
         8.0004         10.2504
  20549926.9694   -2620744.01148  -2042138.28547                  20549933.0394
        29.0004         29.2504
  22260048.3364  -10131252.20447  -7894480.59046                  22260055.3484
        20.5004         20.0004
  22890298.9844    6935437.51546   5404231.82146                  22890307.8484
        14.0004         14.7504
  22283815.3674  -10737468.01346  -8366855.36346                  22283822.4024
        19.7504         18.2504
  21309476.3444   -2961397.01548  -2307584.43247                  21309482.4264
        29.7504         29.5004
  24471868.1174   -1160910.45245   -851992.13645                  24471875.2114
         8.7504          8.2504
  20687855.9774   -9770413.61447  -7613305.84246                  20687862.8364
        22.7504         20.5004
 98  6 17 15 57 15.0000000  0  8G 2G 4G 5G 7G 8G 9G16G24
  23933028.7974    7487275.33245   5834229.11845                  23933039.3954
         8.2504         10.5004
  20550774.1174   -2616290.86648  -2038668.29747                  20550780.2344
        28.5004         28.7504
  22251883.3204  -10174159.22247  -7927914.62146                  22251890.4024
        20.2504         19.7504
  22895853.5554    6964625.34346   5426975.56246                  22895862.3364
        14.2504         15.0004
  22277113.1644  -10772687.02147  -8394298.73846                  22277120.0084
        20.0004         18.2504
  21309823.3364   -2959573.06448  -2306163.18547                  21309829.5824
        30.0004         29.5004
  24470031.7894   -1170565.89845   -859515.86745                  24470039.0704
         9.5004          8.2504
  20681977.9924   -9801304.27347  -7637376.47146                  20681985.2154
        22.7504         20.2504
 98  6 17 15 57 30.0000000  0  8G 2G 4G 5G 7G 8G 9G16G24
  23940129.0634    7524585.09545   5863301.60945                  23940138.6884
         8.0004         10.7504
  20551645.1254   -2611711.99547  -2035100.34647                  20551651.3244
        27.7504         28.5004
  22243721.8674  -10217048.82047  -7961335.06646                  22243729.0084
        20.2504         19.7504
  22901405.2194    6993800.93646   5449709.76546                  22901413.5434
        14.7504         15.2504
  22270432.8524  -10807792.64047  -8421653.75746                  22270439.4494
        20.0004         18.5004
  21310193.9224   -2957626.23048  -2304646.18947                  21310200.1684
        29.0004         29.0004
  24468213.9144   -1180118.25045   -866959.21645                  24468219.8094
        10.5004          8.7504
  20676118.6954   -9832094.29547  -7661368.68446                  20676125.5904
        22.2504         20.0004
 98  6 17 15 57 45.0000000  0  8G 2G 4G 5G 7G 8G 9G16G24
  23947237.2034    7561935.96745   5892406.13345                  23947247.1094
         8.0004          9.7504
  20552541.2114   -2607004.53547  -2031432.19347                  20552547.2114
        27.2504         28.0004
  22235563.0554  -10259922.27247  -7994742.94746                  22235569.9264
        20.2504         20.0004
  22906954.9224    7022964.24746   5472434.39646                  22906963.5514
        15.0004         15.5004
  22263773.6564  -10842785.91147  -8448921.23046                  22263780.6914
        20.0004         18.0004
  21310588.3914   -2955552.23048  -2303030.09747                  21310594.6604
        28.5004         28.7504
  24466415.9224   -1189566.88045   -874321.77145                  24466424.5164
        10.2504          9.5004
  20670279.3054   -9862779.72247  -7685279.38646                  20670286.6804
        21.7504         19.5004
 98  6 17 15 58  0.0000000  0  8G 2G 4G 5G 7G 8G 9G16G24
  23954350.3914    7599320.47445   5921536.86745                  23954360.7304
         8.2504          9.0004
  20553459.9774   -2602177.20047  -2027670.63347                  20553465.9304
        27.0004         27.7504
  22227405.4384  -10302791.54447  -8028147.56846                  22227411.6844
        21.0004         20.0004
  22912500.4694    7052105.23046   5495141.60946                  22912508.8634
        14.7504         15.7504
  22257134.5704  -10877674.57346  -8476107.19846                  22257141.2384
        19.5004         18.2504
  21311005.5634   -2953359.39248  -2301321.40447                  21311011.9384
        28.5004         28.7504
  24464636.0474   -1198918.13345   -881608.47345                  24464643.8094
         9.7504          9.0004
  20664458.7114   -9893366.85547  -7709113.49646                  20664466.0984
        21.7504         19.2504
 98  6 17 15 58 15.0000000  0  8G 2G 4G 5G 7G 8G 9G16G24
  23961470.7814    7636737.65444   5950693.09645                  23961480.4774
         7.2504          9.0004
  20554401.5394   -2597228.66147  -2023814.63147                  20554407.5044
        27.0004         28.0004
  22219248.8594  -10345654.53547  -8061547.28846                  22219255.2234
        21.0004         20.2504
  22918042.4454    7081226.48046   5517833.48446                  22918050.3714
        15.0004         15.5004
  22250515.7894  -10912456.92446  -8503210.31346                  22250523.1764
        18.7504         18.0004
  21311445.5864   -2951046.17948  -2299518.90947                  21311451.8914
        28.5004         28.5004
  24462876.1644   -1208167.87245   -888816.05045                  24462884.7584
        10.0004          9.5004
  20658657.5164   -9923852.24247  -7732868.33846                  20658664.1024
        21.7504         19.0004
 98  6 17 15 58 30.0000000  0  8G 2G 4G 5G 7G 8G 9G16G24
  23968598.3594    7674199.30344   5979883.91545                  23968608.4884
         6.7504          8.7504
  20555368.9064   -2592146.33347  -2019854.37547                  20555374.9184
        27.2504         28.0004
  22211095.7974  -10388499.11547  -8094932.67346                  22211102.1254
        21.0004         20.2504
  22923582.3754    7110340.09046   5540519.37646                  22923590.1484
        15.0004         15.5004
  22243918.8134  -10947122.33746  -8530222.32346                  22243925.9884
        18.7504         18.0004
  21311910.8364   -2948602.43848  -2297614.71147                  21311917.3164
        28.0004         28.0004
  24461137.6174   -1217304.16945   -895935.22945                  24461146.8914
        10.2504         10.0004
  20652877.8284   -9954225.87547  -7756536.08846                  20652884.7464
        21.5004         19.2504
 98  6 17 15 58 45.0000000  0  8G 2G 4G 5G 7G 8G 9G16G24
  23975733.6094    7711689.98744   6009097.36445                  23975744.6054
         6.5004          8.0004
  20556358.9144   -2586942.60047  -2015799.52047                  20556364.8914
        27.7504         28.2504
  22202944.3134  -10431335.66647  -8128311.77946                  22202951.0984
        21.7504         20.5004
  22929118.2814    7139430.90646   5563187.50746                  22929126.1724
        15.2504         15.7504
  22237342.5944  -10981681.71546  -8557151.69646                  22237349.7464
        19.5004         18.0004
  21312397.6484   -2946044.42548  -2295621.46747                  21312404.0234
        28.5004         28.0004
  24459418.3594   -1226339.44245   -902975.69845                  24459428.6294
         9.7504         10.0004
  20647115.7974   -9984503.05847  -7780128.68446                  20647122.8794
        21.2504         18.7504
 98  6 17 15 59  0.0000000  0  8G 2G 4G 5G 7G 8G 9G16G24
  23982873.7274    7749210.25243   6038333.85245                  23982882.2734
         6.0004          8.5004
  20557372.4534   -2581615.83548  -2011648.79447                  20557378.4884
        28.0004         28.2504
  22194794.8674  -10474161.62547  -8161682.65846                  22194801.6884
        21.2504         20.7504
  22934649.4774    7168497.70646   5585836.93146                  22934657.1334
        15.7504         16.0004
  22230786.3444  -11016134.76546  -8583998.22646                  22230793.7544
        18.7504         18.0004
  21312906.1564   -2943371.75448  -2293538.88647                  21312912.3324
        28.7504         28.2504
  24457718.0554   -1235272.69345   -909936.67845                  24457727.8914
        10.5004         10.0004
  20641372.8364  -10014682.41247  -7803645.05646                  20641379.5164
        21.0004         18.7504
 98  6 17 15 59 15.0000000  0  8G 2G 4G 5G 7G 8G 9G16G24
  23990020.6954    7786762.60744   6067595.39845                  23990028.5744
         7.2504          9.0004
  20558409.9924   -2576165.11548  -2007401.47747                  20558416.0394
        28.5004         28.5004
  22186647.1024  -10516977.11047  -8195045.35646                  22186654.2074
        21.5004         21.0004
  22940176.3754    7197541.42146   5608468.37246                  22940183.7734
        15.5004         16.0004
  22224250.8284  -11050479.45646  -8610760.31146                  22224258.4494
        19.5004         18.2504
  21313436.9144   -2940583.60548  -2291366.31347                  21313443.0904
        28.7504         28.0004
  24456038.2734   -1244102.63145   -916817.14345                  24456047.1254
        10.7504         10.2504
  20635649.3594  -10044761.93247  -7827083.63546                  20635656.4774
        20.5004         18.2504
 98  6 17 15 59 30.0000000  0  8G 2G 4G 5G 7G 8G 9G16G24
  23997173.9454    7824356.51645   6096889.29645                  23997183.3244
         7.5004          8.7504
  20559472.0554   -2570583.11748  -2003051.87347                  20559478.1024
        29.0004         29.0004
  22178502.5634  -10559777.64547  -8228396.41146                  22178509.3484
        21.2504         21.0004
  22945700.9384    7226573.20646   5631090.51246                  22945708.6994
        15.7504         16.0004
  22217737.4144  -11084707.39146  -8637431.42646                  22217745.1994
        19.5004         18.5004
  21313990.6024   -2937674.34548  -2289099.37247                  21313996.9774
        29.5004         28.2504
  24454378.8364   -1252822.37745   -923611.72945                  24454387.4884
        10.5004         10.5004
  20629946.3594  -10074730.81747  -7850436.00546                  20629953.5474
        20.2504         18.2504
 98  6 17 15 59 45.0000000  0  8G 2G 4G 5G 7G 8G 9G16G24
  24004334.4534    7861983.77944   6126209.17745                  24004344.3834
         7.2504          9.2504
  20560557.0004   -2564881.86948  -1998609.34347                  20560563.0124
        29.5004         29.2504
  22170358.4224  -10602575.87747  -8261745.67546                  22170365.7034
        21.0004         21.0004
  22951221.6254    7255586.53046   5653698.28646                  22951229.1644
        15.5004         15.5004
  22211244.0784  -11118829.03246  -8664019.70846                  22211251.2194
        19.5004         18.5004
  21314565.1334   -2934654.17148  -2286746.00247                  21314571.5904
        30.2504         28.5004
  24452737.4224   -1261445.96645   -930331.42845                  24452746.1214
        10.7504         10.0004
  20624262.9774  -10104596.21447  -7873707.72946                  20624269.7384
        20.0004         17.7504
 98  6 17 16  0  0.0000000  0  8G 2G 4G 5G 7G 8G 9G16G24
  24011500.6564    7899644.39245   6155555.01745                  24011510.0944
         7.7504          8.7504
  20561664.4454   -2559062.42848  -1994074.71347                  20561670.4454
        30.0004         29.7504
  22162214.9694  -10645369.11647  -8295091.04746                  22162222.2274
        21.5004         21.2504
  22956740.1414    7284586.14046   5676295.34946                  22956747.8204
        15.0004         15.2504
  22204772.2424  -11152839.91746  -8690521.67646                  22204779.8634
        19.5004         18.2504
  21315161.4844   -2931520.91348  -2284304.51447                  21315167.7544
        31.5004         28.7504
  24451114.8674   -1269973.83945   -936976.52745                  24451123.0634
        10.5004         10.2504
  20618600.6024  -10134353.19146  -7896894.97446                  20618607.1524
        19.5004         17.5004
 98  6 17 16  0 15.0000000  0  8G 2G 4G 5G 7G 8G 9G16G24
  24018673.1884    7937332.81545   6184922.60045                  24018682.3444
         7.5004          9.5004
  20562793.8364   -2553127.73648  -1989450.28047                  20562799.8954
        30.5004         29.7504
  22154072.7034  -10688158.08947  -8328433.09646                  22154080.0554
        20.7504         21.2504
  22962255.8754    7313570.76746   5698880.75946                  22962263.0514
        15.0004         14.7504
  22198320.7814  -11186742.33946  -8716939.14646                  22198328.1094
        19.5004         18.5004
  21315778.6724   -2928278.82348  -2281778.21947                  21315784.6134
        32.0004         28.7504
  24449509.8134   -1278409.49045   -943549.73745                  24449518.9344
        11.0004         10.0004
  20612957.5944  -10164007.64946  -7920002.33046                  20612964.0394
        19.5004         17.0004
 98  6 17 16  0 30.0000000  0  8G 2G 4G 5G 7G 8G 9G16G24
  24025850.6564    7975055.41444   6214316.73845                  24025858.9924
         7.2504          9.0004
  20563945.9694   -2547072.80348  -1984732.15847                  20563952.0044
        31.0004         30.0004
  22145931.8134  -10730936.43647  -8361766.85446                  22145939.1524
        21.0004         21.0004
  22967770.1724    7342547.12246   5721459.71146                  22967777.5704
        14.5004         14.7504
  22191890.7034  -11220532.29446  -8743268.97546                  22191898.1604
        19.2504         18.2504
  21316417.4924   -2924921.51448  -2279162.14547                  21316423.5864
        32.5004         29.2504
  24447921.7894   -1286752.69045   -950050.89745                  24447930.9344
        10.2504         10.2504
  20607334.0084  -10193557.66046  -7943028.30546                  20607340.3014
        19.2504         17.0004
 98  6 17 16  0 45.0000000  0  8G 2G 4G 5G 7G 8G 9G16G24
  24033035.6174    8012810.20745   6243735.99445                  24033044.5514
         7.7504          9.0004
  20565120.5164   -2540901.88948  -1979923.65347                  20565126.5044
        31.2504         30.2504
  22137792.8834  -10773707.57647  -8395095.01446                  22137799.8134
        21.5004         21.2504
  22973282.1254    7371514.12046   5744031.36346                  22973290.4964
        14.5004         14.5004
  22185481.5394  -11254212.16746  -8769513.02746                  22185488.6804
        19.5004         18.5004
  21317077.7504   -2921452.75448  -2276459.22347                  21317083.8204
        28.7504         29.2504
  24446351.3594   -1295006.62045   -956482.55745                  24446360.4454
        10.0004         10.0004
  20601730.2344  -10223006.37546  -7965975.35146                  20601736.3524
        18.5004         17.2504
 98  6 17 16  1  0.0000000  0  8G 2G 4G 5G 7G 8G 9G16G24
  24040228.0634    8050600.64645   6273183.05545                  24040237.9454
         8.2504          9.7504
  20566316.3674   -2534617.08248  -1975026.40547                  20566322.3204
        31.5004         30.5004
  22129655.3674  -10816469.84847  -8428416.25546                  22129662.2854
        21.2504         21.0004
  22978792.2344    7400472.09346   5766595.99546                  22978800.5234
        14.5004         14.2504
  22179093.7504  -11287780.10346  -8795669.85246                  22179101.0084
        19.5004         18.2504
  21317759.2664   -2917870.77547  -2273668.08047                  21317765.3484
        23.2504         29.5004
  24444797.3674   -1303168.83945   -962842.73045                  24444805.9734
         9.0004          9.5004
  20596146.4614  -10252350.07446  -7988840.56046                  20596152.7304
        18.5004         16.7504
 98  6 17 16  1 15.0000000  0  8G 2G 4G 5G 7G 8G 9G16G24
  24047427.1484    8088434.26945   6302663.74845                  24047436.7854
         7.5004          9.2504
  20567534.3594   -2528216.52848  -1970038.96447                  20567540.3134
        32.0004         30.2504
  22121520.3754  -10859221.73547  -8461729.40446                  22121527.1484
        22.0004         21.2504
  22984302.4924    7429425.58946   5789157.12646                  22984310.5354
        14.2504         14.2504
  22172727.1414  -11321236.24946  -8821739.57046                  22172734.0594
        19.0004         18.5004
  21318463.1954   -2914171.95047  -2270785.88247                  21318469.2424
        20.0004         29.7504
  24443262.7734   -1311233.35845   -969126.74745                  24443271.5664
         9.0004         10.0004
  20590582.7584  -10281587.43146  -8011622.90946                  20590588.9224
        18.5004         16.5004
 98  6 17 16  1 30.0000000  0  8G 2G 4G 5G 7G 8G 9G16G24
  24054633.3834    8126308.97444   6332176.44645                  24054643.1604
         7.2504          9.5004
  20568773.7734   -2521703.48948  -1964963.87047                  20568779.6804
        31.7504         30.5004
  22113387.1724  -10901962.57847  -8495033.94946                  22113393.8524
        22.0004         21.5004
  22989810.7664    7458371.42546   5811712.29646                  22989819.0314
        14.2504         14.7504
  22166382.0864  -11354582.08746  -8847723.33046                  22166388.9454
        19.0004         18.2504
  21319188.6564   -2910359.18346  -2267814.90147                  21319194.5744
        18.0004         30.0004
  24441746.5554   -1319201.07845   -975335.37145                  24441756.1454
         9.5004          9.2504
  20585038.1954  -10310723.80246  -8034326.56946                  20585044.7344
        17.5004         16.5004
 98  6 17 16  1 45.0000000  0  8G 2G 4G 5G 7G 8G 9G16G24
  24061850.3054    8164230.68544   6361725.77545                  24061860.6334
         7.2504          9.2504
  20570036.5164   -2515066.86148  -1959792.47047                  20570042.5514
        31.7504         30.5004
  22105257.9614  -10944680.95747  -8528320.99546                  22105264.2424
        22.0004         21.2504
  22995318.7034    7487316.04246   5834266.51246                  22995326.7344
        14.7504         14.2504
  22160058.5634  -11387810.77746  -8873615.81246                  22160065.1484
        19.5004         18.5004
  21319937.6254   -2906422.78846  -2264747.58347                  21319943.5904
        17.7504         29.7504
  24440250.5944   -1327061.45345   -981460.32745                  24440259.3284
         9.2504          9.0004
  20579514.5474  -10339751.23846  -8056945.33646                  20579521.1094
        17.2504         16.5004
 98  6 17 16  2  0.0000000  0  8G 2G 4G 5G 7G 8G 9G16G24
  24069074.6024    8202193.83444   6391307.38545                  24069084.6254
         7.2504          9.2504
  20571322.2114   -2508309.91848  -1954527.32147                  20571328.2234
        31.2504         30.5004
  22097133.3444  -10987376.20047  -8561590.00446                  22097139.7194
        22.0004         21.0004
  23000825.6334    7516253.97546   5856815.53646                  23000833.4304
        14.2504         14.0004
  22153757.2894  -11420925.42746  -8899419.42046                  22153764.2424
        19.7504         18.5004
  21320709.9534   -2902363.67046  -2261584.64247                  21320715.9884
        18.0004         30.2504
  24438775.6174   -1334814.79945   -987501.89245                  24438784.1994
         9.2504          9.2504
  20574010.8524  -10368673.57746  -8079482.21146                  20574017.8634
        17.5004         16.5004
 98  6 17 16  2 15.0000000  0  8G 2G 4G 5G 7G 8G 9G16G24
  24076305.8524    8240192.06145   6420916.32045                  24076315.2894
         7.7504          9.5004
  20572630.3204   -2501437.41748  -1949172.12847                  20572636.3674
        30.7504         30.0004
  22089012.2274  -11030051.65847  -8594843.60046                  22089018.9414
        21.5004         21.2504
  23006329.6174    7545177.01646   5879352.93446                  23006337.4844
        14.5004         14.0004
  22147476.8524  -11453930.79046  -8925137.88846                  22147483.8874
        19.5004         18.5004
  21321504.5084   -2898188.39746  -2258331.18947                  21321510.4614
        18.2504         30.5004
  24437319.0164   -1342465.17045   -993463.20045                  24437326.0394
         8.7504          9.0004
  20568525.1254  -10397500.62346  -8101944.83346                  20568532.0314
        17.2504         16.2504
 98  6 17 16  2 30.0000000  0  8G 2G 4G 5G 7G 8G 9G16G24
  24083544.4614    8278234.91045   6450560.05245                  24083554.3444
         7.7504          9.5004
  20573961.2814   -2494441.71148  -1943720.93447                  20573967.3164
        30.5004         30.0004
  22080896.0554  -11072702.54847  -8628078.04346                  22080902.9734
        22.0004         21.0004
  23011831.2584    7574088.76046   5901881.53246                  23011839.3834
        14.5004         14.0004
  22141217.8364  -11486821.27146  -8950766.82246                  22141224.9184
        19.5004         18.7504
  21322322.1414   -2893891.81446  -2254983.21047                  21322328.1294
        18.5004         30.5004
  24435884.9774   -1350006.78845   -999339.78245                  24435893.2074
         8.5004          8.7504
  20563058.6094  -10426227.30146  -8124329.24446                  20563065.5164
        16.7504         16.0004
 98  6 17 16  2 45.0000000  0  8G 2G 4G 5G 7G 8G 9G16G24
  24090791.6174    8316318.97945   6480235.88345                  24090801.5944
         7.7504          9.2504
  20575314.9144   -2487328.24848  -1938177.97947                  20575320.8794
        30.5004         29.7504
  22072783.4774  -11115334.27347  -8661297.56346                  22072790.2854
        22.2504         21.5004
  23017329.6564    7602984.19846   5924397.42446                  23017338.0744
        13.7504         14.0004
  22134979.8364  -11519601.84146  -8976310.11246                  22134987.2234
        19.7504         18.7504
  21323161.9144   -2889479.35746  -2251544.94147                  21323167.9844
        18.2504         30.7504
  24434469.5554   -1357440.95545  -1005132.64745                  24434478.1604
         8.0004          8.2504
  20557611.2504  -10454855.06646  -8146636.58746                  20557618.0354
        17.0004         16.0004
 98  6 17 16  3  0.0000000  0  8G 2G 4G 5G 7G 8G 9G16G24
  24098047.4144    8354447.67045   6509946.51245                  24098056.7114
         8.2504          9.5004
  20576691.9694   -2480092.18948  -1932539.49347                  20576697.9804
        29.7504         29.5004
  22064675.7344  -11157942.52847  -8694498.78246                  22064682.4144
        23.0004         21.5004
  23022825.5474    7631864.59246   5946901.60246                  23022833.4734
        12.7504         13.5004
  22128763.8364  -11552267.44846  -9001763.82346                  22128771.3164
        19.2504         19.0004
  21324024.4774   -2884946.58346  -2248012.91847                  21324030.5704
        18.2504         31.0004
  24433076.5864   -1364758.83345  -1010834.90145                  24433084.5354
         7.5004          8.0004
  20552183.2664  -10483377.77046  -8168862.05846                  20552190.0514
        17.7504         16.2504
 98  6 17 16  3 15.0000000  0  8G 2G 4G 5G 7G 8G 9G16G24
  24105310.7814    8392616.40145   6539688.32745                  24105320.5474
         8.2504         10.0004
  20578091.6644   -2472737.52448  -1926808.58547                  20578097.6884
        29.2504         29.0004
  22056570.6954  -11200533.27347  -8727686.36546                  22056577.4344
        22.7504         21.5004
  23028317.1804    7660723.90546   5969389.34846                  23028325.5164
        12.7504         13.7504
  22122568.6884  -11584822.90247  -9027131.69846                  22122576.0864
        20.2504         19.5004
  21324908.9614   -2880299.08646  -2244391.50547                  21324914.9964
        18.2504         31.0004
  24431705.7194   -1371965.91144  -1016450.80245                  24431715.5434
         7.2504          8.0004
  20546775.2114  -10511797.99346  -8191007.68246                  20546782.3054
        17.2504         16.2504
 98  6 17 16  3 30.0000000  0  8G 2G 4G 5G 7G 8G 9G16G24
  24112582.2584    8430826.43445   6569462.32145                  24112593.0434
         8.7504         10.0004
  20579514.7894   -2465258.26348  -1920980.59247                  20579520.8014
        28.7504         28.5004
  22048469.8594  -11243103.53047  -8760857.98046                  22048476.5864
        23.2504         21.5004
  23033805.9304    7689565.39846   5991863.21746                  23033814.6294
        12.5004         13.5004
  22116395.7424  -11617262.51647  -9052409.31346                  22116402.8954
        20.0004         19.0004
  21325815.4844   -2875534.59946  -2240678.92347                  21325821.4614
        18.2504         31.0004
  24430355.6094   -1379060.85745  -1021979.34245                  24430363.4414
         7.7504          8.0004
  20541387.6484  -10540109.83246  -8213068.84246                  20541394.0704
        17.2504         16.5004
 98  6 17 16  3 45.0000000  0  8G 2G 4G 5G 7G 8G 9G16G24
  24119860.3284    8469073.17245   6599264.92645                  24119870.5744
         8.5004          9.2504
  20580961.6254   -2457655.24248  -1915056.16247                  20580967.6954
        28.0004         28.2504
  22040372.3914  -11285656.73047  -8794016.30646                  22040379.0234
        24.2504         21.7504
  23039290.1564    7718389.92246   6014323.86346                  23039298.9734
        12.2504         13.0004
  22110245.1414  -11649583.61147  -9077594.56646                  22110251.8914
        20.2504         19.0004
  21326744.3364   -2870653.83946  -2236875.74747                  21326750.4774
        18.0004         31.2504
  24429025.9614   -1386046.89345  -1027423.00945                  24429029.9454
         8.0004          6.5004
  20536021.6484  -10568307.81146  -8235041.28746                  20536028.2234
        17.5004         16.2504
 98  6 17 16  4  0.0000000  0  8G 2G 4G 5G 7G 8G 9G16G24
  24127144.2114    8507348.45645   6629089.78945                  24127153.7664
         8.7504          9.7504
  20582430.1094   -2449937.67947  -1909042.47847                  20582436.1454
        27.0004         28.0004
  22032275.3134  -11328205.68747  -8827171.32246                  22032281.9224
        24.2504         21.2504
  23044771.1884    7747190.90246   6036766.17246                  23044779.9224
        12.2504         13.5004
  22104115.8674  -11681792.69047  -9102692.54446                  22104122.3364
        20.5004         18.7504
  21327693.6724   -2865665.51946  -2232988.75247                  21327699.8014
        17.7504         31.0004
  24427715.8754   -1392931.96044  -1032787.96845                  24427724.4344
         7.0004          8.0004
  20530676.2114  -10596397.57646  -8256929.41446                  20530682.6214
        17.5004         16.2504
 98  6 17 16  4 15.0000000  0  8G 2G 4G 5G 7G 8G 9G16G24
  24134432.0004    8545650.39745   6658935.40845                  24134443.1484
         7.7504         10.2504
  20583919.4534   -2442111.34947  -1902944.03647                  20583925.3714
        27.0004         27.7504
  22024179.0234  -11370753.76647  -8860325.65746                  22024185.1994
        24.2504         21.2504
  23050246.7194    7775965.06146   6059187.56046                  23050255.0554
        12.7504         13.2504
  22098008.1174  -11713890.70247  -9127703.97346                  22098014.3874
        20.7504         18.7504
  21328662.4844   -2860574.01646  -2229021.35747                  21328668.7424
        18.0004         31.2504
  24426423.6174   -1399721.20445  -1038078.29445                  24426430.6294
         7.5004          7.7504
  20525350.5234  -10624383.37246  -8278736.51846                  20525356.7114
        17.2504         17.0004
 98  6 17 16  4 30.0000000  0  8G 2G 4G 5G 7G 8G 9G16G24
  24141727.5394    8583989.00445   6688809.56345                  24141738.0314
         7.5004          9.2504
  20585431.1254   -2434167.92747  -1896754.35847                  20585437.0554
        26.7504         27.5004
  22016083.3674  -11413296.37547  -8893475.73446                  22016089.9304
        23.7504         21.2504
  23055719.0084    7804719.99846   6081593.98646                  23055726.7234
        12.7504         13.5004
  22091922.1724  -11745871.93947  -9152624.41046                  22091928.3714
        20.7504         19.0004
  21329652.4694   -2855372.08146  -2224967.91047                  21329658.7624
        18.5004         31.0004
  24425152.2974   -1406407.32245  -1043288.23845                  24425159.5314
         7.5004          7.5004
  20520047.0234  -10652254.68546  -8300454.41246                  20520053.5634
        17.7504         16.7504
 98  6 17 16  4 45.0000000  0  8G 2G 4G 5G 7G 8G 9G16G24
  24149030.2274    8622362.19745   6718710.71945                  24149041.7504
         7.5004          9.5004
  20586964.8444   -2426108.22147  -1890474.06447                  20586970.9264
        26.5004         27.5004
  22007988.5864  -11455833.91647  -8926621.85946                  22007994.8324
        23.2504         21.2504
  23061187.0864    7833457.22546   6103986.60546                  23061193.6954
        14.0004         12.7504
  22085857.7504  -11777740.51047  -9177457.05146                  22085863.8444
        21.2504         19.0004
  21330663.2664   -2850059.61346  -2220828.33347                  21330669.5824
        19.7504         30.7504
  24423899.4304   -1412989.37945  -1048417.06945                  24423906.8984
         7.5004          7.5004
  20514765.3674  -10680009.97946  -8322081.90846                  20514772.1884
        18.0004         17.0004
 98  6 17 16  5  0.0000000  0  8G 2G 4G 5G 7G 8G 9G16G24
  24156337.7894    8660763.90044   6748634.05745                  24156349.8164
         7.2504          9.5004
  20588519.5314   -2417936.30247  -1884106.33147                  20588525.5434
        27.0004         27.7504
  21999894.5554  -11498368.16947  -8959765.42046                  21999900.7304
        23.0004         21.0004
  23066652.3134    7862173.38846   6126362.82346                  23066658.8284
        14.0004         13.0004
  22079814.0554  -11809500.25147  -9202204.89546                  22079820.2774
        21.2504         19.0004
  21331694.8754   -2844637.75047  -2216603.51947                  21331701.0164
        20.2504         30.5004
  24422665.4694   -1419469.92244  -1053466.85645                  24422674.0394
         7.2504          8.0004
  20509504.8524  -10707653.60746  -8343622.38846                  20509511.2504
        17.7504         17.2504
 98  6 17 16  5 15.0000000  0  8G 2G 4G 5G 7G 8G 9G16G24
  24163651.2734    8699198.54244   6778583.04645                  24163662.7504
         7.2504          9.7504
  20590096.8834   -2409648.14447  -1877648.02647                  20590102.8834
        27.2504         28.0004
  21991802.1644  -11540894.29147  -8992902.64346                  21991808.6454
        22.7504         21.2504
  23072113.4844    7890872.05546   6148725.36746                  23072119.8834
        14.5004         13.2504
  22073792.4534  -11841144.95747  -9226863.09346                  22073798.8284
        21.0004         19.2504
  21332748.0084   -2839103.69048  -2212291.27147                  21332754.3364
        29.7504         30.5004
  24421453.0314   -1425845.82845  -1058435.08945                  24421462.4454
         8.0004          8.0004
  20504266.1884  -10735183.87646  -8365074.53246                  20504272.6684
        18.2504         17.5004
 98  6 17 16  5 30.0000000  0  8G 2G 4G 5G 7G 8G 9G16G24
  24170971.1484    8737664.20045   6808556.23245                  24170982.4024
         7.7504          9.5004
  20591696.0474   -2401244.64848  -1871099.84947                  20591702.0474
        28.2504         28.5004
  21983711.1724  -11583412.48747  -9026033.69046                  21983717.4534
        22.7504         21.0004
  23077571.3364    7919553.73146   6171074.70246                  23077577.8754
        14.5004         13.2504
  22067792.0864  -11872676.53047  -9251433.13746                  22067798.8134
        20.7504         19.5004
  21333821.7664   -2833461.04048  -2207894.41047                  21333827.9064
        31.5004         30.2504
  24420258.7664   -1432121.22345  -1063325.01145                  24420266.9844
         7.5004          7.5004
  20499048.1804  -10762604.77546  -8386441.45746                  20499054.2624
        18.7504         17.7504
 98  6 17 16  5 45.0000000  0  8G 2G 4G 5G 7G 8G 9G16G24
  24178297.6174    8776162.08045   6838554.49645                  24178308.9774
         8.0004          9.7504
  20593317.3594   -2392724.12248  -1864460.47547                  20593323.3954
        28.5004         28.7504
  21975622.4454  -11625917.03747  -9059154.09946                  21975628.7624
        23.0004         21.0004
  23083027.0004    7948222.27646   6193413.78546                  23083033.5394
        14.7504         13.2504
  22061813.4774  -11904094.88847  -9275914.95746                  22061820.3594
        20.5004         19.7504
  21334917.6484   -2827702.96148  -2203407.60847                  21334923.9534
        32.2504         30.0004
  24419083.7504   -1438293.64045  -1068134.70945                  24419091.5354
         7.5004          7.7504
  20493850.2584  -10789918.56046  -8407724.92446                  20493856.6214
        18.5004         17.2504
 98  6 17 16  6  0.0000000  0  8G 2G 4G 5G 7G 8G 9G16G24
  24185630.4064    8814696.28445   6868581.10545                  24185639.1174
         8.2504          9.5004
  20594961.6024   -2384084.19548  -1857728.06847                  20594967.5784
        28.7504         29.0004
  21967537.6174  -11668404.12047  -9092260.91946                  21967543.8984
        23.5004         21.0004
  23088479.9694    7976878.69646   6215743.44946                  23088486.4964
        15.2504         13.0004
  22055856.0864  -11935400.60347  -9300309.01346                  22055863.1564
        20.5004         19.5004
  21336036.0784   -2821824.95848  -2198827.35747                  21336042.3244
        31.7504         29.7504
  24417929.8524   -1444359.77045  -1072861.51145                  24417938.7974
         8.2504          7.7504
  20488672.5474  -10817128.10946  -8428927.15246                  20488679.0634
        18.5004         18.0004
 98  6 17 16  6 15.0000000  0  8G 2G 4G 5G 7G 8G 9G16G24
  24192971.1254    8853270.61245   6898638.96145                  24192980.4574
         8.2504         10.0004
  20596629.2194   -2375321.82048  -1850900.24047                  20596635.2774
        29.7504         29.2504
  21959457.7424  -11710865.11847  -9125347.39646                  21959464.3164
        23.2504         21.0004
  23093930.5234    8005521.32646   6238062.32846                  23093936.5124
        15.0004         13.2504
  22049920.2504  -11966592.19647  -9324614.14446                  22049926.7664
        21.0004         19.7504
  21337178.2974   -2815823.14148  -2194150.62447                  21337184.4844
        31.2504         29.5004
  24416795.3204   -1450318.00045  -1077504.29245                  24416805.0744
         8.0004          8.5004
  20483514.1884  -10844236.07846  -8450050.23946                  20483520.7974
        18.7504         18.0004
 98  6 17 16  6 30.0000000  0  8G 2G 4G 5G 7G 8G 9G16G24
  24200320.3204    8891891.58845   6928733.19245                  24200330.8364
         9.0004          9.7504
  20598320.7664   -2366432.44648  -1843973.45647                  20598326.7664
        30.2504         29.7504
  21951383.5784  -11753294.71347  -9158409.41446                  21951389.6374
        23.2504         21.0004
  23099378.7424    8034153.58346   6260373.15846                  23099386.3524
        14.0004         13.2504
  22044006.6644  -11997668.25247  -9348829.25646                  22044013.4734
        20.5004         19.5004
  21338344.5864   -2809694.16948  -2189374.81847                  21338350.9384
        30.7504         29.5004
  24415682.1884   -1456167.61145  -1082062.41945                  24415691.6024
         9.0004          9.2504
  20478375.7894  -10871238.84446  -8471091.34946                  20478382.3634
        19.2504         18.5004
 98  6 17 16  6 45.0000000  0  8G 2G 4G 5G 7G 8G 9G16G24
  24207677.0394    8930551.19945   6958857.51945                  24207687.0634
         8.2504         10.2504
  20600035.2974   -2357423.07748  -1836953.17247                  20600041.3204
        31.0004         30.0004
  21943313.9064  -11795700.74647  -9191453.06746                  21943320.4224
        23.0004         21.2504
  23104824.3054    8062769.73246   6282671.40946                  23104832.1134
        14.7504         14.0004
  22038113.7034  -12028636.52347  -9372960.35946                  22038120.0904
        20.2504         19.5004
  21339533.3444   -2803446.18948  -2184506.27447                  21339539.8714
        29.5004         29.2504
  24414589.1484   -1461916.12445  -1086541.78745                  24414597.9184
         8.2504          8.7504
  20473255.4614  -10898145.51846  -8492057.57046                  20473262.4844
        19.7504         18.5004
 98  6 17 16  7  0.0000000  0  8G 2G 4G 5G 7G 8G 9G16G24
  24215042.2194    8969254.90045   6989016.18345                  24215053.4734
         8.0004         10.0004
  20601773.8204   -2348286.60948  -1829833.84347                  20601779.7504
        31.5004         30.2504
  21935250.8364  -11838073.85547  -9224471.06246                  21935257.3404
        22.5004         20.7504
  23110268.2734    8091376.09246   6304962.04246                  23110275.8834
        14.5004         14.0004
  22032243.8674  -12059484.22847  -9396997.52546                  22032250.1024
        20.2504         19.2504
  21340746.1804   -2797072.96248  -2179540.13547                  21340752.6254
        29.2504         28.7504
  24413515.3984   -1467557.89345  -1090937.97045                  24413524.2854
         9.0004          9.0004
  20468154.4694  -10924952.59847  -8512946.20446                  20468161.4224
        20.2504         19.0004
 98  6 17 16  7 15.0000000  0  8G 2G 4G 5G 7G 8G 9G16G24
  24222415.1254    9008003.16045   7019209.55045                  24222424.9844
         7.7504          9.2504
  20603536.5704   -2339023.74948  -1822616.02947                  20603542.5124
        32.0004         30.7504
  21927193.4614  -11880414.35147  -9257463.64746                  21927200.1174
        22.5004         21.2504
  23115709.6564    8119971.92846   6327244.49346                  23115717.5594
        14.2504         14.0004
  22026397.1724  -12090206.78047  -9420937.16746                  22026403.3364
        20.2504         19.0004
  21341982.3834   -2790576.74348  -2174478.15847                  21341988.8404
        29.0004         28.7504
  24412461.9144   -1473093.50745  -1095251.41945                  24412471.7034
         9.2504          9.2504
  20463072.2424  -10951660.03947  -8533757.18746                  20463078.8984
        20.7504         19.2504
 98  6 17 16  7 30.0000000  0  8G 2G 4G 5G 7G 8G 9G16G24
  24229797.1024    9046792.74945   7049435.12445                  24229807.9574
         7.5004          9.0004
  20605322.9534   -2329635.75048  -1815300.70647                  20605328.9654
        32.5004         30.7504
  21919141.9844  -11922725.02347  -9290432.99346                  21919148.8164
        22.0004         21.0004
  23121149.2114    8148557.25346   6349518.73646                  23121156.7624
        14.0004         13.7504
  22020574.0394  -12120807.07147  -9444781.55546                  22020580.7544
        20.0004         18.7504
  21343240.9224   -2783962.77248  -2169324.43047                  21343247.5554
        28.5004         28.7504
  24411427.5004   -1478528.32545  -1099486.34245                  24411436.0004
         8.7504          9.2504
  20458008.4454  -10978269.10547  -8554491.50946                  20458015.1844
        21.0004         19.5004
 98  6 17 16  7 44.9990000  0  8G 2G 4G 5G 7G 8G 9G16G24
  24237185.2064    9085616.11245   7079687.04445                  24237195.4294
         7.7504          8.7504
  20607132.3154   -2320127.51148  -1807891.68747                  20607138.3044
        32.5004         31.0004
  21911096.1904  -11965005.85947  -9323379.08046                  21911102.8354
        22.2504         20.7504
  23126586.2374    8177127.07646   6371780.90946                  23126594.4444
        14.0004         14.0004
  22014773.9404  -12151287.43147  -9468532.47846                  22014780.0934
        20.0004         18.7504
  21344521.9644   -2777231.67248  -2164079.42947                  21344528.6554
        28.2504         28.5004
  24410411.9404   -1483865.16645  -1103644.95045                  24410421.8704
         9.5004          9.0004
  20452964.1124  -11004779.23747  -8575148.75046                  20452970.7804
        21.2504         19.5004
 98  6 17 16  7 59.9990000  0  8G 2G 4G 5G 7G 8G 9G16G24
  24244581.1674    9124484.01144   7109973.63645                  24244592.3974
         7.2504          8.7504
  20608965.6834   -2310494.21848  -1800385.22747                  20608971.6124
        32.2504         30.7504
  21903055.7064  -12007258.27247  -9356303.03146                  21903062.2224
        22.5004         21.2504
  23132021.0504    8205688.86046   6394036.80546                  23132029.0814
        14.7504         14.2504
  22008997.5034  -12181642.74446  -9492185.96946                  22009004.6084
        19.5004         18.7504
  21345826.1444   -2770377.31548  -2158738.38647                  21345832.8704
        28.0004         28.2504
  24409416.1284   -1489097.46345  -1107722.06445                  24409425.6944
         9.5004          8.7504
  20447939.1054  -11031185.54447  -8595725.08746                  20447946.0934
        21.2504         19.5004
 98  6 17 16  8 14.9990000  0  8G 2G 4G 5G 7G 8G 9G16G24
  24251985.2454    9163389.91144   7140289.85045                  24251994.4724
         7.2504          8.5004
  20610821.6674   -2300740.18448  -1792784.68247                  20610827.6324
        32.5004         30.7504
  21895020.4804  -12049483.85747  -9389206.07246                  21895026.8904
        22.7504         21.5004
  23137453.7454    8234236.97746   6416282.07846                  23137461.2964
        14.5004         14.5004
  22003245.2374  -12211870.00246  -9515739.66346                  22003252.5544
        19.5004         18.7504
  21347152.4484   -2763406.69447  -2153306.74847                  21347159.3784
        27.7504         28.2504
  24408440.2694   -1494225.66345  -1111718.07945                  24408450.3864
         9.0004          8.7504
  20442934.1904  -11057485.08247  -8616218.22646                  20442941.2264
        21.0004         19.7504
 98  6 17 16  8 29.9990000  0  8G 2G 4G 5G 7G 8G 9G16G24
  24259393.5034    9202326.95444   7170630.35645                  24259404.6514
         6.7504          8.5004
  20612699.3474   -2290873.33248  -1785096.22947                  20612705.4054
        32.2504         30.7504
  21886989.2374  -12091688.84747  -9422093.06046                  21886995.6834
        22.7504         21.7504
  23142882.5264    8262768.16846   6438514.13646                  23142890.1944
        14.0004         14.2504
  21997516.7534  -12241975.25047  -9539198.29246                  21997524.0344
        20.0004         18.5004
  21348499.5034   -2756328.06747  -2147790.94747                  21348506.5504
        27.0004         28.0004
  24407483.4484   -1499256.53245  -1115638.23745                  24407494.3744
         9.2504          9.0004
  20437949.2144  -11083682.13747  -8636631.49846                  20437955.9294
        21.0004         19.7504
 98  6 17 16  8 44.9990000  0  8G 2G 4G 5G 7G 8G 9G16G24
  24266811.2844    9241299.92444   7200998.86045                  24266822.3974
         6.5004          8.0004
  20614599.3554   -2280888.04648  -1777315.48747                  20614605.4134
        32.0004         30.2504
  21878962.5034  -12133869.23447  -9454960.88646                  21878968.9014
        23.7504         22.0004
  23148311.1444    8291291.92546   6460740.40946                  23148318.4014
        14.7504         14.5004
  21991812.0584  -12271951.73147  -9562556.57846                  21991819.3514
        20.2504         18.7504
  21349867.9644   -2749137.83047  -2142188.18047                  21349874.8584
        27.0004         27.7504
  24406545.9014   -1504179.79145  -1119474.56645                  24406555.2694
         8.7504          9.2504
  20432985.1834  -11109766.34247  -8656956.84746                  20432991.8744
        21.0004         20.0004
 98  6 17 16  8 59.9990000  0  8G 2G 4G 5G 7G 8G 9G16G24
  24274230.9644    9280295.62844   7231385.04145                  24274242.8974
         6.5004          7.5004
  20616520.0114   -2270794.99548  -1769450.77647                  20616525.9764
        31.5004         30.0004
  21870939.3084  -12176031.32547  -9487814.45046                  21870945.7414
        23.7504         22.0004
  23153735.7454    8319797.88846   6482952.82746                  23153743.8704
        14.5004         14.0004
  21986130.5814  -12301807.44347  -9585820.76846                  21986137.7804
        20.2504         18.7504
  21351255.8154   -2741844.87347  -2136505.37447                  21351262.9094
        26.2504         28.0004
  24405628.5424   -1509000.63345  -1123231.07145                  24405636.0694
         9.2504          8.7504
  20428041.5654  -11135745.91047  -8677200.65046                  20428048.4604
        21.0004         19.7504
 98  6 17 16  9 14.9990000  0  8G 2G 4G 5G 7G 8G 9G16G24
  24281656.9564    9319315.74544   7261790.28645                  24281665.4914
         6.2504          7.7504
  20618461.6284   -2260592.22248  -1761500.56447                  20618467.6514
        30.5004         29.2504
  21862919.9724  -12218173.29747  -9520652.34146                  21862926.3124
        24.2504         22.2504
  23159156.8474    8348286.38546   6505151.64246                  23159164.0114
        14.5004         14.2504
  21980472.6364  -12331541.59347  -9608990.22746                  21980479.9874
        20.0004         19.0004
  21352663.3944   -2734446.11147  -2130740.12147                  21352670.4294
        26.5004         27.7504
  24404731.2304   -1513715.43545  -1126904.95345                  24404740.1984
         8.7504          9.0004
  20423119.1124  -11161612.60247  -8697356.50946                  20423126.0304
        21.5004         20.0004
 98  6 17 16  9 29.9990000  0  8G 2G 4G 5G 7G 8G 9G16G24
  24289087.3944    9358362.06844   7292215.87845                  24289097.5584
         6.5004          7.2504
  20620424.1054   -2250278.49948  -1753463.90047                  20620430.1284
        29.7504         28.7504
  21854904.9484  -12260292.50747  -9553472.49446                  21854911.4994
        23.7504         22.2504
  23164574.9954    8376760.88346   6527339.54946                  23164582.3704
        14.2504         14.2504
  21974836.9724  -12361156.53746  -9632066.80146                  21974844.2884
        19.7504         18.7504
  21354092.0114   -2726939.41147  -2124890.75947                  21354099.0694
        26.7504         28.0004
  24403855.6834   -1518321.12145  -1130493.76645                  24403864.9684
         9.5004          9.5004
  20418219.1444  -11187362.06447  -8717421.00946                  20418225.8354
        21.5004         20.2504
 98  6 17 16  9 44.9990000  0  8G 2G 4G 5G 7G 8G 9G16G24
  24296522.5894    9397432.54445   7322660.39545                  24296532.1324
         7.5004          7.7504
  20622407.1904   -2239856.96448  -1745343.22647                  20622413.1324
        29.5004         28.2504
  21846894.0504  -12302390.51647  -9586276.12446                  21846900.5654
        24.0004         22.5004
  23169990.2614    8405217.94146   6549513.84746                  23169997.7654
        13.5004         13.2504
  21969223.3474  -12390656.13447  -9655053.49046                  21969230.5114
        20.0004         18.5004
  21355541.1904   -2719324.71947  -2118957.24647                  21355548.1444
        27.2504         27.7504
  24403000.1984   -1522818.49045  -1133998.24845                  24403008.7104
        10.2504          9.2504
  20413341.6054  -11212994.24547  -8737394.13546                  20413348.1794
        22.0004         20.2504
 98  6 17 16  9 59.9990000  0  8G 2G 4G 5G 7G 8G 9G16G24
  24303961.4334    9436525.32044   7353122.25045                  24303974.2804
         6.7504          6.7504
  20624410.1204   -2229331.51648  -1737141.57547                  20624416.1904
        28.7504         27.7504
  21838886.3394  -12344470.32547  -9619065.57346                  21838892.9014
        24.0004         22.7504
  23175400.8944    8433653.01546   6571671.00346                  23175409.3824
        13.0004         13.5004
  21963631.4334  -12420041.49047  -9677951.15446                  21963637.6554
        20.7504         18.5004
  21357010.3554   -2711604.64748  -2112941.62047                  21357017.1984
        28.5004         27.7504
  24402164.5114   -1527207.44345  -1137418.19845                  24402173.9014
        10.0004          9.5004
  20408485.8154  -11238511.18047  -8757277.44846                  20408492.2144
        22.2504         20.7504
 98  6 17 16 10 14.9990000  0  8G 2G 4G 5G 7G 8G 9G16G24
  24311405.6054    9475644.26845   7383604.45245                  24311415.8394
         7.5004          7.7504
  20626433.7144   -2218696.77348  -1728854.77147                  20626439.6554
        28.5004         27.5004
  21830883.2224  -12386528.01647  -9651837.79046                  21830890.2224
        24.2504         23.0004
  23180809.1674    8462069.13246   6593813.41646                  23180817.1054
        12.7504         13.2504
  21958061.6984  -12449311.71647  -9700759.12246                  21958067.9564
        20.5004         18.5004
  21358499.7064   -2703778.49448  -2106843.33047                  21358506.3044
        28.5004         28.0004
  24401350.2374   -1531486.40345  -1140752.48745                  24401358.9834
        10.0004          9.7504
  20403652.9564  -11263908.82347  -8777067.80846                  20403659.2844
        22.5004         20.5004
 98  6 17 16 10 29.9990000  0  8G 2G 4G 5G 7G 8G 9G16G24
  24318855.8474    9514795.18545   7414111.62645                  24318863.8904
         7.5004          7.5004
  20628479.5894   -2207945.03248  -1720476.79547                  20628485.6124
        28.0004         27.0004
  21822885.1904  -12428556.99747  -9684587.63346                  21822892.2024
        24.2504         22.7504
  23186213.4094    8490470.26146   6615944.12746                  23186220.6794
        12.7504         13.0004
  21952513.5424  -12478465.63047  -9723476.46346                  21952519.8824
        20.5004         18.7504
  21360009.8474   -2695840.75248  -2100658.09047                  21360016.4334
        28.7504         28.0004
  24400557.6834   -1535651.97445  -1143998.41245                  24400566.1124
         9.5004          9.0004
  20398843.1674  -11289184.44047  -8796763.09546                  20398849.9054
        23.2504         20.7504
 98  6 17 16 10 44.9990000  0  9G 2G 4G 5G 7G 8G 9G16G24G30
  24326313.6514    9553985.07044   7444649.14645                  24326325.9954
         6.7504          6.7504
  20630549.1204   -2197070.79347  -1712003.35947                  20630555.0734
        27.5004         26.7504
  21814893.8084  -12470552.53847  -9717311.41746                  21814900.8084
        24.2504         23.0004
  23191616.1054    8518861.53146   6638067.17946                  23191624.4874
        12.5004         12.7504
  21946988.5034  -12507499.84647  -9746100.51146                  21946995.2304
        20.7504         19.2504
  21361542.8234   -2687786.45648  -2094382.02947                  21361549.4564
        29.0004         28.0004
  24399787.7224   -1539700.23645  -1147152.91745                  24399795.5774
         9.2504          9.0004
  20394057.3314  -11314333.41347  -8816359.68146                  20394064.1514
        23.0004         21.2504
  24597036.0114      -7224.04855
         9.2504
 98  6 17 16 10 59.9990000  0  9G 2G 4G 5G 7G 8G 9G16G24G30
  24333778.3864    9593212.08344   7475215.54545                  24333788.7024
         6.7504          7.7504
  20632641.2534   -2186075.13547  -1703435.31647                  20632647.2184
        27.0004         26.5004
  21806907.7764  -12512518.73747  -9750012.33946                  21806914.7184
        24.7504         23.0004
  23197015.9254    8547238.40146   6660178.98446                  23197023.5464
        12.0004         12.5004
  21941486.1054  -12536416.40947  -9768632.89446                  21941493.1634
        21.2504         19.2504
  21363097.3864   -2679617.69748  -2088016.77147                  21363103.9014
        29.5004         28.0004
  24399038.9564   -1543632.64745  -1150217.15745                  24399046.0504
         9.5004          8.2504
  20389295.3084  -11339357.69047  -8835859.10846                  20389302.1794
        23.0004         21.2504
  24586718.2304     -61445.46945
         9.7504
 98  6 17 16 11 14.9990000  0  9G 2G 4G 5G 7G 8G 9G16G24G30
  24341248.9874    9632470.39045   7505806.39545                  24341261.6834
         8.0004          7.5004
  20634756.0034   -2174963.95447  -1694777.25747                  20634762.0264
        27.2504         27.0004
  21798925.6594  -12554465.11047  -9782697.81646                  21798932.5194
        24.5004         23.2504
  23202412.4334    8575595.82646   6682275.64446                  23202420.9214
        12.0004         12.5004
  21936005.1444  -12565220.14747  -9791077.36446                  21936012.2494
        21.2504         19.5004
  21364672.6054   -2671339.84648  -2081566.50947                  21364679.2374
        29.7504         28.2504
  24398310.8474   -1547460.80645  -1153200.09845                  24398317.4804
        10.0004          8.7504
  20384555.6364  -11364265.92647  -8855268.12446                  20384562.1514
        23.0004         21.2504
  24576393.4724    -115704.53345
        11.0004
 98  6 17 16 11 29.9990000  0  9G 2G 4G 5G 7G 8G 9G16G24G30
  24348728.1514    9671772.44745   7536431.30545                  24348738.4564
         8.7504          8.5004
  20636894.2224   -2163726.57547  -1686020.85747                  20636900.1874
        27.5004         27.2504
  21790949.0194  -12596383.75547  -9815361.69046                  21790955.4404
        25.0004         23.0004
  23207807.0584    8603944.10246   6704365.17846                  23207815.0424
        12.5004         12.5004
  21930547.1514  -12593901.12047  -9813426.16746                  21930554.0344
        21.2504         19.7504
  21366270.3704   -2662943.56148  -2075023.96047                  21366276.8514
        30.2504         28.0004
  24397603.1124   -1551176.38845  -1156095.39445                  24397612.1514
        10.0004          8.5004
  20379839.0114  -11389051.78647  -8874581.76746                  20379845.8434
        22.7504         21.2504
  24566062.4954    -169995.26045
        11.2504
 98  6 17 16 11 44.9990000  0  8G 4G 5G 7G 8G 9G16G24G30
  20639056.8394   -2152361.44148  -1677164.91147                  20639062.7924
        28.0004         27.2504
  21782977.8474  -12638272.00247  -9848001.87846                  21782984.5974
        25.0004         23.0004
  23213200.1514    8632286.31446   6726449.98446                  23213208.0194
        13.0004         12.7504
  21925113.7764  -12622454.09247  -9835675.24846                  21925120.9294
        21.2504         20.0004
  21367891.0264   -2654426.90148  -2068387.61547                  21367897.6364
        30.2504         28.0004
  24396919.0194   -1554776.57545  -1158900.73445                  24396928.2334
        11.0004          9.5004
  20375145.4804  -11413716.83947  -8893801.28246                  20375152.6324
        22.7504         21.5004
  24555725.6754    -224313.63046    -11286.39455                  24555734.0934
        12.0004         11.0004
 98  6 17 16 11 59.9990000  0  8G 4G 5G 7G 8G 9G16G24G30
  20641243.4954   -2140872.21048  -1668212.26347                  20641249.5074
        28.5004         27.7504
  21775011.7614  -12680134.90047  -9880622.31446                  21775018.0774
        25.5004         23.2504
  23218591.4404    8660617.12746   6748525.91346                  23218599.9404
        12.7504         12.7504
  21919704.4804  -12650880.43647  -9857825.62546                  21919711.9604
        22.5004         20.5004
  21369534.3234   -2645792.12248  -2061659.22447                  21369541.1944
        30.5004         28.2504
  24396255.1284   -1558264.78845  -1161618.78745                  24396264.0624
        11.0004          9.2504
  20370473.9094  -11438266.46947  -8912930.84946                  20370480.9094
        22.5004         21.5004
  24545383.9954    -278660.77046    -53634.79845                  24545393.0934
        12.5004         10.7504
 98  6 17 16 12 14.9990000  0  8G 4G 5G 7G 8G 9G16G24G30
  20643452.3784   -2129264.24048  -1659167.09247                  20643458.4374
        28.7504         28.0004
  21767049.0344  -12721978.69847  -9913227.87046                  21767055.6204
        25.5004         23.0004
  23223979.3314    8688931.42246   6770588.98246                  23223987.6674
        12.5004         12.7504
  21914318.1984  -12679185.28647  -9879881.35546                  21914325.8784
        22.5004         20.7504
  21371199.1284   -2637044.50448  -2054842.91647                  21371205.6674
        31.2504         28.2504
  24395611.4014   -1561647.50545  -1164254.68145                  24395618.9524
        10.7504          9.0004
  20365822.2614  -11462709.61347  -8931977.44546                  20365829.5194
        22.5004         21.5004
  24535036.3704    -333039.37546    -96007.72745                  24535045.3744
        12.2504         11.0004
 98  6 17 16 12 29.9990000  0  8G 4G 5G 7G 8G 9G16G24G30
  20645682.9564   -2117542.72248  -1650033.44947                  20645688.8154
        29.7504         28.7504
  21759089.4954  -12763805.89747  -9945820.47746                  21759096.1164
        25.5004         23.2504
  23229364.0974    8717228.02546   6792638.26346                  23229372.0114
        12.0004         12.0004
  21908954.9174  -12707369.98947  -9901843.45646                  21908962.3394
        22.2504         20.7504
  21372884.3944   -2628186.89248  -2047940.89447                  21372890.8274
        31.7504         28.2504
  24394986.8234   -1564927.33845  -1166810.39745                  24394996.0624
        10.5004          9.0004
  20361190.1124  -11487052.20347  -8950945.68946                  20361197.0074
        22.2504         21.5004
  24524681.8154    -387450.95246   -138406.33645                  24524690.1404
        12.5004         11.5004
 98  6 17 16 12 44.9990000  0  8G 4G 5G 7G 8G 9G16G24G30
  20647935.7694   -2105703.66848  -1640808.21147                  20647941.6634
        30.5004         29.5004
  21751134.1364  -12805611.24547  -9978396.06746                  21751140.6984
        25.2504         23.2504
  23234746.4724    8745517.06045   6814681.63746                  23234754.4094
        11.7504         12.0004
  21903616.6834  -12735423.59847  -9923703.40446                  21903623.6594
        23.0004         20.7504
  21374592.6834   -2619210.72548  -2040946.49047                  21374599.1284
        32.0004         28.0004
  24394383.2764   -1568095.48345  -1169279.06745                  24394391.9994
         9.0004          8.2504
  20356578.0814  -11511287.58647  -8969830.38746                  20356585.0114
        22.2504         21.2504
  24514323.1514    -441884.32346   -180821.91945                  24514332.6474
        12.7504         11.7504
 98  6 17 16 12 59.9990000  0  8G 4G 5G 7G 8G 9G16G24G30
  20650210.6754   -2093748.95548  -1631492.85747                  20650216.7104
        30.7504         30.0004
  21743183.5894  -12847392.40347 -10010952.80246                  21743189.9054
        25.5004         23.0004
  23240129.6284    8773801.58645   6836721.50145                  23240138.1754
        11.0004         11.7504
  21898304.1364  -12763340.31647  -9945456.68346                  21898310.9954
        23.0004         20.7504
  21376323.5194   -2610114.03748  -2033858.18147                  21376329.7884
        32.2504         28.2504
  24393802.6834   -1571148.58745  -1171658.10845                  24393811.7104
         9.0004          7.7504
  20351987.5584  -11535410.34147  -8988627.32946                  20351994.6164
        22.2504         21.5004
  24503962.1904    -496331.83546   -223248.54845                  24503970.8084
        12.5004         11.5004
 98  6 17 16 13 14.9990000  0  8G 4G 5G 7G 8G 9G16G24G30
  20652505.8784   -2081688.04248  -1622094.74447                  20652511.9014
        31.2504         30.5004
  21735236.2144  -12889155.43947 -10043495.43046                  21735242.4834
        25.5004         23.2504
  23245509.4014    8802073.69745   6858751.66445                  23245517.5624
        11.7504         11.7504
  21893016.9094  -12791125.29447  -9967107.30846                  21893023.9334
        23.0004         20.7504
  21378076.8154   -2600902.28948  -2026680.20947                  21378082.9444
        31.2504         28.2504
  24393241.1284   -1574094.50545  -1173953.62645                  24393248.7614
         8.0004          8.0004
  20347417.3314  -11559428.69547  -9007342.92646                  20347424.0694
        22.5004         21.2504
  24493597.4564    -550798.03945   -265689.71445                  24493606.6474
        11.2504         10.7504
 98  6 17 16 13 29.9990000  0  8G 4G 5G 7G 8G 9G16G24G30
  20654822.5194   -2069512.95548  -1612607.66647                  20654828.5304
        31.7504         30.7504
  21727295.1204  -12930886.86247 -10076013.41646                  21727301.4604
        25.2504         23.0004
  23250888.6444    8830341.18846   6880778.26046                  23250896.1364
        12.5004         12.0004
  21887756.5584  -12818768.74647  -9988647.66046                  21887763.2494
        22.7504         20.7504
  21379853.3554   -2591565.96248  -2019405.15847                  21379859.3084
        32.0004         28.2504
  24392703.2924   -1576924.37045  -1176158.72645                  24392713.9954
         7.5004          7.7504
  20342868.2374  -11583333.49547  -9025970.02846                  20342874.8354
        22.7504         21.2504
  24483231.3004    -605274.20245   -308138.64445                  24483239.4954
        10.7504         10.2504
 98  6 17 16 13 44.9990000  0  8G 4G 5G 7G 8G 9G16G24G30
  20657160.3624   -2057228.41248  -1603035.30147                  20657166.3274
        32.2504         31.2504
  21719360.3234  -12972584.78247 -10108505.29046                  21719367.0734
        25.0004         22.7504
  23256267.0424    8858600.05246   6902798.13846                  23256274.7104
        12.7504         12.2504
  21882522.1124  -12846275.94147 -10010081.83246                  21882528.4174
        23.0004         20.2504
  21381653.7374   -2582106.04448  -2012033.80647                  21381659.8194
        32.0004         28.2504
  24392185.7144   -1579639.39545  -1178274.31445                  24392197.6364
         7.5004          8.2504
  20338340.4174  -11607126.64047  -9044510.12846                  20338346.9214
        22.2504         21.2504
  24472862.5194    -659759.99345   -350595.09045                  24472871.4644
        11.0004         10.2504
 98  6 17 16 13 59.9990000  0  8G 4G 5G 7G 8G 9G16G24G30
  20659518.4014   -2044837.17548  -1593379.79647                  20659524.4134
        32.0004         31.2504
  21711431.3314  -13014251.38447 -10140972.77346                  21711437.6944
        25.5004         22.7504
  23261641.7144    8886846.78746   6924808.55346                  23261648.3704
        12.7504         12.0004
  21877312.8154  -12873649.57547 -10031411.92646                  21877318.9334
        23.7504         20.2504
  21383476.9804   -2572524.11947  -2004567.38847                  21383483.0504
        24.5004         28.2504
  24391690.1674   -1582243.64444  -1180303.60845                  24391702.7104
         6.7504          7.5004
  20333834.4174  -11630806.69947  -9062962.11146                  20333840.8974
        22.7504         21.2504
  24462492.2454    -714257.29645   -393060.49545                  24462499.7024
         9.5004          9.5004
 98  6 17 16 14 14.9990000  0  8G 4G 5G 7G 8G 9G16G24G30
  20661897.4644   -2032335.42248  -1583638.17247                  20661903.4054
        32.0004         31.0004
  21703508.8474  -13055884.26347 -10173413.96846                  21703515.3974
        25.0004         22.7504
  23267015.3864    8915085.39746   6946812.62646                  23267021.9834
        12.5004         12.2504
  21872129.8784  -12900886.46747 -10052635.47746                  21872136.0304
        23.2504         20.5004
  21385323.9564   -2562818.02248  -1997004.20547                  21385330.1674
        28.5004         28.5004
  24391215.6124   -1584734.17144  -1182244.23445                  24391224.1364
         6.5004          7.7504
  20329350.4254  -11654369.90647  -9081323.04446                  20329357.0114
        23.0004         21.5004
  24452120.3084    -768764.98045   -435533.93345                  24452128.9134
         9.2504          9.0004
 98  6 17 16 14 29.9990000  0  8G 4G 5G 7G 8G 9G16G24G30
  20664297.7614   -2019721.79248  -1573809.38047                  20664303.7494
        31.5004         31.0004
  21695593.1904  -13097480.82047 -10205826.85446                  21695600.1444
        24.2504         22.7504
  23272388.6444    8943320.59546   6968814.06745                  23272396.3824
        12.7504         11.7504
  21866973.0114  -12927986.66347 -10073752.50846                  21866979.5034
        23.0004         20.5004
  21387194.3394   -2552988.51947  -1989344.86947                  21387200.5974
        27.0004         28.7504
  24390764.6984   -1587110.77145  -1184096.17645                  24390775.5894
         7.5004          7.5004
  20324889.4254  -11677814.24747  -9099591.34546                  20324896.0934
        23.2504         21.7504
  24441745.1284    -823283.30345   -478015.71645                  24441754.0264
         9.2504          8.2504
 98  6 17 16 14 44.9990000  0  8G 4G 5G 7G 8G 9G16G24G30
  20666719.2614   -2006996.66648  -1563893.70747                  20666725.2844
        31.0004         30.7504
  21687684.2534  -13139042.04847 -10238212.22146                  21687690.8744
        24.0004         22.7504
  23277760.1514    8971551.20046   6990811.89046                  23277767.6444
        12.7504         12.0004
  21861841.6124  -12954951.41647 -10094764.00546                  21861848.4094
        22.2504         20.5004
  21389088.2534   -2543037.74248  -1981591.04447                  21389094.5584
        29.0004         28.2504
  24390332.8394   -1589374.07544  -1185859.75345                  24390342.2884
         6.7504          7.7504
  20320451.1514  -11701137.66647  -9117765.43946                  20320457.7264
        23.5004         21.7504
  24431367.3784    -877816.98645   -520509.50545                  24431374.1054
         7.7504          7.7504
 98  6 17 16 14 59.9990000  0  8G 4G 5G 7G 8G 9G16G24G30
  20669162.4564   -1994157.68348  -1553889.30847                  20669168.4444
        30.2504         30.2504
  21679782.6364  -13180565.41047 -10270568.08046                  21679789.2924
        24.5004         22.7504
  23283131.3944    8999773.70146   7012803.43046                  23283138.4524
        13.5004         12.2504
  21856735.6364  -12981783.92847 -10115672.44746                  21856742.8354
        21.2504         20.5004
  21391004.4804   -2532966.44548  -1973743.29747                  21391010.9484
        30.7504         28.7504
  24389924.8234   -1591523.61744  -1187534.78145                  24389934.8944
         7.2504          8.5004
  20316035.8084  -11724339.85147  -9135845.05146                  20316042.2764
        24.0004         22.0004
  24420986.4874    -932367.74944   -563016.53745                  24420993.3474
         7.2504          7.0004
 98  6 17 16 15 14.9990000  0  8G 4G 5G 7G 8G 9G16G24G30
  20671627.2224   -1981204.79348  -1543796.15347                  20671633.1984
        29.7504         29.7504
  21671887.4874  -13222054.75547 -10302897.43046                  21671894.0154
        24.7504         22.5004
  23288499.3394    9027980.64246   7034782.84546                  23288506.1474
        13.5004         12.0004
  21851652.4804  -13008493.43047 -10136485.03646                  21851659.5504
        21.2504         20.2504
  21392943.0654   -2522779.77648  -1965805.64547                  21392949.7104
        32.2504         28.5004
  24389537.2844   -1593562.43244  -1189123.45245                  24389546.3584
         6.7504          8.2504
  20311642.5264  -11747427.50447  -9153835.42646                  20311649.1594
        24.2504         22.5004
  24410601.7064    -986942.47445   -605542.27645                  24410610.0654
         7.7504          7.7504
 98  6 17 16 15 29.9990000  0  8G 4G 5G 7G 8G 9G16G24G30
  20674113.3944   -1968139.97148  -1533615.77947                  20674119.3704
        29.2504         29.2504
  21663997.9644  -13263514.89247 -10335204.01946                  21664004.3154
        24.2504         22.2504
  23293863.0814    9056168.73146   7056747.56646                  23293870.3624
        14.2504         12.0004
  21846591.9954  -13035088.19547 -10157208.22446                  21846599.6514
        21.0004         20.2504
  21394902.3314   -2512482.40248  -1957781.72847                  21394909.0934
        32.5004         28.5004
  24389168.9484   -1595495.78044  -1190629.99945                  24389176.4524
         6.5004          7.5004
  20307269.6514  -11770407.10647  -9171741.59746                  20307276.4374
        24.2504         22.2504
  24400210.0734   -1041549.27845   -648092.95345                  24400218.3864
         8.0004          7.0004
 98  6 17 16 15 44.9990000  0  8G 4G 5G 7G 8G 9G16G24G30
  20676622.2764   -1954954.79348  -1523341.61647                  20676628.2764
        28.7504         29.0004
  21656114.9874  -13304939.01447 -10367482.55246                  21656121.7024
        23.5004         22.5004
  23299224.6514    9084346.17846   7078703.97645                  23299231.8974
        13.0004         11.7504
  21841553.8314  -13061563.52247 -10177838.34546                  21841561.4994
        20.7504         20.5004
  21396884.4724   -2502066.71348  -1949665.61347                  21396891.1404
        32.5004         28.5004
  24388823.6444   -1597313.61444  -1192046.47145                  24388832.6244
         7.2504          7.7504
  20302918.7764  -11793270.28747  -9189557.05646                  20302925.5384
        23.7504         22.5004
  24389815.2694   -1096178.78845   -690661.37645                  24389823.0654
         8.7504          8.0004
 98  6 17 16 15 59.9990000  0  8G 4G 5G 7G 8G 9G16G24G30
  20679154.7694   -1941646.39048  -1512971.44047                  20679160.7694
        28.2504         28.5004
  21648238.7924  -13346328.46047 -10399734.05246                  21648245.6364
        23.0004         22.5004
  23304585.3474    9112515.58446   7100654.14545                  23304592.3004
        13.0004         11.5004
  21836539.2534  -13087915.58047 -10198372.41046                  21836547.0974
        21.0004         20.5004
  21398888.9954   -2491532.65948  -1941457.26747                  21398895.4294
        32.2504         28.2504
  24388499.8624   -1599012.42844  -1193370.21245                  24388510.7184
         6.7504          7.7504
  20298590.8234  -11816014.45647  -9207279.77546                  20298597.5384
        23.7504         22.5004
  24379415.3944   -1150828.57545   -733245.63445                  24379422.8044
         9.0004          7.5004
 98  6 17 16 16 14.9990000  0  8G 4G 5G 7G 8G 9G16G24G30
  20681709.8154   -1928220.10947  -1502509.41047                  20681715.8044
        27.2504         28.0004
  21640367.9804  -13387690.34247 -10431964.08346                  21640375.0154
        23.0004         22.5004
  23309942.8314    9140670.19446   7122592.77645                  23309951.8234
        12.2504         11.7504
  21831546.4804  -13114150.22747 -10218814.98746                  21831554.0074
        21.5004         20.7504
  21400914.5034   -2480889.65148  -1933164.02347                  21400921.1014
        32.0004         28.0004
  24388197.9874   -1600597.17044  -1194605.11245                  24388207.6244
         7.2504          7.5004
  20294283.3474  -11838648.11247  -9224916.38446                  20294290.1794
        23.5004         22.2504
  24369010.3394   -1205506.21445   -775851.55145                  24369016.7144
         9.0004          8.0004
 98  6 17 16 16 29.9990000  0  8G 4G 5G 7G 8G 9G16G24G30
  20684288.9094   -1914666.47147  -1491948.13847                  20684294.8154
        26.7504         27.7504
  21632504.4254  -13429013.17847 -10464163.68546                  21632511.3904
        23.0004         22.2504
  23315299.9174    9168820.74046   7144528.23545                  23315307.1164
        13.2504         11.5004
  21826578.5344  -13140258.71247 -10239159.26346                  21826585.9564
        21.2504         20.5004
  21402962.2304   -2470128.77648  -1924778.93747                  21402968.7694
        31.5004         28.0004
  24387919.9724   -1602056.85645  -1195742.49045                  24387928.3434
         7.7504          7.2504
  20289999.1514  -11861162.24647  -9242459.85346                  20290006.1404
        23.0004         22.2504
  24358602.8314   -1260199.96345   -818470.02645                  24358610.3124
         9.5004          8.2504
 98  6 17 16 16 44.9990000  0  8G 4G 5G 7G 8G 9G16G24G30
  20686890.9334   -1900993.51947  -1481293.89447                  20686896.9564
        27.0004         27.2504
  21624647.4484  -13470302.57347 -10496337.23046                  21624654.3784
        23.5004         22.5004
  23320654.4644    9196959.71546   7166454.69545                  23320661.5114
        13.0004         11.7504
  21821632.9724  -13166248.08747 -10259410.72446                  21821640.2304
        21.2504         20.7504
  21405030.9804   -2459256.76648  -1916307.25247                  21405037.6364
        31.7504         27.7504
  24387666.1124   -1603399.16845  -1196788.48445                  24387675.6204
         8.2504          8.5004
  20285736.8004  -11883560.69147  -9259913.17546                  20285743.6944
        22.7504         22.2504
  24348191.2224   -1314915.66545   -861105.61045                  24348198.9374
        10.5004          7.7504
 98  6 17 16 16 59.9990000  0  8G 4G 5G 7G 8G 9G16G24G30
  20689515.8004   -1887198.92247  -1470544.87447                  20689521.7534
        27.0004         27.5004
  21616797.0584  -13511556.05047 -10528482.78546                  21616804.0934
        23.0004         22.2504
  23326006.1594    9225082.80146   7188368.75645                  23326013.9684
        13.0004         11.5004
  21816710.8234  -13192115.17747 -10279566.90146                  21816717.4564
        21.5004         20.5004
  21407121.5894   -2448271.53848  -1907747.35247                  21407127.8234
        31.5004         27.7504
  24387433.3704   -1604623.61645  -1197742.62345                  24387441.7764
         7.7504          8.0004
  20281496.9334  -11905840.58447  -9277274.12846                  20281503.7414
        23.0004         22.2504
  24337775.4644   -1369649.04445   -903754.94645                  24337783.3434
        10.7504          7.5004
 98  6 17 16 17 14.9990000  0  8G 4G 5G 7G 8G 9G16G24G30
  20692165.0734   -1873277.46147  -1459696.98347                  20692171.1444
        27.7504         27.5004
  21608954.5114  -13552768.38347 -10560596.28146                  21608961.2614
        23.2504         22.0004
  23331356.4804    9253197.57346   7210276.33245                  23331364.7454
        13.0004         11.7504
  21811813.1514  -13217851.83147 -10299621.43346                  21811819.9134
        21.5004         20.5004
  21409234.6364   -2437166.37948  -1899093.99547                  21409240.8704
        31.5004         27.7504
  24387222.5114   -1605724.80244  -1198600.70445                  24387231.4334
         6.7504          7.0004
  20277280.9094  -11927995.90247  -9294538.00246                  20277287.8044
        22.7504         22.2504
  24327358.1984   -1424392.68445   -946412.35445                  24327366.2764
        11.7504          7.5004
 98  6 17 16 17 29.9990000  0  8G 4G 5G 7G 8G 9G16G24G30
  20694837.7764   -1859231.71148  -1448752.25147                  20694843.7534
        28.0004         27.7504
  21601119.6834  -13593941.67747 -10592679.35346                  21601126.5034
        23.0004         22.2504
  23336705.1124    9281306.26246   7232179.18246                  23336712.5224
        13.0004         12.0004
  21806941.3084  -13243453.34347 -10319570.66246                  21806948.1054
        21.2504         20.2504
  21411370.8624   -2425941.11748  -1890347.05147                  21411377.0384
        31.7504         27.7504
  24387036.3704   -1606705.39844  -1199364.80245                  24387044.7534
         6.7504          7.7504
  20273089.3784  -11950024.01947  -9311702.75646                  20273096.1284
        22.7504         22.0004
  24316939.1594   -1479144.56245   -989076.13445                  24316945.7804
        11.2504          8.7504
 98  6 17 16 17 44.9990000  0  8G 4G 5G 7G 8G 9G16G24G30
  20697532.6054   -1845071.40448  -1437718.26047                  20697538.6284
        28.7504         27.7504
  21593291.5264  -13635079.17747 -10624734.53346                  21593298.3584
        23.2504         22.5004
  23342052.4334    9309405.68546   7254074.81845                  23342059.8314
        12.2504         11.7504
  21802095.2374  -13268919.32547 -10339414.29046                  21802102.4954
        21.5004         20.5004
  21413529.1754   -2414599.36548  -1881509.33747                  21413535.5264
        31.2504         28.0004
  24386871.4334   -1607571.64345  -1200039.83345                  24386879.9214
         7.5004          7.5004
  20268921.1514  -11971928.19247  -9328770.93946                  20268928.0464
        22.7504         22.0004
  24306518.1364   -1533906.57845  -1031747.80245                  24306524.6284
        11.2504          9.0004
 98  6 17 16 17 59.9990000  0  8G 4G 5G 7G 8G 9G16G24G30
  20700250.1284   -1830790.54748  -1426590.32747                  20700256.1634
        29.0004         28.2504
  21585471.3084  -13676174.29847 -10656756.70346                  21585477.6364
        23.0004         22.2504
  23347397.9014    9337500.34645   7275966.72845                  23347404.4874
        11.5004         11.5004
  21797277.3474  -13294238.45247 -10359143.47946                  21797284.8154
        21.5004         20.7504
  21415709.9804   -2403138.02648  -1872578.43547                  21415716.2964
        31.7504         28.0004
  24386729.8944   -1608317.01245  -1200620.64645                  24386739.9874
         7.7504          7.2504
  20264777.3234  -11993702.39447  -9345737.84546                  20264784.2064
        23.2504         22.5004
  24296096.4954   -1588672.28146  -1074422.32445                  24296104.5854
        12.0004          9.2504
 98  6 17 16 18 14.9990000  0  8G 4G 5G 7G 8G 9G16G24G30
  20702990.7534   -1816388.47548  -1415367.94747                  20702996.7414
        29.7504         28.5004
  21577659.3864  -13717225.74547 -10688744.83346                  21577666.1244
        22.7504         22.2504
  23352742.8084    9365588.95045   7297853.92145                  23352750.2654
        11.0004         11.2504
  21792487.3624  -13319408.25147 -10378756.29146                  21792494.5034
        22.2504         20.5004
  21417913.5814   -2391559.13648  -1863555.93647                  21417919.7804
        31.7504         28.0004
  24386611.1904   -1608942.44245  -1201107.98345                  24386619.0114
         8.7504          8.2504
  20260658.3624  -12015348.11447  -9362604.63046                  20260665.1474
        23.7504         22.2504
  24285673.6834   -1643444.57446  -1117102.02545                  24285681.4684
        12.0004         10.0004
 98  6 17 16 18 29.9990000  0  8G 4G 5G 7G 8G 9G16G24G30
  20705753.8314   -1801868.69248  -1404053.84047                  20705759.8314
        30.2504         29.0004
  21569855.5974  -13758234.94547 -10720700.03846                  21569862.1944
        23.2504         22.2504
  23358087.7144    9393670.94245   7319735.97745                  23358095.2414
        10.5004         11.0004
  21787725.4254  -13344433.02247 -10398256.10846                  21787732.8124
        22.0004         20.7504
  21420138.8704   -2379865.31748  -1854443.88247                  21420145.2574
        31.5004         28.5004
  24386514.7534   -1609450.96845  -1201504.28545                  24386524.0974
         8.7504          7.7504
  20256563.4484  -12036868.13947  -9379373.48146                  20256570.3434
        24.0004         22.5004
  24275248.4174   -1698226.70845  -1159789.37745                  24275256.5424
        11.7504          9.7504
 98  6 17 16 18 44.9990000  0  8G 4G 5G 7G 8G 9G16G24G30
  20708540.1284   -1787226.23948  -1392644.14847                  20708546.0344
        30.7504         29.2504
  21562060.6124  -13799197.87347 -10752619.18646                  21562067.2804
        23.5004         22.5004
  23363429.9644    9421751.52945   7341616.92445                  23363439.1554
         9.7504         11.2504
  21782992.3784  -13369306.86347 -10417638.32446                  21782999.8234
        21.5004         21.0004
  21422386.7534   -2368052.58348  -1845239.16547                  21422393.0464
        31.2504         28.2504
  24386439.9804   -1609837.10345  -1201805.20245                  24386448.3624
         9.0004          8.0004
  20252493.2064  -12058256.42347  -9396039.66646                  20252499.9684
        24.0004         22.5004
  24264822.5264   -1753016.05746  -1202482.35945                  24264830.2884
        12.2504         10.7504
 98  6 17 16 18 59.9990000  0  8G 4G 5G 7G 8G 9G16G24G30
  20711350.9874   -1772455.80448  -1381134.72947                  20711356.8354
        31.0004         29.5004
  21554275.6834  -13840109.05547 -10784498.02346                  21554282.2694
        23.5004         22.7504
  23368775.0894    9449836.05945   7363500.94045                  23368784.7024
        10.2504         11.0004
  21778288.8944  -13394022.72247 -10436897.42946                  21778296.3744
        21.7504         20.5004
  21424658.4724   -2356113.96948  -1835936.36147                  21424664.8474
        30.7504         28.5004
  24386391.8784   -1610096.57445  -1202007.40445                  24386399.1834
         9.2504          7.5004
  20248448.8474  -12079509.54547  -9412600.53746                  20248455.4564
        24.7504         22.5004
  24254395.6444   -1807808.77645  -1245177.94345                  24254404.7184
        11.2504         10.5004
 98  6 17 16 19 14.9990000  0  8G 4G 5G 7G 8G 9G16G24G30
  20714185.9014   -1757558.17448  -1369526.19647                  20714191.7964
        31.2504         29.7504
  21546500.5194  -13880967.17447 -10816335.50546                  21546507.0224
        24.5004         23.0004
  23374120.5344    9477927.01445   7385389.97745                  23374128.8584
        10.2504         11.2504
  21773615.6204  -13418580.97247 -10456033.71846                  21773622.8434
        22.0004         20.5004
  21426954.4174   -2344048.93548  -1826535.04747                  21426961.0624
        30.5004         28.2504
  24386366.2764   -1610227.04845  -1202109.11245                  24386373.7334
         9.7504          8.2504
  20244430.1444  -12100630.25247  -9429058.22646                  20244436.7654
        24.5004         22.7504
  24243968.4564   -1862605.30545  -1287876.51445                  24243976.9564
        11.0004         10.0004
 98  6 17 16 19 29.9990000  0  8G 4G 5G 7G 8G 9G16G24G30
  20717043.4174   -1742542.18948  -1357825.43847                  20717049.3944
        31.5004         30.0004
  21538734.7144  -13921777.10847 -10848135.44146                  21538741.0774
        24.7504         23.0004
  23379466.7374    9506022.32545   7407282.40246                  23379475.1204
        10.7504         12.0004
  21768971.1284  -13442988.03547 -10475052.20846                  21768978.1984
        22.2504         20.5004
  21429273.0734   -2331863.95348  -1817040.27047                  21429279.8124
        30.2504         28.2504
  24386365.5034   -1610231.54845  -1202112.60645                  24386373.7334
         9.5004          8.0004
  20240434.9094  -12121624.82747  -9445417.62446                  20240441.6124
        24.5004         22.7504
  24233538.2614   -1917412.82445  -1330583.62845                  24233547.2064
        10.5004         10.2504
 98  6 17 16 19 44.9990000  0  8G 4G 5G 7G 8G 9G16G24G30
  20719923.4564   -1727408.23448  -1346032.75247                  20719929.3974
        31.5004         30.0004
  21530978.4404  -13962536.27047 -10879895.82246                  21530984.6054
        25.0004         23.0004
  23384814.0034    9534122.88245   7429178.91546                  23384822.8434
        11.2504         12.0004
  21764355.3704  -13467244.43747 -10493953.29246                  21764362.1674
        23.0004         20.5004
  21431615.1204   -2319556.81548  -1807450.31247                  21431621.6714
        30.0004         28.2504
  24386389.7144   -1610105.85645  -1202014.72045                  24386395.7144
        10.0004          8.0004
  20236463.1754  -12142494.99547  -9461680.08946                  20236469.6674
        24.2504         22.5004
  24223107.6054   -1972231.38745  -1373299.35345                  24223117.8044
        10.7504         10.5004
 98  6 17 16 19 59.9990000  0  8G 4G 5G 7G 8G 9G16G24G30
  20722826.6594   -1712151.16948  -1334144.14147                  20722832.6014
        31.5004         30.2504
  21523232.8864  -14003240.38147 -10911613.30046                  21523239.2264
        24.7504         23.5004
  23390163.1984    9562231.64845   7451081.82645                  23390171.4764
        11.0004         11.7504
  21759768.4254  -13491349.38347 -10512736.37146                  21759775.2574
        22.7504         20.7504
  21433980.6204   -2307125.36348  -1797763.48547                  21433987.2654
        29.5004         28.2504
  24386438.9094   -1609846.67145  -1201812.79245                  24386447.0694
         9.7504          9.2504
  20232515.8394  -12163239.48647  -9477844.62146                  20232522.2264
        24.5004         22.5004
  24212673.5264   -2027058.53845  -1416021.75445                  24212682.3194
        10.0004         10.7504
 98  6 17 16 20 14.9990000  0  8G 4G 5G 7G 8G 9G16G24G30
  20725753.5654   -1696770.42048  -1322159.15147                  20725759.6014
        31.2504         30.5004
  21515497.2224  -14043890.44547 -10943288.66946                  21515503.7024
        24.7504         24.0004
  23395513.3784    9590345.41245   7472988.64145                  23395522.3944
        11.0004         11.7504
  21755209.2454  -13515307.94547 -10531405.37346                  21755216.3864
        22.7504         20.7504
  21436369.3784   -2294573.43448  -1787982.77747                  21436376.1164
        29.7504         28.0004
  24386513.5344   -1609456.17445  -1201508.51945                  24386523.3584
        10.5004          8.7504
  20228592.0194  -12183859.14747  -9493911.88146                  20228598.5224
        24.2504         22.7504
  24202238.8084   -2081897.31345  -1458753.23145                  24202246.7454
        11.0004         11.0004
 98  6 17 16 20 29.9990000  0  8G 4G 5G 7G 8G 9G16G24G30
  20728704.1054   -1681265.40048  -1310077.32547                  20728710.1404
        31.5004         30.2504
  21507772.5814  -14084483.77347 -10974919.82346                  21507779.0624
        25.0004         24.0004
  23400865.2764    9618468.58845   7494902.75846                  23400873.6594
        11.0004         12.0004
  21750677.9484  -13539120.70447 -10549960.76946                  21750685.0074
        22.0004         20.7504
  21438782.0194   -2281894.74648  -1778103.30247                  21438788.5694
        29.5004         28.2504
  24386612.8624   -1608932.10045  -1201100.16245                  24386621.0814
        10.5004          9.0004
  20224693.2064  -12204347.95447  -9509877.17346                  20224699.9214
        24.0004         22.5004
  24191801.9094   -2136742.34545  -1501489.59745                  24191810.1984
        11.5004         10.7504
 98  6 17 16 20 44.9990000  0  8G 4G 5G 7G 8G 9G16G24G30
  20731677.4724   -1665639.62248  -1297901.39947                  20731683.5194
        30.7504         30.2504
  21500058.1984  -14125024.35547 -11006509.87346                  21500064.5264
        25.0004         24.2504
  23406218.6364    9646599.16545   7516822.66346                  23406227.0654
        11.2504         12.2504
  21746174.0734  -13562788.77347 -10568403.41546                  21746180.7414
        23.0004         20.5004
  21441218.9644   -2269089.21748  -1768124.98647                  21441225.6444
        29.0004         28.5004
  24386737.7454   -1608278.68645  -1200591.04445                  24386746.5504
        10.7504          9.2504
  20220818.9874  -12224706.25747  -9525740.78046                  20220825.5974
        23.7504         22.7504
  24181364.3944   -2191593.03146  -1544230.36845                  24181372.9764
        12.0004         11.0004
 98  6 17 16 20 59.9990000  0  8G 4G 5G 7G 8G 9G16G24G30
  20734672.5894   -1649900.02748  -1285636.79047                  20734678.6364
        30.5004         30.2504
  21492352.2764  -14165518.56247 -11038063.79446                  21492359.0854
        25.2504         24.5004
  23411570.9014    9674728.19245   7538741.35645                  23411578.4994
        11.5004         11.7504
  21741696.8394  -13586316.16647 -10586736.45446                  21741703.4954
        23.0004         21.0004
  21443679.0034   -2256161.62848  -1758051.56247                  21443685.6944
        29.5004         28.2504
  24386884.5814   -1607505.70545  -1199988.74845                  24386893.3864
        10.5004          9.2504
  20216968.7374  -12244939.75847  -9541507.14146                  20216975.0654
        23.7504         22.5004
  24170924.8784   -2246452.14645  -1586977.70945                  24170931.9604
        11.2504         10.7504
 98  6 17 16 21 14.9990000  0  8G 4G 5G 7G 8G 9G16G24G30
  20737689.3234   -1634048.45348  -1273284.91847                  20737695.3004
        30.2504         30.2504
  21484654.9954  -14205967.36047 -11069582.32646                  21484661.5344
        26.0004         24.7504
  23416923.3154    9702854.58745   7560657.98345                  23416931.3004
        11.2504         11.5004
  21737246.1594  -13609703.85647 -10604960.61946                  21737253.1014
        23.5004         21.0004
  21446162.3314   -2243111.79548  -1747882.88047                  21446168.8474
        29.7504         28.5004
  24387054.2224   -1606615.26645  -1199294.94545                  24387061.7964
        10.5004          9.2504
  20213141.9334  -12265049.42047  -9557177.00246                  20213148.3554
        24.2504         22.5004
  24160484.0114   -2301317.58445  -1629729.94545                  24160491.8554
        11.0004          9.2504
 98  6 17 16 21 29.9990000  0  8G 4G 5G 7G 8G 9G16G24G30
  20740727.9014   -1618079.69848  -1260841.73647                  20740733.8784
        30.0004         30.2504
  21476967.4174  -14246366.81747 -11101062.41746                  21476973.9444
        25.5004         24.7504
  23422276.1754    9730982.01445   7582575.42745                  23422284.3234
        11.5004         11.5004
  21732823.5894  -13632946.33747 -10623071.64246                  21732830.3044
        23.2504         21.0004
  21448669.3554   -2229937.67948  -1737617.34947                  21448675.9874
        29.7504         28.5004
  24387247.0504   -1605600.53345  -1198504.28745                  24387256.7454
        10.0004          8.2504
  20209339.7764  -12285030.08947  -9572746.34846                  20209346.3394
        24.2504         22.5004
  24150043.3554   -2356183.13145  -1672482.28745                  24150052.0304
        10.7504          9.0004
 98  6 17 16 21 44.9990000  0  8G 4G 5G 7G 8G 9G16G24G30
  20743788.8624   -1601993.83848  -1248307.30447                  20743794.8744
        29.7504         30.0004
  21469288.6284  -14286720.01047 -11132506.45446                  21469295.1554
        26.0004         25.0004
  23427628.2144    9759106.36045   7604490.45245                  23427635.8474
        11.5004         11.5004
  21728427.7374  -13656046.26547 -10641071.57346                  21728434.5114
        24.0004         21.5004
  21451199.2064   -2216643.53548  -1727258.29547                  21451205.7454
        30.0004         28.7504
  24387462.5974   -1604468.40545  -1197622.10145                  24387471.2024
        10.2504          8.5004
  20205561.1514  -12304886.07347  -9588218.53346                  20205567.8434
        24.2504         23.0004
  24139602.6124   -2411050.88745  -1715236.40945                  24139608.8234
        11.2504          9.2504
 98  6 17 16 21 59.9990000  0  8G 4G 5G 7G 8G 9G16G24G30
  20746873.0734   -1585785.58248  -1235677.49847                  20746879.1674
        29.0004         29.7504
  21461618.9094  -14327023.97447 -11163912.13146                  21461625.4134
        25.5004         25.2504
  23432979.7224    9787228.96045   7626404.14945                  23432986.4834
        10.7504         10.7504
  21724059.6284  -13679001.90247 -10658959.08546                  21724066.3194
        24.0004         21.5004
  21453751.5584   -2203230.12048  -1716806.29347                  21453758.2264
        30.0004         28.5004
  24387700.1754   -1603220.46645  -1196649.70245                  24387710.2454
        10.7504          9.2504
  20201807.1364  -12324614.09847  -9603591.01546                  20201813.8744
        24.5004         23.0004
  24129161.5264   -2465917.50645  -1757989.53645                  24129167.5504
        10.5004          8.7504
 98  6 17 16 22 14.9990000  0  8G 4G 5G 7G 8G 9G16G24G30
  20749979.2144   -1569462.70448  -1222958.37747                  20749985.1444
        28.7504         29.7504
  21453957.0814  -14367286.86447 -11195285.80346                  21453963.7264
        26.2504         25.5004
  23438328.7374    9815339.35545   7648308.31045                  23438335.4764
        10.2504         10.5004
  21719716.8704  -13701821.83547 -10676740.84946                  21719723.5974
        24.0004         21.2504
  21456324.5894   -2189709.45148  -1706270.72147                  21456331.1984
        29.7504         28.5004
  24387957.3554   -1601869.49045  -1195597.02745                  24387967.1084
        10.7504          9.0004
  20198076.5734  -12344218.83347  -9618867.42546                  20198083.2414
        25.2504         23.2504
  24118719.5264   -2520790.94045  -1800748.04645                  24118725.8194
        10.7504          9.5004
 98  6 17 16 22 29.9990000  0  8G 4G 5G 7G 8G 9G16G24G30
  20753109.1284   -1553016.11148  -1210142.84947                  20753115.0464
        28.2504         29.5004
  21446305.1284  -14407498.45747 -11226619.50246                  21446311.9604
        26.5004         25.5004
  23443677.5654    9843447.55745   7670210.76945                  23443684.8704
        10.7504         11.0004
  21715402.4254  -13724494.65147 -10694407.97046                  21715409.2844
        23.7504         21.5004
  21458920.2534   -2176068.59348  -1695641.48847                  21458926.7924
        30.2504         28.7504
  24388236.5194   -1600401.80045  -1194453.38245                  24388245.0774
        10.0004          9.0004
  20194371.1204  -12363690.18747  -9634039.90346                  20194377.6944
        25.0004         23.5004
  24108278.8154   -2575658.61145  -1843502.03745                  24108286.7884
         9.7504          9.2504
 98  6 17 16 22 44.9990000  0  8G 4G 5G 7G 8G 9G16G24G30
  20756261.5114   -1536448.40347  -1197232.95047                  20756267.5344
        27.5004         29.2504
  21438662.5814  -14447660.06047 -11257914.24246                  21438669.5814
        26.2504         25.5004
  23449025.9954    9871554.59245   7692112.33545                  23449033.4644
        10.7504         11.2504
  21711115.9014  -13747021.54447 -10711961.39346                  21711122.8554
        24.0004         22.0004
  21461539.1834   -2162306.39548  -1684917.70547                  21461545.8394
        30.2504         28.2504
  24388538.4254   -1598817.43245  -1193218.83645                  24388547.3704
        10.0004          9.2504
  20190690.7064  -12383030.83047  -9649110.53046                  20190697.0584
        25.7504         23.5004
  24097838.5194   -2630520.98445  -1886251.88045                  24097846.6444
         9.7504          8.7504
 98  6 17 16 22 59.9990000  0  8G 4G 5G 7G 8G 9G16G24G30
  20759436.2144   -1519764.56047  -1184232.55447                  20759442.2844
        27.5004         29.2504
  21431028.8944  -14487774.92147 -11289172.55947                  21431036.0814
        26.2504         25.7504
  23454373.8944    9899654.96445   7714008.68845                  23454380.8004
        11.0004         11.5004
  21706855.5114  -13769409.03247 -10729406.19546                  21706862.4764
        24.0004         22.0004
  21464179.2534   -2148432.80348  -1674107.13047                  21464186.0154
        30.7504         28.5004
  24388859.9724   -1597121.47645  -1191897.30945                  24388869.3514
         9.2504          9.0004
  20187033.5894  -12402250.71647  -9664087.05846                  20187040.2224
        25.5004         23.5004
  24087398.0654   -2685385.72645  -1929003.60145                  24087406.5424
        10.5004          9.7504
 98  6 17 16 23 14.9990000  0  8G 4G 5G 7G 8G 9G16G24G30
  20762633.7534   -1502962.03548  -1171139.67747                  20762639.7534
        28.0004         29.0004
  21423404.8624  -14527839.57447 -11320391.75547                  21423411.7064
        26.2504         25.7504
  23459719.3234    9927750.44545   7735901.27445                  23459728.2334
        10.7504         11.5004
  21702621.5734  -13791657.10147 -10746742.34946                  21702628.8434
        23.5004         22.0004
  21466840.3704   -2134447.52448  -1663209.51447                  21466847.3004
        30.2504         28.7504
  24389205.8474   -1595307.27645  -1190483.62245                  24389215.0504
         9.0004          9.0004
  20183399.2614  -12421347.69647  -9678967.81246                  20183405.6944
        25.7504         23.7504
  24076957.7064   -2740251.56145  -1971756.17545                  24076967.1444
        10.7504         10.5004
 98  6 17 16 23 29.9990000  0  8G 4G 5G 7G 8G 9G16G24G30
  20765855.5194   -1486032.61348  -1157947.92347                  20765861.4954
        28.2504         29.0004
  21415792.2764  -14567843.43247 -11351563.58547                  21415798.9804
        26.0004         25.7504
  23465066.9724    9955848.59345   7757795.88445                  23465075.3664
        10.7504         11.5004
  21698415.9254  -13813759.00147 -10763964.60546                  21698423.2184
        23.2504         21.7504
  21469524.0654   -2120344.19548  -1652219.92447                  21469530.8864
        30.5004         28.5004
  24389576.0424   -1593361.14245  -1188967.18145                  24389586.4404
         8.7504          8.7504
  20179790.2534  -12440313.18447  -9693746.11346                  20179797.0734
        26.0004         24.2504
  24066518.2924   -2795111.93045  -2014504.50445                  24066527.3084
        11.0004          9.2504
 98  6 17 16 23 44.9990000  0  8G 4G 5G 7G 8G 9G16G24G30
  20769099.8864   -1468982.13248  -1144661.83147                  20769105.8274
        28.5004         29.0004
  21408190.4404  -14607790.86547 -11382691.44846                  21408196.9444
        26.5004         25.2504
  23470412.1904    9983941.56845   7779686.49745                  23470421.1714
        10.7504         11.7504
  21694236.5814  -13835721.16947 -10781077.98046                  21694243.6284
        23.0004         21.5004
  21472229.1514   -2106129.54348  -1641143.58447                  21472235.9604
        30.7504         29.0004
  24389970.2764   -1591290.74345  -1187353.87245                  24389979.0934
         9.2504          9.5004
  20176205.2614  -12459153.21647  -9708426.64846                  20176212.1054
        26.2504         24.0004
  24056078.0814   -2849974.24445  -2057254.32545                  24056086.9684
        11.2504          9.7504
 98  6 17 16 23 59.9990000  0  8G 4G 5G 7G 8G 9G16G24G30
  20772367.1594   -1451812.25948  -1131282.71247                  20772373.0194
        28.5004         29.0004
  21400599.5344  -14647680.94447 -11413774.61246                  21400605.9914
        26.2504         25.2504
  23475757.9724   10012029.01245   7801572.80145                  23475767.1284
        10.7504         11.2504
  21690084.0114  -13857544.34647 -10798083.05846                  21690091.1984
        22.7504         21.5004
  21474956.0114   -2091800.73448  -1629978.28947                  21474962.8554
        31.0004         29.0004
  24390388.1904   -1589094.57145  -1185642.58345                  24390396.7724
         8.7504          8.5004
  20172644.2924  -12477865.28847  -9723007.47546                  20172651.1364
        26.5004         24.5004
  24045637.2304   -2904838.95545  -2100005.99445                  24045646.7494
        10.5004         10.2504
 98  6 17 16 24 14.9990000  0  8G 4G 5G 7G 8G 9G16G24G30
  20775656.7844   -1434525.39948  -1117812.43747                  20775662.7144
        29.5004         29.0004
  21393019.1284  -14687517.39247 -11444815.99946                  21393025.3624
        26.0004         25.0004
  23481101.1364   10040108.82645   7823453.11745                  23481110.3154
        11.5004         11.7504
  21685957.4254  -13879228.48047 -10814979.79246                  21685964.6714
        22.5004         21.5004
  21477704.7924   -2077355.58148  -1618722.33847                  21477711.6364
        31.2504         29.0004
  24390830.8234   -1586768.84945  -1183830.35145                  24390839.0654
         9.5004          8.7504
  20169108.4724  -12496447.27447  -9737486.94546                  20169115.2104
        26.5004         24.5004
  24035196.7924   -2959705.68145  -2142759.26045                  24035204.1444
        10.7504          9.7504
 98  6 17 16 24 29.9990000  0  8G 4G 5G 7G 8G 9G16G24G30
  20778968.5424   -1417122.74148  -1104251.92647                  20778974.3904
        29.7504         29.2504
  21385447.8154  -14727304.04247 -11475818.57046                  21385454.0734
        25.7504         25.0004
  23486442.8554   10068180.47345   7845327.09145                  23486451.1324
        11.7504         11.2504
  21681857.4334  -13900772.15647 -10831767.07046                  21681864.7024
        22.0004         21.2504
  21480476.4644   -2062790.79548  -1607373.16947                  21480483.1554
        31.2504         29.0004
  24391299.2764   -1584307.13545  -1181912.12945                  24391307.5194
         9.5004          9.0004
  20165596.9014  -12514900.53147  -9751866.09346                  20165603.6874
        27.0004         24.7504
  24024755.4644   -3014574.95845  -2185514.50345                  24024763.9174
        11.7504          9.7504
 98  6 17 16 24 44.9990000  0  8G 4G 5G 7G 8G 9G16G24G30
  20782301.6904   -1399607.53948  -1090603.72347                  20782307.6904
        30.2504         29.0004
  21377886.1444  -14767042.53647 -11506783.62446                  21377892.6364
        25.5004         25.2504
  23491783.5344   10096243.35146   7867194.26245                  23491791.3434
        12.0004         11.2504
  21677784.7304  -13922176.33247 -10848445.65246                  21677791.9644
        22.0004         21.2504
  21483270.4014   -2048107.80648  -1595931.89247                  21483277.0694
        31.2504         28.7504
  24391793.2064   -1581710.00545  -1179888.36745                  24391802.5154
         9.0004          9.5004
  20162109.2614  -12533227.46947  -9766146.82146                  20162115.9874
        27.2504         24.7504
  24014312.6514   -3069450.40846  -2228274.58845                  24014320.4374
        12.0004         10.2504
 98  6 17 16 24 59.9990000  0  8G 4G 5G 7G 8G 9G16G24G30
  20785657.1364   -1381975.40348  -1076864.40347                  20785663.0424
        30.7504         29.5004
  21370333.6674  -14806729.66247 -11537708.64446                  21370340.0544
        25.5004         25.5004
  23497122.6054   10124302.86645   7889058.78845                  23497129.0734
        11.7504         10.7504
  21673739.2374  -13943434.67447 -10865010.58746                  21673746.4954
        22.0004         21.5004
  21486086.9564   -2033307.33448  -1584399.06847                  21486093.7884
        30.5004         28.7504
  24392313.1204   -1578973.75745  -1177756.24145                  24392323.1204
         8.7504          9.0004
  20158646.5194  -12551424.41647  -9780326.25146                  20158653.1054
        27.7504         25.2504
  24003870.0034   -3124330.27246  -2271038.05945                  24003878.1984
        13.0004          9.7504
 98  6 17 16 25 14.9990000  0  8G 4G 5G 7G 8G 9G16G24G30
  20789034.2224   -1364228.84548  -1063035.92447                  20789040.2574
        30.7504         29.2504
  21362790.0584  -14846371.54347 -11568598.41246                  21362796.8434
        25.2504         25.5004
  23502460.8234   10152353.18446   7910916.15045                  23502468.2104
        12.5004         10.7504
  21669721.5734  -13964547.36447 -10881462.04046                  21669728.5974
        22.2504         21.2504
  21488925.2144   -2018392.16448  -1572776.87447                  21488932.0114
        30.5004         28.7504
  24392859.9484   -1576103.88445  -1175519.96045                  24392870.1834
         7.5004          9.0004
  20155208.1444  -12569492.98348  -9794405.64746                  20155214.5074
        28.2504         25.2504
  23993424.9954   -3179219.41046  -2313808.82545                  23993432.4054
        12.5004         10.0004
 98  6 17 16 25 29.9990000  0  8G 4G 5G 7G 8G 9G16G24G30
  20792434.2374   -1346361.35648  -1049113.21647                  20792440.2374
        31.2504         29.0004
  21355256.2064  -14885962.01047 -11599448.10946                  21355262.9564
        25.5004         25.5004
  23507798.3314   10180402.58945   7932772.78945                  23507804.5304
        11.5004          9.7504
  21665733.4644  -13985505.11047 -10897792.74646                  21665740.5584
        22.2504         21.2504
  21491787.2304   -2003351.27748  -1561056.71547                  21491793.7454
        30.7504         28.5004
  24393433.0584   -1573091.73144  -1173172.82245                  24393442.3434
         7.2504          8.5004
  20151795.7924  -12587424.82248  -9808378.50246                  20151801.9444
        28.2504         25.5004
  23982979.5894   -3234109.33446  -2356580.19645                  23982985.7654
        13.2504          9.5004
 98  6 17 16 25 44.9990000  0  8G 4G 5G 7G 8G 9G16G24G30
  20795856.0034   -1328380.93248  -1035102.50547                  20795861.8864
        31.2504         29.0004
  21347730.9874  -14925506.69147 -11630262.13947                  21347737.9404
        26.0004         25.7504
  23513135.4804   10208448.46345   7954626.70045                  23513142.3234
        11.5004         10.0004
  21661773.9334  -14006313.61047 -10914007.17346                  21661780.8394
        22.2504         21.5004
  21494671.8944   -1988191.94248  -1549244.26347                  21494678.5504
        30.5004         28.2504
  24394030.4484   -1569950.34144  -1170724.98445                  24394038.7614
         6.7504          7.7504
  20148407.6834  -12605229.05748  -9822251.92646                  20148413.7884
        28.7504         25.5004
  23972532.8704   -3289006.48346  -2399357.15645                  23972539.6554
        13.0004         10.2504
 98  6 17 16 25 59.9990000  0  8G 4G 5G 7G 8G 9G16G24G30
  20799296.7924   -1310298.52048  -1021012.32747                  20799302.7804
        31.0004         28.5004
  21340212.1054  -14965018.20947 -11661050.32447                  21340218.9484
        26.2504         25.7504
  23518470.7694   10236485.66746   7976473.85445                  23518475.8084
        12.2504          9.5004
  21657841.1904  -14026980.14747 -10930110.97046                  21657848.0974
        22.7504         21.7504
  21497577.9334   -1972921.45048  -1537345.18947                  21497584.5424
        30.2504         28.0004
  24394651.4724   -1566690.23444  -1168184.61045                  24394661.7064
         7.2504          8.0004
  20145042.2224  -12622913.81748  -9836032.24747                  20145048.2924
        29.0004         25.7504
  23962083.4564   -3343917.37146  -2442144.82345                  23962090.6794
        13.0004         10.2504
 98  6 17 16 26 14.9990000  0  8G 4G 5G 7G 8G 9G16G24G30
  20802756.6444   -1292116.61948  -1006844.62247                  20802762.6204
        30.2504         28.5004
  21332699.1904  -15004499.84347 -11691815.22147                  21332705.9874
        26.7504         26.0004
  23523804.6514   10264515.52145   7998315.30045                  23523811.5224
        11.2504         10.0004
  21653935.3004  -14047505.16047 -10946104.48146                  21653942.0384
        23.0004         21.5004
  21500504.3624   -1957542.96548  -1525361.97747                  21500510.9724
        30.0004         28.0004
  24395294.2764   -1563312.67344  -1165552.76545                  24395305.4954
         7.2504          8.5004
  20141699.7534  -12640479.85648  -9849720.06447                  20141706.0814
        28.7504         26.2504
  23951631.5734   -3398842.91546  -2484943.94645                  23951638.5854
        14.0004         11.2504
 98  6 17 16 26 29.9990000  0  8G 4G 5G 7G 8G 9G16G24G30
  20806237.4484   -1273824.95548   -992591.39147                  20806243.4484
        30.0004         28.0004
  21325193.7534  -15043941.20647 -11722548.74347                  21325200.5384
        26.7504         26.0004
  23529138.9404   10292548.19345   8020158.89745                  23529145.3624
        11.7504          9.5004
  21650058.6904  -14067878.57847 -10961979.87546                  21650065.5854
        23.2504         21.7504
  21503452.6514   -1942049.95448  -1513289.51947                  21503459.3784
        30.5004         27.5004
  24395960.5194   -1559812.36645  -1162825.28245                  24395970.5424
         7.7504          7.7504
  20138381.1054  -12657919.20348  -9863309.15847                  20138387.4684
        28.7504         26.2504
  23941178.7844   -3453773.44746  -2527746.90945                  23941185.7964
        13.5004         11.2504
 98  6 17 16 26 44.9990000  0  9G10G 4G 5G 7G 8G 9G16G24G30
  24523857.4874     -28545.99853
         5.0004
  20809737.7534   -1255430.06148   -978257.71947                  20809743.6474
        30.0004         28.0004
  21317696.1904  -15083340.95147 -11753249.83447                  21317702.8354
        26.0004         26.0004
  23534473.1834   10320581.31645   8042002.85245                  23534480.6874
        11.7504         10.2504
  21646209.6904  -14088104.49947 -10977740.33846                  21646216.5504
        23.5004         21.7504
  21506421.5424   -1926448.93548  -1501132.89647                  21506428.0694
        30.5004         27.5004
  24396647.9014   -1556197.91645  -1160008.79545                  24396658.1244
         7.7504          8.7504
  20135085.8084  -12675236.82448  -9876803.40147                  20135092.2304
        29.5004         26.5004
  23930723.7924   -3508711.76346  -2570555.95145                  23930731.3784
        13.0004         10.2504
 98  6 17 16 26 59.9990000  0  9G10G 4G 5G 7G 8G 9G16G24G30
  24513666.3084     -82098.47044
         6.5004
  20813257.7764   -1236931.81848   -963843.51547                  20813263.6474
        29.2504         27.7504
  21310207.3004  -15122695.58247 -11783915.77147                  21310213.8744
        26.0004         26.0004
  23539808.5894   10348616.77045   8063848.64845                  23539816.3974
        11.2504         10.2504
  21642389.2064  -14108182.31447 -10993385.38746                  21642395.9214
        23.5004         22.0004
  21509410.7144   -1910740.72548  -1488892.75447                  21509417.3004
        31.0004         27.5004
  24397357.4174   -1552472.41245  -1157105.78945                  24397366.9604
         8.0004          8.2504
  20131813.4254  -12692432.53248  -9890202.64847                  20131819.9054
        30.0004         26.7504
  23920268.5584   -3563653.09646  -2613367.37645                  23920276.1554
        12.2504         10.5004
 98  6 17 16 27 14.9990000  0  9G10G 4G 5G 7G 8G 9G16G24G30
  24503469.1124    -135681.88943
         5.7504
  20816797.2064   -1218331.84248   -949350.03847                  20816803.0654
        28.7504         27.5004
  21302726.3314  -15162008.42047 -11814549.14347                  21302733.0344
        26.5004         25.7504
  23545142.8554   10376649.09745   8085691.99645                  23545151.2494
        10.5004         10.7504
  21638595.4644  -14128116.31947 -11008918.37146                  21638602.5114
        24.0004         22.0004
  21512419.9874   -1894926.91548  -1476570.32947                  21512426.5034
        31.2504         27.5004
  24398085.8944   -1548639.59945  -1154119.20645                  24398094.1594
         8.2504          9.2504
  20128564.0654  -12709509.31048  -9903509.22147                  20128570.3584
        30.2504         26.7504
  23909813.3314   -3618596.76045  -2656180.58245                  23909819.7304
        11.2504         10.2504
 98  6 17 16 27 29.9990000  0  9G10G 4G 5G 7G 8G 9G16G24G30
  24493267.8554    -189290.02643
         5.5004
  20820357.6364   -1199621.96548   -934770.92547                  20820363.4254
        28.7504         27.7504
  21295255.4484  -15201268.05947 -11845141.07147                  21295261.6944
        26.7504         25.7504
  23550477.6204   10404685.27045   8107538.31045                  23550486.6124
        10.7504         10.5004
  21634830.8084  -14147901.64547 -11024335.51146                  21634838.0544
        24.2504         22.2504
  21515451.1054   -1878997.99148  -1464158.19547                  21515457.7264
        31.5004         27.5004
  24398837.5894   -1544692.04345  -1151043.17945                  24398846.4764
         8.7504          9.2504
  20125338.7694  -12726458.09548  -9916716.06447                  20125345.0854
        30.5004         27.2504
  23899359.6284   -3673532.08945  -2698987.31645                  23899366.5814
        11.5004         10.5004
 98  6 17 16 27 44.9990000  0  9G10G 4G 5G 7G 8G 9G16G24G30
  24483058.6904    -242940.94644
         6.2504
  20823935.2144   -1180820.46648   -920120.41347                  20823941.1674
        28.2504         27.7504
  21287792.3004  -15240487.22647 -11875701.46046                  21287798.6754
        26.7504         25.5004
  23555810.8784   10432710.21545   8129375.90545                  23555819.3784
        10.7504         10.7504
  21631090.3944  -14167557.29547 -11039651.59746                  21631097.1794
        24.5004         22.0004
  21518500.0584   -1862975.75648  -1451673.35047                  21518506.7844
        31.2504         27.0004
  24399607.5114   -1540648.76745  -1147892.58745                  24399617.0424
         8.7504          9.0004
  20122134.3944  -12743295.91448  -9929836.43947                  20122140.8744
        30.7504         27.5004
  23888904.7144   -3728474.38645  -2741799.49645                  23888911.7024
        11.0004         11.2504
 98  6 17 16 27 59.9990000  0  9G10G 4G 5G 7G 8G 9G16G24G30
  24472840.5974    -296637.22144    -19527.47555                  24472852.4254
         6.5004          9.0004
  20827530.9874   -1161925.73548   -905397.25447                  20827536.9524
        28.2504         27.7504
  21280336.6594  -15279666.38147 -11906230.65846                  21280343.0114
        26.7504         25.5004
  23561141.0814   10460719.51245   8151201.29645                  23561150.0384
        10.7504         11.2504
  21627374.4874  -14187084.68047 -11054867.73346                  21627380.9334
        24.7504         22.2504
  21521566.4724   -1846861.40748  -1439116.72847                  21521573.3044
        31.5004         27.0004
  24400394.7224   -1536510.38045  -1144667.85445                  24400401.4014
         9.5004          8.7504
  20118951.7374  -12760021.71448  -9942869.52547                  20118958.3354
        30.7504         27.5004
  23878448.1834   -3783425.47745  -2784618.48345                  23878455.8394
        11.2504         11.7504
 98  6 17 16 28 14.9990000  0  9G10G 4G 5G 7G 8G 9G16G24G30
  24462615.2064    -350369.82244    -61396.97545                  24462627.2334
         6.5004          9.2504
  20831146.7694   -1142924.99148   -890591.48947                  20831152.6634
        28.0004         27.7504
  21272891.0194  -15318793.90147 -11936719.62547                  21272897.4644
        26.7504         25.7504
  23566469.1364   10488718.95345   8173018.99145                  23566478.0694
        11.0004         11.7504
  21623685.0194  -14206472.79847 -11069975.35646                  21623691.6984
        24.7504         22.0004
  21524652.4484   -1830644.15948  -1426479.92647                  21524659.0224
        31.5004         27.0004
  24401203.0814   -1532261.59245  -1141357.10745                  24401209.8314
         8.2504          8.5004
  20115792.2454  -12776624.00248  -9955806.36647                  20115798.7964
        31.5004         28.0004
  23867990.9644   -3838376.50445  -2827437.44045                  23867998.8194
        10.5004         11.2504
 98  6 17 16 28 29.9990000  0  9G10G 4G 5G 7G 8G 9G16G24G30
  24452383.9724    -404139.36945   -103295.25145                  24452395.4374
         8.0004          9.7504
  20834782.7844   -1123817.46148   -875702.50947                  20834788.7374
        28.2504         28.2504
  21265455.3154  -15357868.80147 -11967167.59347                  21265461.9374
        27.0004         25.7504
  23571794.5424   10516703.05545   8194824.75545                  23571803.1594
        10.7504         11.2504
  21620021.3624  -14225725.79247 -11084977.68546                  21620028.1714
        24.7504         21.7504
  21527757.5034   -1814327.73148  -1413765.83847                  21527764.0774
        31.0004         26.7504
  24402032.4334   -1527904.36545  -1137961.86045                  24402040.8514
         8.2504          8.5004
  20112655.4484  -12793108.63548  -9968651.52747                  20112662.2104
        31.5004         28.2504
  23857533.3554   -3893332.15145  -2870259.99445                  23857541.8194
        10.7504         11.2504
 98  6 17 16 28 44.9990000  0  9G10G 4G 5G 7G 8G 9G16G24G30
  24442146.7224    -457938.66145   -145216.72545                  24442158.5974
         8.0004         10.0004
  20838440.0814   -1104598.41448   -860726.63847                  20838446.2224
        28.2504         28.7504
  21258030.5814  -15396885.61147 -11997570.29147                  21258037.0624
        27.0004         25.7504
  23577117.9174   10544678.86745   8216624.05845                  23577126.6634
        10.2504         11.0004
  21616384.3784  -14244838.38347 -11099870.61546                  21616391.0694
        24.7504         21.7504
  21530882.5814   -1797905.18648  -1400969.06247                  21530889.2494
        30.7504         26.5004
  24402884.1124   -1523429.27045  -1134474.76745                  24402891.3474
         8.5004          8.0004
  20109541.5734  -12809471.64848  -9981401.92347                  20109548.1014
        32.0004         28.0004
  23847076.1984   -3948285.62845  -2913080.83645                  23847084.9914
        11.0004         11.0004
 98  6 17 16 28 59.9990000  0  9G10G 4G 5G 7G 8G 9G16G24G30
  24431902.4334    -511767.53945   -187161.22445                  24431913.7574
         8.2504         10.5004
  20842118.3704   -1085269.49848   -845665.15647                  20842124.3824
        28.5004         29.0004
  21250616.5424  -15435846.93347 -12027929.75047                  21250622.9764
        27.7504         25.7504
  23582439.3154   10572644.06745   8238415.10445                  23582448.5544
         9.7504         11.2504
  21612773.2224  -14263814.82347 -11114657.45346                  21612779.2924
        25.2504         21.5004
  21534027.4404   -1781378.78848  -1388091.36447                  21534034.1084
        30.5004         26.2504
  24403757.7224   -1518836.56445  -1130896.06145                  24403765.4254
         8.0004          8.2504
  20106450.2144  -12825716.96748  -9994060.60747                  20106456.6834
        31.7504         28.5004
  23836618.6904   -4003240.62145  -2955902.88645                  23836626.6164
        11.7504         11.5004
 98  6 17 16 29 14.9990000  0  9G10G 4G 5G 7G 8G 9G16G24G30
  24421653.9564    -565624.06645   -229127.25345                  24421665.2224
         9.2504         11.0004
  20845818.5114   -1065824.95148   -830513.56647                  20845824.6054
        29.5004         29.2504
  21243213.2844  -15474751.25147 -12058244.79247                  21243219.5304
        27.5004         25.7504
  23587759.3624   10600602.60745   8260200.94645                  23587768.7534
         9.5004         10.7504
  21609188.1834  -14282654.27747 -11129337.54946                  21609194.4054
        25.5004         21.7504
  21537192.5814   -1764744.65848  -1375129.71447                  21537198.9804
        30.2504         25.7504
  24404654.9564   -1514121.27744  -1127221.85045                  24404664.4874
         6.7504          8.2504
  20103381.9174  -12841841.01148 -10006624.79647                  20103388.5034
        32.0004         28.5004
  23826160.3084   -4058196.85346  -2998725.89946                  23826169.3124
        12.2504         12.0004
 98  6 17 16 29 29.9990000  0  9G10G 4G 5G 7G 8G 9G16G24G30
  24411398.7304    -619516.29545   -271121.15145                  24411410.2884
         9.2504         11.2504
  20849539.7454   -1046269.58748   -815275.63147                  20849545.7334
        30.0004         29.7504
  21235820.5264  -15513601.26847 -12088517.52346                  21235826.7614
        27.5004         25.5004
  23593077.5114   10628550.38445   8281978.39845                  23593086.1164
         8.2504         10.2504
  21605628.3474  -14301362.79447 -11143915.60546                  21605634.6984
        25.7504         22.0004
  21540377.4954   -1748008.57848  -1362088.62247                  21540383.9764
        30.5004         26.0004
  24405574.9094   -1509287.37945  -1123455.14245                  24405585.5544
         7.5004          8.5004
  20100335.7374  -12857848.79848 -10019098.39147                  20100342.2184
        32.2504         28.7504
  23815701.2064   -4113163.28045  -3041556.81945                  23815710.2104
        11.5004         11.5004
 98  6 17 16 29 44.9990000  0  9G10G 4G 5G 7G 8G 9G16G24G30
  24401134.7694    -673454.23845   -313150.66745                  24401146.9134
         9.0004         11.5004
  20853280.3154   -1026614.03448   -799959.62947                  20853286.3154
        30.0004         30.0004
  21228436.4484  -15552404.33548 -12118753.66846                  21228442.6014
        28.0004         25.5004
  23598393.0264   10656482.06045   8303743.30145                  23598402.2764
         8.2504         10.0004
  21602091.5034  -14319947.80747 -11158397.43446                  21602097.9604
        25.2504         22.0004
  21543580.2614   -1731179.09948  -1348974.76047                  21543586.8584
        30.7504         25.7504
  24406515.3234   -1504343.26144  -1119602.59945                  24406522.0264
         7.0004          8.7504
  20097310.0814  -12873748.14248 -10031487.48947                  20097316.8084
        32.2504         28.7504
  23805237.4014   -4168150.72245  -3084404.13345                  23805244.6594
        11.7504         11.5004
 98  6 17 16 29 59.9990000  0  9G10G 4G 5G 7G 8G 9G16G24G30
  24390863.6754    -727428.01245   -355208.06645                  24390876.3234
         8.7504         11.2504
  20857041.0114   -1006850.74948   -784559.67147                  20857046.9764
        30.5004         29.7504
  21221063.0504  -15591152.36847 -12148946.92646                  21221069.2964
        27.7504         25.5004
  23603706.8394   10684405.43045   8325501.75445                  23603716.2884
         8.7504          9.7504
  21598580.3704  -14338398.54647 -11172774.63446                  21598586.8274
        25.0004         21.7504
  21546802.8154   -1714243.59648  -1335778.27446                  21546809.3554
        30.2504         25.5004
  24407479.4334   -1499277.15445  -1115655.01445                  24407486.0544
         7.5004          7.7504
  20094307.3394  -12889528.93448 -10043784.20447                  20094313.7614
        32.5004         29.0004
  23794771.0654   -4223149.94146  -3127260.63245                  23794779.0034
        12.2504         11.7504
 98  6 17 16 30 14.9990000  0  9G10G 4G 5G 7G 8G 9G16G24G30
  24380586.2374    -781437.31345   -397293.17945                  24380597.8784
         9.5004         11.7504
  20860822.3704    -986979.18648   -769075.34847                  20860828.3944
        30.5004         30.2504
  21213699.7224  -15629846.23848 -12179097.97946                  21213705.9564
        28.0004         25.5004
  23609018.6284   10712320.13945   8347253.45245                  23609028.5344
         8.0004          9.5004
  21595095.4724  -14356712.75247 -11187045.44246                  21595102.0464
        24.7504         21.7504
  21550046.1444   -1697198.09348  -1322496.07246                  21550052.8474
        29.7504         25.2504
  24408467.3864   -1494084.41845  -1111608.73945                  24408477.3274
         7.7504          8.2504
  20091327.0584  -12905190.42348 -10055987.95847                  20091333.6204
        30.2504         29.2504
  23784303.0974   -4278160.32946  -3170125.83345                  23784310.2024
        12.5004         11.5004
 98  6 17 16 30 29.9990000  0  9G10G 4G 5G 7G 8G 9G16G24G30
  24370301.1054    -835483.25545   -439406.82245                  24370312.6164
         9.5004         11.2504
  20864623.0504    -967006.12048   -753511.93147                  20864629.0154
        30.7504         30.0004
  21206346.1674  -15668489.83648 -12209209.86846                  21206352.2144
        28.0004         25.2504
  23614329.0814   10740225.77045   8368998.05145                  23614338.1324
         8.0004          9.5004
  21591634.9804  -14374896.54947 -11201214.63246                  21591641.5544
        24.2504         21.7504
  21553310.0344   -1680047.13048  -1309131.69246                  21553316.8194
        29.5004         25.2504
  24409479.2304   -1488770.60145  -1107468.11445                  24409487.5304
         7.7504          8.0004
  20088368.2374  -12920738.29948 -10068103.18547                  20088374.7064
        32.2504         29.2504
  23773832.2304   -4333184.38546  -3213001.67445                  23773840.0264
        12.7504         11.0004
 98  6 17 16 30 44.9990000  0  9G10G 4G 5G 7G 8G 9G16G24G30
  24360010.7764    -889562.12745   -481546.15545                  24360021.9254
         9.5004         11.5004
  20868443.1284    -946933.04148   -737870.58647                  20868449.0934
        30.7504         30.0004
  21199002.3314  -15707081.70548 -12239281.43846                  21199008.3664
        28.0004         25.5004
  23619638.9724   10768127.82345   8390739.86045                  23619648.3864
         8.7504          9.7504
  21588200.0424  -14392946.75347 -11215279.73046                  21588206.9484
        24.5004         21.7504
  21556594.5264   -1662788.25448  -1295683.22846                  21556601.3704
        29.0004         24.7504
  24410513.4334   -1483335.38645  -1103232.89045                  24410522.3434
         8.0004          7.5004
  20085432.3084  -12936167.14148 -10080125.65547                  20085438.6714
        31.7504         29.2504
  23763359.1204   -4388217.79045  -3255884.86645                  23763367.6204
        11.5004         11.5004
 98  6 17 16 30 59.9990000  0  9G10G 4G 5G 7G 8G 9G16G24G30
  24349715.2224    -943667.43445   -523706.08346                  24349726.3234
         9.5004         12.0004
  20872282.7844    -926755.23048   -722147.62547                  20872288.8434
        30.2504         30.0004
  21191670.0974  -15745613.18547 -12269305.95646                  21191676.0624
        27.7504         25.2504
  23624948.3314   10796031.90645   8412483.25845                  23624956.1514
         8.2504          9.2504
  21584792.1514  -14410856.52347 -11229235.39846                  21584798.8664
        24.5004         21.7504
  21559900.5654   -1645414.87748  -1282145.53246                  21559907.3514
        28.7504         24.7504
  24411571.7064   -1477773.39845  -1098898.90145                  24411579.6204
         8.0004          8.2504
  20082520.8704  -12951466.52348 -10092047.24947                  20082527.2104
        29.7504         29.2504
  23752886.5034   -4443253.93046  -3298770.10045                  23752894.8974
        12.0004         11.2504
 98  6 17 16 31 14.9990000  0  9G10G 4G 5G 7G 8G 9G16G24G30
  24339411.3394    -997810.74745   -565895.60645                  24339423.0034
         8.7504         10.7504
  20876140.1054    -906484.02648   -706351.89047                  20876146.0814
        30.2504         29.5004
  21184347.8624  -15784092.23148 -12299289.61846                  21184353.9444
        28.2504         25.5004
  23630256.8234   10823924.21145   8434217.50645                  23630264.6904
         9.2504          9.7504
  21581408.5974  -14428636.13947 -11243089.64246                  21581415.0774
        24.5004         21.7504
  21563226.4094   -1627937.65748  -1268526.91146                  21563233.1594
        29.0004         24.5004
  24412651.7144   -1472098.69145  -1094477.06045                  24412659.5224
         8.7504          8.0004
  20079632.6514  -12966644.53848 -10103874.27347                  20079638.9094
        29.7504         29.7504
  23742410.0654   -4498304.58145  -3341666.67345                  23742419.3864
        11.7504         11.5004
 98  6 17 16 31 29.9990000  0  9G10G 4G 5G 7G 8G 9G16G24G30
  24329100.9724   -1051989.58045   -608112.81745                  24329111.9444
         8.0004         10.7504
  20880015.7304    -886117.83248   -690482.14047                  20880021.8474
        29.7504         29.0004
  21177036.1364  -15822513.44748 -12329228.21646                  21177042.2184
        28.2504         25.2504
  23635563.0734   10851808.31545   8455945.32745                  23635570.4724
         9.5004         10.2504
  21578051.4014  -14446276.68747 -11256835.52246                  21578058.1754
        24.2504         21.7504
  21566572.8624   -1610350.81948  -1254822.87546                  21566579.3434
        29.0004         24.5004
  24413753.3704   -1466306.69645  -1089963.77645                  24413762.6444
         7.7504          8.5004
  20076768.3784  -12981696.15947 -10115602.80347                  20076774.5654
        27.5004         29.7504
  23731932.9014   -4553364.26546  -3384570.30045                  23731941.7764
        12.5004         11.7504
 98  6 17 16 31 44.9990000  0  9G10G 4G 5G 7G 8G 9G16G24G30
  24318784.2144   -1106209.16645   -650361.81045                  24318794.6714
         7.7504         10.5004
  20883907.2844    -865667.28248   -674546.65147                  20883913.2614
        29.7504         28.7504
  21169734.2064  -15860886.27348 -12359129.10647                  21169740.4874
        28.2504         25.7504
  23640865.4954   10879671.01845   8477656.46045                  23640873.7494
        10.2504         10.2504
  21574719.8944  -14463786.55347 -11270479.58246                  21574726.7534
        23.5004         21.7504
  21569938.6674   -1592662.94748  -1241040.11746                  21569945.2764
        29.2504         24.5004
  24414876.6594   -1460405.61345  -1085365.56245                  24414885.4054
         8.0004          7.7504
  20073926.7694  -12996629.68847 -10127239.31647                  20073932.9094
        27.7504         29.7504
  23721452.1054   -4608440.59946  -3427486.89446                  23721460.3824
        12.7504         12.0004
 98  6 17 16 31 59.9990000  0  9G10G 4G 5G 7G 8G 9G16G24G30
  24308459.7764   -1160461.97345   -692636.63945                  24308470.6204
         7.5004         10.2504
  20887815.7224    -845127.60348   -658541.71747                  20887821.6514
        30.0004         28.2504
  21162441.7374  -15899207.70248 -12388989.94447                  21162448.1244
        28.2504         26.0004
  23646163.7304   10907516.67245   8499354.36545                  23646173.1554
         9.7504         11.0004
  21571414.2534  -14481156.94147 -11284014.94446                  21571421.3584
        23.7504         22.0004
  21573325.1984   -1574868.57348  -1227174.37246                  21573331.7724
        29.7504         24.2504
  24416020.8234   -1454390.17044  -1080678.22845                  24416029.7224
         7.0004          7.7504
  20071108.4014  -13011440.36148 -10138780.09847                  20071114.6244
        29.5004         30.0004
  23710970.3474   -4663525.43746  -3470410.12245                  23710979.4214
        12.5004         11.7504
 98  6 17 16 32 14.9990000  0  9G10G 4G 5G 7G 8G 9G16G24G30
  24298129.2844   -1214749.02244   -734938.15345                  24298141.9334
         6.7504         10.0004
  20891741.5894    -824497.89148   -642466.62447                  20891747.5894
        29.5004         28.0004
  21155158.8554  -15937480.32447 -12418812.75947                  21155165.0304
        27.7504         26.2504
  23651459.0584   10935342.93745   8521037.14045                  23651467.6164
         9.7504         10.7504
  21568135.6834  -14498388.70947 -11297442.30246                  21568142.8124
        24.0004         22.2504
  21576730.8624   -1556971.32848  -1213228.46246                  21576737.0384
        30.0004         24.2504
  24417187.7454   -1448260.26245  -1075901.68745                  24417200.8744
         7.5004          8.2504
  20068312.6204  -13026131.44347 -10150227.69247                  20068318.9834
        26.7504         30.0004
  23700486.1054   -4718619.33646  -3513340.39946                  23700494.4054
        13.0004         12.0004
 98  6 17 16 32 29.9990000  0  9G10G 4G 5G 7G 8G 9G16G24G30
  24287790.6754   -1269077.67444   -777272.12345                  24287802.5384
         6.7504          9.2504
  20895682.7374    -803786.69948   -626328.04247                  20895688.6204
        29.5004         27.5004
  21147883.2694  -15975714.03448 -12448605.24747                  21147889.5734
        28.0004         26.2504
  23656748.5894   10963140.06945   8542697.20245                  23656757.5114
         9.2504         11.2504
  21564880.4874  -14515492.62647 -11310770.02646                  21564887.4644
        24.0004         22.2504
  21580153.6904   -1538984.77848  -1199212.98046                  21580159.6674
        30.2504         24.0004
  24418373.6364   -1442029.44744  -1071046.56345                  24418384.6554
         7.2504          7.5004
  20065537.1284  -13040715.86748 -10161592.17347                  20065543.3744
        28.0004         30.2504
  23689997.9644   -4773734.57646  -3556287.31945                  23690006.0774
        13.7504         11.2504
 98  6 17 16 32 44.9990000  0  9G10G 4G 5G 7G 8G 9G16G24G30
  24277445.6444   -1323442.25344   -819634.10845                  24277456.6984
         6.2504          8.7504
  20899640.2144    -782989.80648   -610122.68047                  20899646.1554
        29.2504         27.2504
  21140615.5504  -16013905.41448 -12478364.75347                  21140621.7724
        28.0004         26.0004
  23662034.0654   10990911.78845   8564337.46345                  23662041.9684
         9.7504         11.0004
  21561651.3004  -14532462.62047 -11323993.40746                  21561658.0034
        24.0004         22.0004
  21583593.5264   -1520907.61148  -1185126.87946                  21583599.6444
        30.0004         24.2504
  24419578.4644   -1435695.60144  -1066111.14545                  24419588.1474
         7.0004          7.5004
  20062783.3704  -13055187.80647 -10172869.00447                  20062789.6404
        26.5004         30.2504
  23679506.7924   -4828867.21746  -3599247.77645                  23679513.9444
        14.2504         11.2504
 98  6 17 16 32 59.9990000  0  9G10G 4G 5G 7G 8G 9G16G24G30
  24267093.3004   -1377844.55144   -862025.45245                  24267103.4994
         6.2504          8.5004
  20903614.4804    -762105.16148   -593848.94147                  20903620.4564
        29.5004         27.0004
  21133356.3084  -16052053.48048 -12508090.50547                  21133362.4604
        28.5004         26.2504
  23667313.0734   11018657.21645   8585957.24145                  23667320.6714
         9.5004         10.5004
  21558447.8474  -14549295.60547 -11337110.01746                  21558454.6444
        24.2504         22.2504
  21587050.6204   -1502739.99648  -1170970.30146                  21587056.7024
        30.2504         24.5004
  24420803.6984   -1429257.23544  -1061094.19345                  24420812.4214
         6.7504          7.5004
  20060051.2454  -13069545.66747 -10184056.94647                  20060057.5974
        25.7504         30.2504
  23669012.6514   -4884014.87746  -3642219.96745                  23669020.4604
        14.0004         11.2504
 98  6 17 16 33 14.9990000  0  9G10G 4G 5G 7G 8G 9G16G24G30
  24256733.7534   -1432280.05243   -904442.69045                  24256743.5544
         5.2504          7.7504
  20907606.5584    -741126.69948   -577502.09847                  20907612.5114
        29.2504         26.5004
  21126106.1674  -16090152.65048 -12537778.16647                  21126112.2964
        28.7504         26.0004
  23672588.8394   11046380.72745   8607559.95545                  23672596.4724
         9.5004         10.7504
  21555271.7844  -14565986.56447 -11350115.96246                  21555278.3354
        24.2504         22.2504
  21590525.9334   -1484476.72148  -1156739.18646                  21590532.1204
        30.2504         24.7504
  24422049.7924   -1422710.46844  -1055992.85945                  24422059.4404
         6.7504          7.7504
  20057341.1514  -13083786.59447 -10195153.76747                  20057347.5264
        24.0004         30.5004
  23658516.4954   -4939171.85346  -3685199.37845                  23658522.5304
        14.2504         10.7504
 98  6 17 16 33 29.9990000  0  9G10G 4G 5G 7G 8G 9G16G24G30
  24246367.7764   -1486753.53842   -946889.43945                  24246379.8274
         4.5004          7.5004
  20911615.5734    -720058.63448   -561085.43847                  20911621.5034
        29.0004         26.2504
  21118863.6444  -16128212.88448 -12567435.48347                  21118869.6324
        29.0004         26.2504
  23677860.6124   11074080.13145   8629143.86645                  23677869.5344
         9.7504         10.5004
  21552121.6594  -14582539.28047 -11363014.19046                  21552128.5034
        24.5004         22.5004
  21594018.7454   -1466122.45048  -1142437.15846                  21594025.1904
        30.2504         24.7504
  24423315.1754   -1416060.03044  -1050810.66445                  24423326.5934
         6.5004          7.0004
  20054652.1904  -13097918.33447 -10206165.50847                  20054658.5424
        22.0004         30.0004
  23648017.9954   -4994339.58946  -3728187.20645                  23648024.4174
        14.0004         10.2504
 98  6 17 16 33 44.9990000  0  9G10G 4G 5G 7G 8G 9G16G24G30
  24235994.5894   -1541264.07242   -989365.15745                  24236005.5624
         4.7504          7.0004
  20915642.3394    -698899.01848   -544597.43547                  20915648.3394
        29.2504         26.2504
  21111627.6364  -16166238.69548 -12597065.97847                  21111633.6944
        29.0004         26.2504
  23683126.7144   11101755.15745   8650708.78145                  23683134.6514
        10.5004         10.7504
  21548997.8314  -14598955.69047 -11375806.19646                  21549004.7964
        24.2504         22.7504
  21597528.2534   -1447680.98848  -1128067.18146                  21597535.0854
        30.2504         25.0004
  24424602.7224   -1409303.56145  -1045545.92645                  24424614.5264
         7.5004          6.7504
  20051983.3864  -13111941.93247 -10217092.98147                  20051989.7964
        26.7504         30.0004
  23637517.6204   -5049518.16246  -3771183.44945                  23637524.5734
        13.2504         10.2504
 98  6 17 16 33 59.9990000  0  9G10G 4G 5G 7G 8G 9G16G24G30
  24225613.6754   -1595808.29742  -1031867.11445                  24225623.0304
         4.5004          6.5004
  20919686.8084    -677644.86348   -528035.76747                  20919692.7144
        30.0004         26.2504
  21104397.8944  -16204231.47248 -12626670.73247                  21104403.9874
        28.7504         26.5004
  23688389.6204   11129410.52945   8672258.38645                  23688396.7144
        10.7504         10.7504
  21545900.0814  -14615234.06747 -11388490.64946                  21545907.1984
        24.2504         22.7504
  21601054.2764   -1429152.09148  -1113629.07446                  21601061.1474
        30.0004         25.2504
  24425907.7224   -1402439.48845  -1040197.33045                  24425916.2104
         7.7504          8.0004
  20049335.5424  -13125857.07748 -10227935.94747                  20049341.8704
        31.2504         30.2504
  23627016.0114   -5104706.12946  -3814187.04145                  23627022.9174
        12.7504         10.5004
 98  6 17 16 34 14.9990000  0  9G10G 4G 5G 7G 8G 9G16G24G30
  24215227.7844   -1650392.92342  -1074400.57345                  24215244.9444
         4.5004          5.7504
  20923748.5814    -656300.93548   -511404.14747                  20923754.4404
        30.2504         26.2504
  21097173.6904  -16242195.25348 -12656252.88847                  21097179.9484
        29.2504         26.2504
  23693647.6444   11157044.33945   8693791.22045                  23693656.0854
        10.5004         10.2504
  21542828.0504  -14631378.60447 -11401070.80846                  21542835.0384
        24.5004         23.0004
  21604595.4404   -1410541.36748  -1099127.21646                  21604602.4404
        29.7504         25.2504
  24427233.7844   -1395471.91345  -1034768.02545                  24427242.1904
         8.0004          8.0004
  20046707.0264  -13139668.33648 -10238697.95547                  20046713.3664
        32.0004         30.0004
  23616511.4874   -5159907.56646  -3857201.08945                  23616518.5814
        12.7504         10.5004
 98  6 17 16 34 29.9990000  0  9G10G 4G 5G 7G 8G 9G16G24G30
  24204833.3004   -1705013.41342  -1116961.92445                  24204845.0224
         4.0004          6.5004
  20927827.9174    -634863.87048   -494699.95247                  20927833.9294
        30.0004         26.2504
  21089955.9484  -16280124.66048 -12685808.26147                  21089962.1944
        28.7504         26.2504
  23698902.6124   11184657.87145   8715308.20245                  23698910.0814
        10.7504         10.7504
  21539781.3394  -14647388.57447 -11413546.11446                  21539788.2804
        24.5004         23.2504
  21608153.3084   -1391844.88948  -1084558.53346                  21608160.4374
        29.5004         25.2504
  24428580.0344   -1388398.13945  -1029256.02945                  24428587.3514
         8.0004          8.0004
  20044099.7224  -13153371.43848 -10249375.69047                  20044106.2374
        31.5004         30.0004
  23606004.5974   -5215120.24146  -3900223.91845                  23606011.0074
        12.2504         10.0004
 98  6 17 16 34 44.9990000  0  9G10G 4G 5G 7G 8G 9G16G24G30
  24194434.4954   -1759667.56142  -1159549.52845                  24194443.9564
         4.7504          6.7504
  20931925.1204    -613334.05248   -477923.48147                  20931931.0384
        30.2504         26.5004
  21082745.6834  -16318015.08248 -12715333.25747                  21082751.9994
        28.5004         26.2504
  23704154.5114   11212256.40345   8736813.52445                  23704161.5344
        11.0004         10.2504
  21536761.0194  -14663261.27547 -11425914.45146                  21536767.9604
        24.7504         23.2504
  21611728.1284   -1373059.05548  -1069920.21746                  21611735.0224
        29.7504         25.2504
  24429945.6834   -1381216.44644  -1023659.88445                  24429954.9214
         7.2504          7.2504
  20041513.5114  -13166961.60748 -10259965.42547                  20041520.0974
        32.5004         29.7504
  23595496.3624   -5270338.38345  -3943251.02345                  23595503.2334
        11.2504          9.7504
 98  6 17 16 34 59.9990000  0  9G10G 4G 5G 7G 8G 9G16G24G30
  24184027.7144   -1814354.88143  -1202162.95645                  24184040.3864
         5.2504          6.2504
  20936039.6204    -591711.68348   -461074.89847                  20936045.5154
        30.5004         26.7504
  21075542.9334  -16355863.74448 -12744825.71347                  21075548.8974
        28.2504         26.0004
  23709403.7694   11239844.44645   8758310.67245                  23709410.3554
        11.0004          9.2504
  21533767.0504  -14678994.45047 -11438174.07446                  21533774.0154
        25.2504         23.5004
  21615320.5974   -1354180.35848  -1055209.55746                  21615327.0194
        29.7504         24.7504
  24431334.3084   -1373921.50045  -1017975.53145                  24431343.1014
         7.5004          7.5004
  20038949.4094  -13180435.98148 -10270464.93147                  20038955.8314
        32.0004         30.0004
  23584988.8004   -5325557.91745  -3986279.17445                  23584995.0224
        11.5004         10.0004
 98  6 17 16 35 14.9990000  0  9G10G 4G 5G 7G 8G 9G16G24G30
  24173612.4014   -1869083.25343  -1244808.42545                  24173622.6834
         5.7504          6.7504
  20940170.3474    -570004.91848   -444160.55047                  20940175.9604
        31.2504         27.2504
  21068347.7304  -16393674.90448 -12774288.95147                  21068353.6944
        28.0004         26.0004
  23714650.4804   11267413.80345   8779793.26045                  23714657.4804
        10.5004          9.5004
  21530798.0654  -14694597.69047 -11450332.45646                  21530804.9484
        25.2504         23.5004
  21618930.0264   -1335213.12448  -1040429.89746                  21618936.4254
        30.0004         24.7504
  24432742.6444   -1366520.81545  -1012208.79845                  24432752.0584
         9.0004          8.7504
  20036405.4174  -13193805.50248 -10280882.73447                  20036411.8974
        32.2504         29.7504
  23574479.4644   -5380785.02745  -4029313.26045                  23574486.8274
        11.5004         10.2504
 98  6 17 16 35 29.9990000  0  9G10G 4G 5G 7G 8G 9G16G24G30
  24163191.0654   -1923853.59644  -1287486.56045                  24163201.9684
         6.7504          6.7504
  20944316.7064    -548214.94648   -427181.36147                  20944322.5544
        30.7504         27.2504
  21061158.7224  -16431453.34748 -12803726.68947                  21061164.8864
        28.0004         25.7504
  23719892.2454   11294962.89545   8801260.04245                  23719901.4604
         9.7504          9.7504
  21527852.8004  -14710074.64347 -11462392.42246                  21527859.3044
        25.2504         23.5004
  21622556.0114   -1316159.69848  -1025583.08246                  21622562.1984
        30.0004         25.0004
  24434171.1284   -1359016.35345  -1006361.19045                  24434181.1054
         8.5004          8.5004
  20033880.5584  -13207073.21148 -10291221.20047                  20033887.0734
        32.0004         29.5004
  23563968.2144   -5436023.64046  -4072356.31245                  23563975.3314
        12.5004         11.5004
 98  6 17 16 35 44.9990000  0  9G10G 4G 5G 7G 8G 9G16G24G30
  24152762.5344   -1978652.78744  -1330187.19645                  24152774.1754
         7.2504          8.0004
  20948481.5114    -526328.78848   -410127.22447                  20948487.3124
        30.7504         27.2504
  21053978.5814  -16469185.45147 -12833128.32347                  21053984.7104
        27.5004         25.7504
  23725133.8314   11322503.22145   8822719.99045                  23725142.0504
        10.7504          9.7504
  21524933.9014  -14725414.66047 -11474345.69146                  21524940.8194
        25.7504         23.7504
  21626200.0264   -1297009.50948  -1010660.86846                  21626206.1084
        30.0004         24.7504
  24435620.8234   -1351394.73745  -1000422.29345                  24435630.8234
         8.0004          8.5004
  20031377.2844  -13220228.55048 -10301472.10847                  20031383.9764
        32.0004         29.2504
  23553456.0424   -5491265.25346  -4115401.69345                  23553463.3944
        12.7504         11.2504
 98  6 17 16 35 59.9990000  0  9G10G 4G 5G 7G 8G 9G16G24G30
  24142327.9334   -2033486.92544  -1372915.03945                  24142336.6674
         7.2504          8.2504
  20952662.9334    -504355.41948   -393005.12647                  20952668.7694
        30.2504         27.5004
  21046806.9564  -16506872.21547 -12862494.63047                  21046813.1084
        27.2504         25.7504
  23730371.0114   11350025.44145   8844165.82645                  23730378.4334
        10.7504         10.2504
  21522039.3004  -14740625.76047 -11486198.49946                  21522046.2414
        26.0004         23.7504
  21629861.4484   -1277769.45548   -995668.62546                  21629867.4834
        30.5004         25.0004
  24437092.0264   -1343665.17545   -994399.30145                  24437101.8154
         9.0004          9.0004
  20028893.6124  -13233279.46948 -10311641.64447                  20028900.2694
        31.7504         29.0004
  23542941.7454   -5546517.49346  -4158455.34846                  23542948.9444
        12.2504         12.0004
 98  6 17 16 36 14.9990000  0  9G10G 4G 5G 7G 8G 9G16G24G30
  24131887.3154   -2088355.36245  -1415669.65845                  24131898.2304
         7.7504          9.0004
  20956860.8554    -482294.37248   -375814.71047                  20956866.7724
        29.7504         27.5004
  21039645.8394  -16544505.42047 -12891819.20247                  21039651.9214
        27.0004         25.7504
  23735605.3864   11377530.95645   8865598.69045                  23735612.5854
        11.0004         10.2504
  21519169.6674  -14755705.34147 -11497948.82646                  21519176.6904
        26.0004         23.7504
  21633540.3864   -1258436.12348   -980603.70846                  21633546.3864
        30.5004         25.2504
  24438583.4564   -1335827.89245   -988292.34245                  24438594.4874
         8.7504          9.5004
  20026430.5974  -13246224.06848 -10321728.33647                  20026437.0304
        32.0004         29.0004
  23532426.2144   -5601775.27146  -4201513.32346                  23532434.0224
        12.5004         12.0004
 98  6 17 16 36 29.9990000  0  9G10G 4G 5G 7G 8G 9G16G24G30
  24121440.4874   -2143254.60345  -1458448.25745                  24121451.5424
         7.5004          9.0004
  20961076.0734    -460143.51348   -358554.31647                  20961082.0384
        30.2504         28.0004
  21032495.4804  -16582079.93647 -12921098.04447                  21032501.7964
        26.7504         25.7504
  23740836.3084   11405019.07445   8887017.97545                  23740844.5384
        10.5004         10.5004
  21516325.4174  -14770651.32047 -11509595.05346                  21516332.1444
        26.5004         23.7504
  21637237.7534   -1239005.57248   -965463.03547                  21637244.0584
        30.0004         25.7504
  24440096.1674   -1327880.88545   -982099.88745                  24440106.9404
         8.2504          9.2504
  20023988.0114  -13259058.31148 -10331729.04047                  20023994.1874
        31.7504         28.7504
  23521911.3394   -5657034.55246  -4244572.47046                  23521919.1594
        13.0004         12.7504
 98  6 17 16 36 44.9990000  0  9G10G 4G 5G 7G 8G 9G16G24G30
  24110985.8784   -2198187.85744  -1501253.33145                  24110997.6364
         6.7504          9.2504
  20965307.2694    -437908.73248   -341228.51947                  20965313.2224
        29.5004         28.0004
  21025355.2924  -16619600.91947 -12950335.16347                  21025361.6904
        27.0004         26.0004
  23746062.7534   11432486.58445   8908421.17945                  23746071.9334
         9.7504          9.5004
  21513505.9484  -14785468.76247 -11521141.11546                  21513512.6874
        26.2504         23.7504
  21640952.5034   -1219484.92748   -950252.16147                  21640958.8664
        30.5004         26.0004
  24441627.9874   -1319830.38145   -975826.82645                  24441637.7884
         9.5004          9.0004
  20021565.6904  -13271788.23448 -10341648.45047                  20021572.0304
        31.5004         28.5004
  23511393.8474   -5712300.69746  -4287636.98246                  23511400.8824
        13.7504         12.7504
 98  6 17 16 36 59.9990000  0  9G10G 4G 5G 7G 8G 9G16G24G30
  24100526.7764   -2253151.20045  -1544081.85145                  24100538.2184
         7.5004          9.5004
  20969554.5114    -415588.15748   -323835.86647                  20969560.5464
        29.2504         28.0004
  21018225.8864  -16657066.67947 -12979529.26447                  21018232.2724
        27.0004         25.7504
  23751286.8314   11459938.14545   8929811.97545                  23751295.7764
        10.0004          9.7504
  21510711.2694  -14800154.54347 -11532584.58346                  21510718.1514
        26.5004         23.5004
  21644684.2144   -1199873.41548   -934970.48847                  21644690.8584
        30.2504         26.2504
  24443180.7144   -1311672.21445   -969469.81345                  24443189.9524
         9.5004         10.0004
  20019163.4724  -13284411.97048 -10351485.12147                  20019169.5894
        31.2504         28.2504
  23500876.5194   -5767572.45946  -4330705.84946                  23500883.9764
        14.5004         13.7504
 98  6 17 16 37 14.9990000  0  9G10G 4G 5G 7G 8G 9G16G24G30
  24090062.7454   -2308141.51944  -1586931.41745                  24090073.5544
         7.2504         10.0004
  20973818.9094    -393179.40648   -306374.51047                  20973824.9214
        29.0004         28.5004
  21011107.3234  -16694475.51447 -13008679.00047                  21011113.7924
        27.0004         26.0004
  23756507.3624   11487370.20345   8951187.57145                  23756516.8234
         9.0004         10.0004
  21507941.9014  -14814707.80847 -11543924.79546                  21507948.8084
        26.2504         23.2504
  21648433.9014   -1180169.95748   -919617.17047                  21648440.8084
        30.0004         26.7504
  24444753.0734   -1303406.28345   -963028.89045                  24444762.8624
         8.7504          9.7504
  20016781.2304  -13296930.14048 -10361239.53347                  20016787.6514
        31.2504         28.0004
  23490357.2304   -5822850.55146  -4373779.65346                  23490364.9094
        14.5004         13.5004
 98  6 17 16 37 29.9990000  0  9G10G 4G 5G 7G 8G 9G16G24G30
  24079593.5504   -2363157.28444  -1629800.79645                  24079604.9564
         6.7504          9.5004
  20978100.1674    -370681.44248   -288843.63447                  20978106.3664
        28.7504         28.5004
  21003998.9334  -16731829.58747 -13037786.06547                  21004005.2614
        27.0004         26.2504
  23761723.2694   11514781.30745   8972546.84345                  23761733.2924
         8.7504          9.7504
  21505197.2614  -14829129.87647 -11555162.78246                  21505204.1554
        26.2504         23.0004
  21652200.4254   -1160377.60848   -904194.58547                  21652207.2334
        30.0004         26.7504
  24446346.0034   -1295034.51845   -956505.43645                  24446355.3944
         9.0004          9.5004
  20014419.3154  -13309342.12848 -10370911.20447                  20014425.6204
        30.5004         27.7504
  23479837.0504   -5878136.74646  -4416859.75946                  23479844.4834
        14.7504         13.2504
 98  6 17 16 37 44.9990000  0  9G10G 4G 5G 7G 8G 9G16G24G30
  24069120.7304   -2418195.22544  -1672687.47245                  24069132.1944
         6.5004         10.0004
  20982397.9644    -348095.93848   -271244.54447                  20982404.1984
        28.2504         28.5004
  20996901.1054  -16769128.99547 -13066850.53447                  20996907.4334
        27.2504         26.0004
  23766935.6594   11542172.81445   8993890.84245                  23766944.7924
         8.0004          9.2504
  21502478.4404  -14843418.90547 -11566297.09246                  21502485.1904
        26.5004         22.7504
  21655982.8704   -1140500.19848   -888705.71247                  21655989.7144
        30.2504         26.7504
  24447959.6054   -1286555.73245   -949898.64045                  24447969.7334
         9.0004          8.7504
  20012078.1984  -13321645.38448 -10380498.14947                  20012084.4564
        30.0004         27.5004
  23469314.6594   -5933430.05346  -4459945.43946                  23469322.3624
        15.0004         13.7504
 98  6 17 16 37 59.9990000  0  9G10G 4G 5G 7G 8G 9G16G24G30
  24058640.9174   -2473263.93844  -1715598.07845                  24058651.1164
         6.7504          9.5004
  20986710.4724    -325434.06248   -253585.93947                  20986716.7764
        28.0004         28.2504
  20989812.9014  -16806378.20947 -13095875.89147                  20989819.3944
        27.7504         26.2504
  23772142.1124   11569534.03645   9015211.24445                  23772152.6634
         7.5004          9.0004
  21499782.9804  -14857582.79447 -11577333.90046                  21499789.5894
        26.5004         23.0004
  21659779.8784   -1120546.84148   -873157.66647                  21659786.7494
        30.2504         26.7504
  24449591.6984   -1277980.07445   -943216.33145                  24449601.3584
         8.2504          9.2504
  20009756.2454  -13333847.35248 -10390006.16947                  20009762.4684
        29.7504         27.2504
  23458789.9404   -5988737.80846  -4503042.37446                  23458798.4994
        14.0004         13.0004
 98  6 17 16 38 14.9990000  0  9G10G 4G 5G 7G 8G 9G16G24G30
  24048156.8864   -2528356.89844  -1758527.60845                  24048167.2844
         6.5004          9.2504
  20991038.5814    -302688.28847   -235861.96547                  20991045.0974
        27.5004         28.2504
  20982735.5974  -16843569.15848 -13124855.84747                  20982741.9014
        28.0004         26.5004
  23777344.4724   11596875.13645   9036515.96845                  23777355.3864
         7.5004          8.0004
  21497113.8624  -14871610.10447 -11588264.27246                  21497120.7334
        26.5004         22.7504
  21663593.0734   -1100508.45848   -857543.36147                  21663599.7534
        30.7504         27.2504
  24451243.6904   -1269297.57845   -936450.78345                  24451253.0344
         7.7504          8.2504
  20007455.8624  -13345935.37048 -10399425.39947                  20007462.3314
        29.5004         27.2504
  23448264.6834   -6044048.04446  -4546141.21146                  23448273.0654
        14.2504         13.0004
 98  6 17 16 38 29.9990000  0  9G10G 4G 5G 7G 8G 9G16G24G30
  24037668.5114   -2583476.49444  -1801477.85745                  24037679.1204
         6.2504          9.2504
  20995382.1054    -279862.17547   -218075.39147                  20995388.6444
        27.7504         28.2504
  20975668.2534  -16880708.61648 -13153795.67847                  20975674.5814
        28.5004         26.2504
  23782543.6514   11624196.33945   9057805.17145                  23782553.2064
         7.5004          8.2504
  21494469.7694  -14885504.17847 -11599090.82746                  21494476.2964
        26.7504         22.7504
  21667422.3784   -1080386.20648   -841863.69947                  21667429.0814
        31.2504         27.0004
  24452915.5114   -1260510.20744   -929603.52045                  24452925.1364
         7.2504          8.0004
  20005177.5814  -13357909.04948 -10408755.52847                  20005184.0504
        29.0004         27.0004
  23437738.0734   -6099365.56046  -4589245.73046                  23437745.6714
        14.2504         12.7504
 98  6 17 16 38 44.9990000  0  9G10G 4G 5G 7G 8G 9G16G24G30
  24027173.4724   -2638621.77943  -1844448.15645                  24027185.7454
         5.5004          8.7504
  20999741.3234    -256956.08948   -200226.50047                  20999747.6754
        28.2504         28.0004
  20968610.1124  -16917798.55148 -13182696.91647                  20968616.3124
        28.5004         26.5004
  23787739.5504   11651500.63845   9079081.22245                  23787749.2804
         7.5004          8.2504
  21491851.1124  -14899265.70847 -11609814.09646                  21491857.4404
        26.2504         22.7504
  21671267.2844   -1060181.64148   -826119.90847                  21671273.7764
        31.0004         27.2504
  24454607.9014   -1251617.69145   -922674.27545                  24454615.8744
         7.5004          8.0004
  20002920.7764  -13369767.75548 -10417996.07147                  20002927.3154
        29.0004         26.7504
  23427209.5264   -6154693.47846  -4632358.36046                  23427216.7724
        14.2504         12.7504
 98  6 17 16 38 59.9990000  0  9G10G 4G 5G 7G 8G 9G16G24G30
  24016675.1364   -2693792.39543  -1887438.21245                  24016684.4094
         5.0004          9.0004
  21004115.1834    -233970.98348   -182316.02747                  21004121.2654
        28.0004         27.5004
  20961561.7924  -16954838.96348 -13211559.56947                  20961567.9684
        29.0004         26.2504
  23792932.4954   11678788.80845   9100344.68245                  23792940.8904
         7.7504          7.5004
  21489257.2924  -14912896.14747 -11620435.22346                  21489263.4564
        26.5004         22.5004
  21675127.7764   -1039893.99048   -810311.36747                  21675134.5504
        31.2504         27.5004
  24456320.3704   -1242620.46145   -915663.47945                  24456331.0384
         7.7504          8.0004
  20000686.2144  -13381510.62648 -10427146.35747                  20000692.8004
        28.5004         26.5004
  23416678.7144   -6210033.18546  -4675480.19146                  23416686.2414
        14.2504         12.7504
 98  6 17 16 39 14.9990000  0  9G10G 4G 5G 7G 8G 9G16G24G30
  24006171.0034   -2748993.35842  -1930451.86945                  24006183.7224
         4.7504          8.5004
  21008503.6124    -210909.95348   -164346.40347                  21008509.7414
        28.2504         27.7504
  20954522.1514  -16991832.12048 -13240385.39247                  20954528.2104
        29.0004         26.0004
  23798121.4564   11706055.94045   9121591.74845                  23798128.1014
         8.7504          7.5004
  21486687.5424  -14926399.47247 -11630957.30146                  21486693.8944
        26.5004         22.5004
  21679003.7614   -1019524.82948   -794439.31747                  21679010.3354
        31.0004         27.2504
  24458050.4724   -1233523.65244   -908575.09445                  24458058.1404
         7.0004          8.0004
  19998473.0194  -13393140.95048 -10436208.93747                  19998479.5114
        28.5004         26.2504
  23406146.0584   -6265386.15446  -4718612.34746                  23406152.2454
        15.2504         12.5004
 98  6 17 16 39 29.9990000  0  9G10G 4G 5G 7G 8G 9G16G24G30
  23995661.0814   -2804224.84942  -1973489.34745                  23995672.7334
         4.5004          7.2504
  21012906.7534    -187771.85448   -146316.72547                  21012912.6474
        28.7504         27.5004
  20947491.8944  -17028777.17048 -13269173.73247                  20947497.9404
        29.2504         26.2504
  23803306.8084   11733302.35145   9142822.68545                  23803313.3004
         9.2504          8.2504
  21484142.4484  -14939774.07247 -11641379.07546                  21484148.8474
        26.0004         22.5004
  21682895.7844    -999072.50448   -778502.46347                  21682902.3584
        31.0004         27.5004
  24459801.3944   -1224328.16545   -901409.81545                  24459809.3904
         8.0004          8.7504
  19996281.6204  -13404657.03548 -10445182.50047                  19996288.0894
        28.0004         26.0004
  23395610.1054   -6320749.33646  -4761752.47646                  23395616.7264
        14.7504         12.2504
 98  6 17 16 39 44.9990000  0  9G10G 4G 5G 7G 8G 9G16G24G30
  23985144.1124   -2859487.87142  -2016551.33945                  23985156.3514
         4.0004          7.5004
  21017324.0734    -164558.74948   -128228.60247                  21017330.1324
        28.5004         27.5004
  20940470.2924  -17065674.94948 -13297925.23647                  20940476.2924
        29.0004         26.2504
  23808488.1284   11760529.46245   9164038.64145                  23808495.1054
         9.7504          8.7504
  21481622.0654  -14953020.06147 -11651700.62546                  21481628.3584
        26.0004         22.2504
  21686803.2454    -978539.46848   -762502.71447                  21686810.0654
        30.7504         27.7504
  24461570.4094   -1215034.38345   -894167.90945                  24461579.1324
         8.0004          8.5004
  19994111.5034  -13416060.12048 -10454068.01847                  19994118.1594
        28.0004         25.7504
  23385073.2374   -6376121.66246  -4804899.71646                  23385080.2144
        15.2504         12.7504
 98  6 17 16 39 59.9990000  0  9G10G 4G 5G 7G 8G 9G16G24G30
  23974622.0344   -2914775.39742  -2059632.44545                  23974633.9684
         3.7504          6.2504
  21021756.9094    -141263.76748   -110076.67947                  21021762.8044
        29.0004         27.0004
  20933459.8154  -17102515.28248 -13326631.97247                  20933465.6984
        29.0004         25.7504
  23813667.0194   11787746.36445   9185246.54545                  23813675.1904
         9.2504          9.0004
  21479127.6364  -14966127.73547 -11661914.39846                  21479134.1984
        26.0004         22.5004
  21690727.9094    -957915.29048   -746431.94347                  21690734.8154
        30.5004         27.7504
  24463358.5584   -1205634.32345   -886843.17645                  24463367.7144
         7.7504          8.0004
  19991964.3624  -13427343.98347 -10462860.62946                  19991970.7264
        27.7504         25.5004
  23374535.9954   -6431495.86146  -4848048.40646                  23374543.7804
        14.5004         13.2504
 98  6 17 16 40 14.9990000  0  9G10G 4G 5G 7G 8G 9G16G24G30
  23964096.5034   -2970093.23242  -2102737.15745                  23964109.2454
         4.0004          6.7504
  21026204.6204    -117891.43048    -91864.48047                  21026210.4334
        29.0004         27.2504
  20926459.1124  -17139304.13448 -13355298.59647                  20926465.0654
        28.7504         25.7504
  23818843.8234   11814949.40145   9206443.69345                  23818852.3124
         9.5004          8.2504
  21476658.3084  -14979103.34647 -11672025.27546                  21476664.9644
        25.2504         22.2504
  21694669.5654    -937201.20148   -730291.11547                  21694676.5194
        30.5004         27.7504
  24465166.3394   -1196134.29045   -879440.59945                  24465175.1674
         8.5004          9.0004
  19989838.7764  -13438514.25348 -10471564.72946                  19989845.0114
        28.2504         25.5004
  23363997.1054   -6486875.93846  -4891201.68246                  23364004.8664
        14.0004         13.5004
 98  6 17 16 40 29.9990000  0  9G10G 4G 5G 7G 8G 9G16G24G30
  23953563.7304   -3025442.94142  -2145866.71045                  23953574.2104
         4.5004          7.2504
  21030665.7374     -94447.36748    -73596.38947                  21030671.5154
        29.0004         27.0004
  20919466.8864  -17176048.57248 -13383930.61347                  20919472.9444
        28.7504         25.7504
  23824016.6284   11842134.78145   9227627.05745                  23824022.9094
         9.0004          9.0004
  21474213.0974  -14991952.83747 -11682037.86746                  21474220.0624
        24.7504         22.2504
  21698627.9334    -916399.92048   -714082.34347                  21698634.7924
        30.7504         28.0004
  24466992.3394   -1186538.77244   -871963.57045                  24467001.5774
         7.2504          8.7504
  19987733.1834  -13449577.23248 -10480185.22246                  19987739.5584
        29.0004         25.5004
  23353456.7694   -6542266.01746  -4934362.75446                  23353464.6474
        14.2504         13.2504
 98  6 17 16 40 44.9990000  0  9G10G 4G 5G 7G 8G 9G16G24G30
  23943026.5344   -3080817.39642  -2189015.59345                  23943037.3784
         4.7504          7.7504
  21035141.2694     -70928.81948    -55270.26147                  21035147.2224
        28.7504         26.5004
  20912483.6444  -17212744.52248 -13412524.84247                  20912489.7374
        28.5004         25.7504
  23829186.9874   11869305.74845   9248799.19345                  23829193.7494
         9.0004          9.0004
  21471792.5194  -15004673.20547 -11691949.84546                  21471799.5774
        24.2504         22.2504
  21702603.7534    -895507.76948   -697802.76847                  21702610.4914
        30.7504         28.0004
  24468836.9014   -1176843.94344   -864409.17045                  24468846.7024
         6.7504          8.7504
  19985648.7534  -13460532.08548 -10488721.46446                  19985654.9174
        28.7504         25.5004
  23342914.6054   -6597663.73546  -4977529.76146                  23342922.2264
        14.0004         13.0004
 98  6 17 16 40 59.9990000  0  8G 4G 5G 7G 8G 9G16G24G30
  21039631.2374     -47335.39648    -36885.78947                  21039637.1904
        28.5004         26.2504
  20905510.4484  -17249388.50148 -13441078.57947                  20905516.6124
        28.0004         26.0004
  23834354.3624   11896461.13645   9269959.22045                  23834363.2264
         8.7504          8.7504
  21469397.2224  -15017261.75747 -11701759.11646                  21469404.3864
        24.0004         22.2504
  21706596.3474    -874525.77548   -681453.18247                  21706602.9334
        31.0004         27.7504
  24470702.1674   -1167047.12245   -856775.32145                  24470712.4254
         7.5004          8.7504
  19983584.3864  -13471380.91648 -10497175.09646                  19983590.6794
        29.0004         25.5004
  23332371.7534   -6653065.10646  -5020699.65746                  23332379.6444
        13.2504         14.2504
 98  6 17 16 41 14.9990000  0  9G10G 4G 5G 7G 8G 9G16G24G30
  23921938.2764     -29560.99253
         5.5004
  21044134.5194     -23669.14948    -18444.57247                  21044140.4254
        28.7504         26.2504
  20898546.8084  -17285983.94048 -13469594.49547                  20898552.8194
        28.2504         25.7504
  23839518.3554   11923597.21645   9291104.19645                  23839525.9874
         8.7504          8.5004
  21467026.1514  -15029720.47247 -11711467.21546                  21467033.3274
        23.7504         22.2504
  21710605.2534    -853458.57848   -665037.21047                  21710611.7804
        31.0004         27.7504
  24472585.2454   -1157150.10045   -849063.36945                  24472593.5344
         7.7504          9.0004
  19981538.9404  -13482129.12748 -10505550.32046                  19981545.2334
        29.5004         25.5004
  23321829.0504   -6708470.60046  -5063872.71846                  23321837.8314
        12.7504         13.0004
 98  6 17 16 41 29.9990000  0  9G10G 4G 5G 7G 8G 9G16G24G30
  23911385.7144     -85011.35042
         4.5004
  21048652.3234         71.63848        54.73347                  21048658.2534
        28.5004         26.2504
  20891592.2304  -17322529.43048 -13498071.49247                  20891598.4764
        28.2504         26.0004
  23844678.7534   11950713.15145   9312233.46845                  23844688.9644
         8.2504          8.5004
  21464680.3784  -15042047.45347 -11721072.66846                  21464687.5074
        24.2504         22.2504
  21714629.6834    -832309.90348   -648557.75147                  21714636.2334
        30.5004         27.5004
  24474487.6284   -1147152.29244   -841272.88845                  24474496.9604
         7.0004          8.5004
  19979512.7304  -13492778.06748 -10513848.18846                  19979518.9764
        29.7504         25.5004
  23311284.7304   -6763880.11846  -5107048.93846                  23311293.1834
        13.2504         13.2504
 98  6 17 16 41 44.9990000  0  9G10G 4G 5G 7G 8G 9G16G24G30
  23900829.3234    -140485.20942
         4.7504
  21053184.1984      23887.76848     18612.74247                  21053190.1754
        28.2504         26.0004
  20884647.5974  -17359024.37348 -13526509.09447                  20884654.1474
        28.0004         26.5004
  23849835.3004   11977810.76945   9333348.46445                  23849845.0074
         8.0004          8.5004
  21462359.9174  -15054241.26947 -11730574.35346                  21462367.4094
        24.0004         22.5004
  21718669.8944    -811079.23948   -632014.40247                  21718676.4214
        30.2504         27.2504
  24476409.8314   -1137049.81345   -833400.78645                  24476420.5694
         7.5004          8.5004
  19977505.7144  -13503323.76348 -10522065.60647                  19977511.9724
        29.7504         25.7504
  23300740.4724   -6819292.20746  -5150227.15946                  23300748.8084
        14.2504         13.0004
 98  6 17 16 41 59.9990000  0  9G10G 4G 5G 7G 8G 9G16G24G30
  23890266.3004    -195991.23843
         5.0004
  21057728.7534      47769.32747     37221.73747                  21057734.6714
        27.7504         25.7504
  20877710.5034  -17395478.21047 -13554914.67447                  20877716.9604
        27.7504         26.7504
  23854986.3314   12004882.45345   9354443.26345                  23854997.1284
         7.7504          8.5004
  21460063.2534  -15066311.52447 -11739979.75946                  21460070.6634
        24.2504         22.7504
  21722723.7694    -789775.30048   -615413.96447                  21722730.3554
        30.0004         27.5004
  24478350.3704   -1126849.90844   -825452.85745                  24478361.2614
         7.2504          8.2504
  19975516.9174  -13513776.07248 -10530210.25847                  19975523.1634
        30.2504         25.7504
  23290193.2614   -6874717.19946  -5193415.44546                  23290201.5154
        14.5004         13.5004
 98  6 17 16 42 14.9990000  0  9G10G 4G 5G 7G 8G 9G16G24G30
  23879698.2454    -251526.63642
         4.7504
  21062286.7304      71721.78147     55885.97447                  21062292.7184
        27.5004         25.7504
  20870782.1834  -17431887.19047 -13583285.30847                  20870788.7334
        27.2504         26.7504
  23860134.5734   12031932.78045   9375521.37645                  23860144.9724
         8.5004          9.0004
  21457790.4254  -15078254.65047 -11749286.10046                  21457797.7064
        24.5004         23.0004
  21726792.7614    -768393.03548   -598752.49147                  21726799.3124
        30.2504         27.2504
  24480310.8944   -1116549.09545   -817426.29245                  24480320.6474
         7.7504          8.7504
  19973546.9484  -13524127.54148 -10538276.33546                  19973553.2414
        30.7504         25.5004
  23279644.3704   -6930150.48346  -5236610.19746                  23279650.8744
        14.0004         13.2504
 98  6 17 16 42 29.9990000  0  9G10G 4G 5G 7G 8G 9G16G24G30
  23869125.7534    -307084.82242    -20203.08355                  23869135.8234
         4.7504          7.0004
  21066859.4484      95752.68547     74611.34247                  21066865.4834
        27.0004         25.7504
  20863863.4094  -17468245.88747 -13611616.75147                  20863870.1834
        27.5004         27.2504
  23865279.5194   12058967.49945   9396587.38345                  23865288.3944
         8.7504          8.7504
  21455542.9564  -15090065.52047 -11758489.38546                  21455549.7654
        25.0004         23.0004
  21730877.0814    -746930.34348   -582028.33847                  21730883.5504
        29.7504         27.5004
  24482292.1124   -1106139.73145   -809315.06045                  24482300.1554
         8.0004          7.7504
  19971597.6514  -13534371.87548 -10546258.92247                  19971604.0264
        30.7504         25.7504
  23269095.7374   -6985584.52246  -5279805.51946                  23269103.1834
        14.2504         13.0004
 98  6 17 16 42 44.9990000  0  9G10G 4G 5G 7G 8G 9G16G24G30
  23858548.8704    -362673.30143    -63518.68745                  23858562.4214
         5.0004          7.7504
  21071446.9174     119858.51647     93395.09547                  21071452.8584
        27.2504         25.7504
  20856953.1204  -17504559.23348 -13639912.86147                  20856960.0384
        28.0004         27.0004
  23870419.6904   12085980.03945   9417636.09345                  23870428.4014
         8.7504          8.5004
  21453319.8944  -15101747.98647 -11767592.61846                  21453326.6794
        24.7504         23.2504
  21734974.6984    -725397.79748   -565249.75047                  21734981.2494
        29.2504         27.2504
  24484292.4954   -1095624.53444   -801121.41545                  24484300.8434
         7.2504          8.2504
  19969667.3864  -13544514.67948 -10554162.40147                  19969673.5854
        31.2504         26.0004
  23258545.2064   -7041026.61546  -5323007.12246                  23258552.3474
        14.5004         13.5004
 98  6 17 16 42 59.9990000  0  9G10G 4G 5G 7G 8G 9G16G24G30
  23847966.2144    -418286.60743   -106853.64545                  23847978.1834
         5.5004          7.5004
  21076050.6834     144052.06147    112247.20147                  21076056.6714
        27.5004         26.0004
  20850053.4874  -17540817.05748 -13668165.70447                  20850060.1204
        28.0004         27.5004
  23875556.0264   12112977.59445   9438673.09645                  23875564.4684
         8.7504          9.0004
  21451123.3474  -15113291.70347 -11776587.72846                  21451130.0504
        25.5004         23.2504
  21739085.9014    -703792.05548   -548414.13147                  21739092.5934
        29.7504         27.5004
  24486315.7454   -1084994.99145   -792838.68245                  24486323.6714
         8.0004          8.5004
  19967758.5734  -13554546.05748 -10561979.05847                  19967764.8314
        32.0004         26.2504
  23247994.8864   -7096468.38546  -5366208.46746                  23248002.6834
        13.5004         13.2504
 98  6 17 16 43 14.9990000  0  9G10G 4G 5G 7G 8G 9G16G24G30
  23837377.4564    -473928.49744   -150210.93245                  23837386.8474
         6.5004          8.0004
  21080671.1674     168332.29447    131166.85647                  21080677.2264
        27.7504         26.5004
  20843163.7064  -17577023.25548 -13696378.32447                  20843170.2574
        28.0004         27.5004
  23880690.9404   12139956.58945   9459695.64545                  23880698.9254
         9.2504          8.7504
  21448952.1984  -15124700.92447 -11785478.04246                  21448959.1874
        25.5004         23.7504
  21743210.6594    -682117.82348   -531525.13647                  21743217.3864
        29.7504         27.7504
  24488359.0344   -1074255.49244   -784470.24345                  24488368.2724
         6.7504          8.2504
  19965870.3624  -13564468.01348 -10569710.44547                  19965876.5154
        32.0004         26.5004
  23237444.3394   -7151912.00946  -5409411.25446                  23237452.6984
        14.2504         13.5004
 98  6 17 16 43 29.9990000  0  9G10G 4G 5G 7G 8G 9G16G24G30
  23826782.7534    -529600.26144   -193591.42945                  23826792.5074
         6.5004          8.2504
  21085308.2694     192701.73147    150156.01547                  21085314.2454
        27.7504         26.5004
  20836283.6444  -17613179.52448 -13724552.03647                  20836290.1474
        28.5004         27.7504
  23885821.8704   12166917.93345   9480704.48145                  23885830.0544
         9.5004          9.0004
  21446806.5504  -15135975.48247 -11794263.42146                  21446813.4094
        26.2504         24.0004
  21747348.1284    -660374.35448   -514582.19147                  21747355.0114
        29.2504         27.7504
  24490423.4334   -1063408.03244   -776017.70745                  24490430.5264
         7.2504          8.0004
  19964003.5034  -13574278.41848 -10577354.91447                  19964009.6674
        32.2504         26.5004
  23226893.2764   -7207358.01246  -5452615.90946                  23226901.1204
        14.7504         13.7504
 98  6 17 16 43 44.9990000  0  9G10G 4G 5G 7G 8G 9G16G24G30
  23816182.7224    -585305.22244   -236997.84045                  23816192.2064
         6.5004          8.5004
  21089961.1514     217152.14147    169208.26947                  21089967.1634
        27.7504         26.5004
  20829411.9874  -17649290.04148 -13752690.10347                  20829418.3514
        28.7504         27.7504
  23890948.2064   12193855.40045   9501694.66545                  23890956.3084
         9.2504          8.2504
  21444685.6754  -15147120.68547 -11802948.00946                  21444692.8394
        26.5004         24.0004
  21751498.6444    -638562.93848   -497586.30147                  21751505.5974
        29.0004         27.5004
  24492507.5114   -1052458.05045   -767485.30145                  24492517.8044
         7.5004          8.7504
  19962157.5894  -13583978.20048 -10584913.17947                  19962163.9054
        32.2504         26.7504
  23216341.3234   -7262809.75246  -5495825.01546                  23216348.9334
        15.0004         14.0004
 98  6 17 16 43 59.9990000  0  9G10G 4G 5G 7G 8G 9G16G24G30
  23805576.6124    -641043.12644   -280429.95245                  23805585.4874
         6.2504          8.5004
  21094629.0264     241681.95747    188322.40247                  21094635.0034
        27.2504         26.7504
  20822549.1834  -17685354.46648 -13780792.24747                  20822555.3124
        29.0004         27.7504
  23896068.7924   12220768.88945   9522666.14045                  23896075.2374
         9.7504          9.2504
  21442589.0264  -15158138.86347 -11811533.60546                  21442596.0154
        26.5004         24.2504
  21755662.1834    -616682.17248   -480536.37247                  21755669.3824
        28.7504         27.5004
  24494610.8234   -1041405.87045   -758873.20145                  24494618.6904
         8.0004          8.7504
  19960332.5504  -13593570.51548 -10592387.70947                  19960339.0194
        32.0004         26.7504
  23205788.5194   -7318267.22446  -5539038.58446                  23205796.2924
        15.5004         14.0004
 98  6 17 16 44 14.9990000  0  9G10G 4G 5G 7G 8G 9G16G24G30
  23794963.9954    -696807.62644   -323882.73945                  23794974.9804
         6.5004          8.5004
  21099313.3314     266298.15347    207503.83847                  21099319.4954
        27.2504         27.0004
  20815696.4404  -17721365.37748 -13808852.69047                  20815702.6634
        29.0004         28.0004
  23901187.3314   12247662.85545   9543622.41845                  23901193.7414
         9.2504          8.5004
  21440517.7694  -15169023.84847 -11820015.42646                  21440524.9334
        26.7504         24.2504
  21759840.6284    -594726.61048   -463428.16147                  21759847.8274
        29.2504         27.2504
  24496733.6834   -1030247.94644   -750178.72345                  24496742.3354
         7.2504          8.5004
  19958528.5654  -13603049.56048 -10599773.97147                  19958535.1054
        31.5004         27.2504
  23195234.4174   -7373726.47646  -5582253.57546                  23195242.2144
        15.5004         14.0004
 98  6 17 16 44 29.9990000  0  8G10G 4G 5G 7G 8G 9G24G30
  23784348.9254    -752593.57044   -367352.22945                  23784359.5114
         6.7504          8.5004
  21104014.1124     291000.93947    226752.75347                  21104020.1124
        27.2504         26.7504
  20808854.8554  -17757319.06248 -13836868.54547                  20808861.0424
        29.5004         28.0004
  23906300.3944   12274535.08545   9564561.83345                  23906310.4764
         9.5004          9.5004
  21438472.3084  -15179773.85347 -11828392.06646                  21438479.1284
        27.2504         24.2504
  21764033.2224    -572694.37648   -446260.20947                  21764040.1514
        29.5004         27.2504
  19956746.6674  -13612413.61448 -10607070.63547                  19956753.1594
        30.0004         27.2504
  23184681.0264   -7429185.98146  -5625468.73346                  23184688.3664
        15.7504         14.2504
 98  6 17 16 44 44.9990000  0  8G10G 4G 5G 7G 8G 9G24G30
  23773727.8474    -808405.63344   -410842.08045                  23773738.2924
         7.2504          9.0004
  21108730.3784     315783.83347    246064.08547                  21108736.5074
        26.7504         27.0004
  20802023.0584  -17793219.76048 -13864843.11247                  20802029.1874
        29.7504         28.0004
  23911408.6834   12301376.80645   9585477.41445                  23911417.5224
         9.5004          9.7504
  21436451.1284  -15190394.61447 -11836667.99646                  21436457.9134
        27.0004         24.0004
  21768239.6594    -550589.26948   -429035.47947                  21768246.2804
        28.7504         26.5004
  19954984.9484  -13621670.67847 -10614283.92747                  19954991.3354
        26.5004         27.5004
  23174126.0264   -7484651.96446  -5668688.95246                  23174133.2724
        16.0004         14.5004
 98  6 17 16 44 59.9990000  0  8G10G 4G 5G 7G 8G 9G24G30
  23763102.5424    -864242.77945   -454351.49645                  23763114.0894
         7.5004          9.0004
  21113460.9874     340644.28947    265435.85647                  21113467.1984
        27.0004         27.0004
  20795201.6054  -17829066.46448 -13892775.59947                  20795207.7224
        29.5004         28.0004
  23916510.4954   12328187.02245   9606368.45345                  23916518.5384
        10.5004          9.7504
  21434454.3314  -15200887.61047 -11844844.36746                  21434461.0114
        27.0004         24.2504
  21772460.2064    -528408.75348   -411751.99347                  21772466.5464
        29.0004         26.2504
  19953244.2534  -13630819.84947 -10621413.14947                  19953250.6634
        27.0004         27.7504
  23163570.1594   -7540124.96346  -5711914.63546                  23163577.0034
        16.0004         14.2504
 98  6 17 16 45 14.9990000  0  8G10G 4G 5G 7G 8G 9G24G30
  23752475.5114    -920095.47545   -497873.03945                  23752485.9334
         7.5004          9.5004
  21118206.8864     365584.28147    284869.60747                  21118213.0504
        27.2504         27.0004
  20788391.9874  -17864851.52748 -13920660.05647                  20788398.2104
        29.2504         28.0004
  23921607.7064   12354973.66945   9627241.11945                  23921616.4054
        10.0004          9.7504
  21432482.8864  -15211247.15347 -11852916.74746                  21432489.7064
        27.0004         24.0004
  21776697.6754    -506141.89248   -394401.21747                  21776704.0034
        29.0004         26.2504
  19951524.6284  -13639855.29347 -10628453.75347                  19951530.9684
        27.0004         27.7504
  23153014.5034   -7595595.81846  -5755138.66146                  23153022.1474
        16.0004         15.0004
 98  6 17 16 45 29.9990000  0  8G10G 4G 5G 7G 8G 9G24G30
  23741843.3784    -975959.52345   -541403.38545                  23741852.6874
         7.5004          9.0004
  21122967.7534     390602.16247    304364.05147                  21122973.8234
        27.0004         27.2504
  20781594.4874  -17900573.49948 -13948495.35147                  20781600.5814
        29.5004         28.0004
  23926701.8944   12381741.75145   9648099.36145                  23926709.4444
         9.7504         10.2504
  21430537.1284  -15221472.11747 -11860884.26446                  21430543.9724
        26.2504         24.0004
  21780952.6364    -483782.27648   -376978.15047                  21780959.0114
        28.7504         26.2504
  19949826.9254  -13648776.29747 -10635405.18747                  19949833.1714
        22.2504         27.7504
  23142459.5424   -7651062.94246  -5798359.74446                  23142467.2104
        16.5004         15.0004
 98  6 17 16 45 44.9990000  0  8G10G 4G 5G 7G 8G 9G24G30
  23731210.7454   -1031837.30545   -584944.43445                  23731219.5154
         7.7504          8.7504
  21127742.0114     415691.66947    323914.30747                  21127748.3274
        26.7504         27.2504
  20774808.4254  -17936233.54748 -13976282.39047                  20774814.7654
        30.0004         27.7504
  23931789.7614   12408485.55045   9668938.67145                  23931798.0624
         9.2504          9.7504
  21428616.4254  -15231565.64047 -11868749.35946                  21428623.2454
        26.2504         23.5004
  21785224.8474    -461330.86048   -359483.55747                  21785231.3744
        28.5004         26.2504
  19948150.7374  -13657586.05447 -10642269.92747                  19948156.8664
        26.7504         27.7504
  23131903.8554   -7706531.01446  -5841581.58446                  23131911.1714
        16.7504         15.0004
 98  6 17 16 45 59.9990000  0  8G10G 4G 5G 7G 8G 9G24G30
  23720574.8704   -1087728.39745   -628495.90845                  23720585.6794
         7.7504          9.5004
  21132529.6364     440850.65347    343518.70247                  21132535.9404
        27.0004         27.5004
  20768034.5194  -17971830.81048 -14004020.50947                  20768040.6124
        30.0004         27.7504
  23936874.7144   12435203.66445   9689757.93645                  23936884.3274
         9.0004          9.5004
  21426720.3394  -15241530.24847 -11876514.00946                  21426727.1834
        26.0004         23.5004
  21789514.3154    -438790.49748   -341919.66147                  21789521.0654
        28.7504         26.5004
  19946494.6204  -13666288.53047 -10649051.07447                  19946500.9014
        26.7504         28.0004
  23121348.0114   -7762005.52646  -5884808.45346                  23121354.8824
        17.7504         15.2504
 98  6 17 16 46 14.9990000  0  8G10G 4G 5G 7G 8G 9G24G30
  23709937.8394   -1143625.79744   -672052.27045                  23709950.7224
         7.0004          8.5004
  21137332.1204     466087.71547    363183.93447                  21137338.4954
        27.2504         27.5004
  20761273.4484  -18007360.96648 -14031706.34447                  20761279.5544
        30.2504         27.7504
  23941955.1284   12461904.04145   9710563.39545                  23941963.6054
         9.2504          9.0004
  21424850.2764  -15251357.82247 -11884171.86346                  21424857.3824
        26.0004         23.7504
  21793821.7844    -416155.27748   -324281.84647                  21793828.7024
        29.0004         26.5004
  19944859.8864  -13674879.51448 -10655745.34547                  19944866.2264
        30.7504         28.0004
  23110790.5034   -7817482.22846  -5928037.01746                  23110797.1014
        16.7504         15.5004
 98  6 17 16 46 29.9990000  0  8G10G 4G 5G 7G 8G 9G24G30
  23699296.7534   -1199541.07644   -715622.53445                  23699307.2924
         7.0004          9.0004
  21142147.2454     491390.27648    382900.20147                  21142153.5854
        28.0004         27.5004
  20754522.6834  -18042835.70948 -14059348.98847                  20754528.8824
        30.2504         27.5004
  23947030.5424   12488576.86845   9731347.37345                  23947040.3194
         8.5004          9.0004
  21423004.3864  -15261057.97147 -11891730.43446                  21423011.0544
        25.7504         23.5004
  21798144.5424    -393439.11648   -306580.96947                  21798151.3274
        29.0004         26.5004
  19943244.0584  -13683369.98848 -10662361.29947                  19943250.4804
        32.2504         28.0004
  23100231.5344   -7872969.65146  -5971273.93446                  23100239.1084
        16.5004         15.2504
 98  6 17 16 46 44.9990000  0  8G10G 4G 5G 7G 8G 9G24G30
  23688654.5114   -1255469.84544   -759203.34845                  23688666.9954
         6.7504          9.0004
  21146975.7694     516765.26048    402672.90647                  21146982.1204
        28.0004         27.5004
  20747783.9874  -18078248.07948 -14086943.03547                  20747790.1514
        30.0004         27.5004
  23952103.3084   12515231.02245   9752116.80045                  23952112.0074
         9.0004          9.0004
  21421183.7844  -15270625.76747 -11899185.87346                  21421190.6164
        25.5004         23.2504
  21802483.3154    -370637.49948   -288813.49447                  21802490.1984
        29.0004         26.2504
  19941648.0974  -13691756.68448 -10668896.38347                  19941654.7184
        32.2504         28.0004
  23089672.6284   -7928457.32346  -6014511.04946                  23089680.4134
        16.2504         15.0004
 98  6 17 16 46 59.9990000  0  8G10G 4G 5G 7G 8G 9G24G30
  23678007.9404   -1311412.68444   -802795.08045                  23678018.3154
         6.2504          8.7504
  21151819.1124     542216.71648    422505.19547                  21151825.3004
        28.2504         27.7504
  20741056.9094  -18113598.16348 -14114488.54647                  20741062.9564
        29.7504         27.2504
  23957173.5654   12541873.21045   9772876.92245                  23957182.7804
         9.7504          9.2504
  21419388.9334  -15280058.77947 -11906536.28246                  21419395.9444
        25.5004         23.2504
  21806838.3784    -347751.61348   -270980.36647                  21806845.3314
        29.0004         26.2504
  19940072.5114  -13700036.94548 -10675348.52847                  19940079.1904
        31.7504         28.0004
  23079114.1124   -7983942.45646  -6057746.18546                  23079122.0154
        15.5004         15.2504
 98  6 17 16 47 14.9990000  0  8G10G 4G 5G 7G 8G 9G24G30
  23667361.0114   -1367366.98943   -846395.76745                  23667373.2844
         6.0004          7.7504
  21156677.1984     567744.90648    442397.27947                  21156683.4214
        28.7504         27.5004
  20734342.4564  -18148883.51548 -14141983.61947                  20734348.4804
        29.7504         27.2504
  23962242.6444   12568507.39945   9793630.80145                  23962251.2844
         9.7504          9.7504
  21417619.8084  -15289354.63247 -11913779.81546                  21417626.6674
        25.2504         23.2504
  21811209.3314    -324783.10848   -253082.85747                  21811216.0934
        29.0004         26.0004
  19938517.3554  -13708209.05648 -10681716.40447                  19938523.8704
        31.7504         27.7504
  23068556.5974   -8039421.17246  -6100976.32046                  23068564.1714
        15.5004         14.5004
 98  6 17 16 47 29.9990000  0  8G10G 4G 5G 7G 8G 9G24G30
  23656709.9644   -1423336.01144   -890007.93745                  23656723.0114
         6.2504          8.5004
  21161548.9874     593347.38848    462347.25747                  21161555.1054
        29.0004         27.7504
  20727639.2694  -18184108.16248 -14169431.38247                  20727645.1634
        29.7504         27.0004
  23967308.0504   12595131.46645   9814376.78945                  23967315.7184
         9.7504          9.7504
  21415876.7924  -15298513.78147 -11920916.82246                  21415883.5544
        25.5004         23.0004
  21815595.2304    -301735.47648   -235123.69347                  21815601.7924
        29.7504         26.0004
  19936982.4094  -13716275.81948 -10688002.19147                  19936988.5264
        31.0004         27.5004
  23058000.5894   -8094895.10946  -6144202.75246                  23058008.2224
        14.7504         14.0004
 98  6 17 16 47 44.9990000  0  8G10G 4G 5G 7G 8G 9G24G30
  23646056.6054   -1479319.24044   -933631.13645                  23646068.2574
         6.5004          8.7504
  21166435.4724     619025.71348    482356.33447                  21166441.4254
        29.2504         27.2504
  20720948.1444  -18219271.07348 -14196831.05147                  20720954.1084
        30.0004         26.7504
  23972372.5344   12621744.09045   9835113.87845                  23972381.5734
         9.5004         10.2504
  21414160.2614  -15307534.84947 -11927946.23646                  21414167.1554
        25.5004         22.7504
  21819995.5194    -278611.75248   -217105.23147                  21820002.1754
        29.2504         26.2504
  19935467.3084  -13724236.81048 -10694205.55547                  19935473.5654
        30.2504         27.2504
  23047444.9954   -8150365.40646  -6187426.33446                  23047452.8044
        15.0004         14.0004
 98  6 17 16 47 59.9990000  0  8G10G 4G 5G 7G 8G 9G24G30
  23635400.8864   -1535315.32044   -977264.38345                  23635411.7304
         6.5004          9.2504
  21171336.4484     644779.72248    502424.37947                  21171342.4954
        30.0004         27.2504
  20714268.6984  -18254371.61048 -14224182.10447                  20714274.8044
        29.7504         26.7504
  23977434.0894   12648343.10145   9855840.33845                  23977442.5074
         9.2504          9.2504
  21412469.7374  -15316417.35547 -11934867.67846                  21412476.3944
        25.2504         22.7504
  21824409.4644    -255415.90948   -199030.57246                  21824415.8864
        28.7504         25.5004
  19933972.5344  -13732091.58448 -10700326.15847                  19933978.8624
        30.2504         27.0004
  23036890.0194   -8205829.29146  -6230644.91746                  23036898.0974
        14.5004         13.7504
 98  6 17 16 48 14.9990000  0  8G10G 4G 5G 7G 8G 9G24G30
  23624742.1364   -1591331.54344  -1020913.30345                  23624752.9094
         7.2504         10.2504
  21176250.3004     670601.94848    522545.57647                  21176256.3474
        30.0004         27.2504
  20707599.8154  -18289416.43148 -14251489.75147                  20707605.9444
        29.5004         26.7504
  23982492.0654   12674925.16745   9876553.59045                  23982499.6284
         8.0004          9.0004
  21410804.3154  -15325169.52647 -11941687.55746                  21410811.0424
        25.2504         22.2504
  21828835.4334    -232157.63648   -180907.28046                  21828841.9374
        28.2504         25.2504
  19932496.9094  -13739847.19348 -10706369.48047                  19932503.1794
        29.5004         26.7504
  23026336.6674   -8261289.24246  -6273860.43046                  23026344.8864
        15.2504         14.2504
 98  6 17 16 48 29.9990000  0  8G10G 4G 5G 7G 8G 9G24G30
  23614077.3554   -1647368.86345  -1064578.65245                  23614087.1904
         7.7504          9.0004
  21181176.3864     696489.79348    542717.91147                  21181182.3624
        29.7504         27.0004
  20700941.6284  -18324405.34448 -14278753.82547                  20700947.8044
        29.7504         26.7504
  23987546.4804   12701490.36045   9897253.67145                  23987555.3434
         7.5004          8.2504
  21409163.5194  -15333791.36547 -11948405.88246                  21409170.3044
        25.0004         22.2504
  21833273.2844    -208836.67148   -162735.13646                  21833280.0344
        28.2504         25.5004
  19931040.1364  -13747502.15848 -10712334.38547                  19931046.3474
        28.7504         26.2504
  23015784.4954   -8316741.58546  -6317070.02646                  23015791.4484
        16.5004         14.5004
 98  6 17 16 48 44.9990000  0  8G10G 4G 5G 7G 8G 9G24G30
  23603412.8474   -1703413.97145  -1108250.06945                  23603423.8314
         8.7504          9.7504
  21186117.1594     722453.64248    562949.46547                  21186123.1834
        30.2504         26.7504
  20694296.7534  -18359324.13148 -14305963.25647                  20694302.9994
        29.0004         26.5004
  23992601.0504   12728049.35544   9917949.00245                  23992609.5974
         6.2504          7.2504
  21407549.3704  -15342273.49847 -11955015.34446                  21407556.4764
        25.0004         22.0004
  21837725.4724    -185440.41648   -144504.33246                  21837732.5304
        28.2504         25.2504
  19929604.5034  -13755045.90448 -10718212.62147                  19929610.7724
        28.2504         26.2504
  23005235.6984   -8372174.78446  -6360264.69846                  23005242.4374
        16.2504         14.2504
 98  6 17 16 48 59.9990000  0  8G10G 4G 5G 7G 8G 9G24G30
  23592745.6904   -1759471.43845  -1151931.13645                  23592755.9724
         9.2504         10.0004
  21191071.4874     748487.41048    583235.50647                  21191077.4644
        30.0004         26.7504
  20687663.7144  -18394181.07448 -14333124.49347                  20687669.9954
        29.0004         26.5004
  23997651.9174   12754595.30543   9938634.08745                  23997659.8434
         6.0004          7.2504
  21405961.1204  -15350620.22947 -11961519.29846                  21405967.9294
        24.7504         22.0004
  21842191.4724    -161971.16447   -126216.64946                  21842198.4374
        27.7504         25.2504
  19928189.4484  -13762481.43548 -10724006.53347                  19928195.7184
        28.0004         26.0004
  22994689.2304   -8427596.72046  -6403450.60046                  22994696.1014
        16.5004         14.2504
 98  6 17 16 49 14.9990000  0  8G10G 4G 5G 7G 8G 9G24G30
  23582077.1594   -1815536.28045  -1195617.93545                  23582088.1084
        10.2504         10.0004
  21196038.4804     774589.19948    603574.54847                  21196044.4214
        30.0004         26.5004
  20681043.2924  -18428971.50748 -14360233.91147                  20681049.5264
        28.5004         26.2504
  24002702.3004   12781131.47143   9959311.58745                  24002711.7964
         5.5004          6.7504
  21404399.7454  -15358826.08147 -11967913.47846                  21404406.2724
        25.5004         21.7504
  21846672.3004    -138423.92447   -107868.18946                  21846679.3704
        27.7504         25.0004
  19926795.9094  -13769804.03548 -10729712.45047                  19926802.1204
        28.2504         26.0004
  22984145.9404   -8483004.75246  -6446625.63446                  22984153.7264
        17.2504         14.5004
 98  6 17 16 49 29.9990000  0  8G10G 4G 5G 7G 8G 9G24G30
  23571406.8944   -1871607.74245  -1239309.91445                  23571416.3664
        10.5004          9.7504
  21201017.8704     800755.95848    623964.21847                  21201023.7304
        29.7504         26.0004
  20674435.2614  -18463696.06548 -14387291.99247                  20674441.4484
        28.5004         26.5004
  24007749.4874   12807655.61143   9979979.72245                  24007763.6244
         5.7504          7.0004
  21402865.0734  -15366890.59547 -11974197.52846                  21402871.1554
        25.7504         21.7504
  21851168.3234    -114797.73447    -89458.21446                  21851175.2184
        27.5004         25.0004
  19925424.2064  -13777014.09748 -10735330.67147                  19925430.4174
        28.2504         26.0004
  22973604.1754   -8538400.52946  -6489791.15146                  22973611.2924
        18.0004         14.2504
 98  6 17 16 49 44.9990000  0  8G10G 4G 5G 7G 8G 9G24G30
  23560734.3234   -1927689.46845  -1283009.89445                  23560743.4564
         9.7504          9.5004
  21206008.9254     826983.96948    644401.61847                  21206014.8664
        29.2504         25.7504
  20667838.8154  -18498360.29548 -14414303.06247                  20667845.0384
        28.0004         26.2504
  24012793.0814   12834160.76844  10000633.02545                  24012802.0624
         6.5004          7.5004
  21401355.9014  -15374821.16847 -11980377.20346                  21401362.2534
        25.5004         22.0004
  21855678.3394     -91098.47147    -70991.29246                  21855685.4684
        27.2504         25.0004
  19924072.0734  -13784119.21648 -10740867.11947                  19924078.3554
        28.5004         26.0004
  22963063.3314   -8593793.47246  -6532954.46646                  22963069.5424
        18.2504         15.2504
 98  6 17 16 49 59.9990000  0  8G10G 4G 5G 7G 8G 9G24G30
  23550062.9874   -1983770.62545  -1326709.40445                  23550072.8584
        10.2504          9.2504
  21211013.2844     853283.67248    664894.87146                  21211019.2024
        29.0004         25.2504
  20661256.1594  -18532953.40748 -14441258.72047                  20661262.1714
        28.0004         26.2504
  24017835.3234   12860655.67144  10021278.36045                  24017843.9764
         6.2504          7.2504
  21399873.2924  -15382612.78447 -11986448.59546                  21399879.7374
        25.7504         22.0004
  21860203.6594     -67317.21847    -52460.49446                  21860210.7184
        27.0004         24.7504
  19922742.2304  -13791108.49648 -10746313.30647                  19922748.5584
        28.7504         26.0004
  22952524.6054   -8649172.97446  -6576107.27646                  22952531.7334
        18.0004         15.0004
 98  6 17 16 50 14.9990000  0  8G10G 4G 5G 7G 8G 9G24G30
  23539390.5194   -2039853.60245  -1370410.35845                  23539400.3194
         9.7504          9.5004
  21216031.8394     879654.77648    685443.77046                  21216037.7224
        28.2504         24.7504
  20654686.2764  -18567477.74247 -14468160.79147                  20654692.4644
        27.2504         26.5004
  24022875.9094   12887141.31044  10041916.66945                  24022888.5224
         6.7504          6.5004
  21398416.4644  -15390268.09147 -11992413.77846                  21398422.8154
        26.0004         21.7504
  21864744.7224     -43454.25847    -33866.02146                  21864751.6054
        27.2504         24.5004
  19921433.9094  -13797982.84548 -10751669.93647                  19921440.3554
        28.7504         26.2504
  22941988.9724   -8704540.09146  -6619250.46146                  22941995.8904
        18.5004         15.5004
 98  6 17 16 50 29.9990000  0  8G10G 4G 5G 7G 8G 9G24G30
  23528717.8394   -2095937.94645  -1414112.36145                  23528726.9134
         9.5004          8.7504
  21221063.6514     906098.87748    706049.54046                  21221069.6054
        28.2504         24.2504
  20648129.3704  -18601933.90247 -14495009.73147                  20648135.5224
        27.7504         26.7504
  24027913.8784   12913619.78444
         6.5004
  21396986.4174  -15397784.13547 -11998270.44246                  21396993.0154
        26.0004         21.5004
  21869301.6834     -19507.33147    -15206.11946                  21869308.3154
        27.5004         24.5004
  19920147.6054  -13804742.88448 -10756937.49247                  19920153.9444
        29.0004         26.5004
  22931454.8944   -8759895.14146  -6662384.24746                  22931462.4564
        18.0004         15.7504
 98  6 17 16 50 44.9990000  0  8G10G 4G 5G 7G 8G 9G24G30
  23518045.0814   -2152022.58745  -1457814.60045                  23518054.3784
         9.0004          9.5004
  21226110.2764     932617.94648    726713.74146                  21226116.1014
        28.2504         24.0004
  20641585.4954  -18636322.54747 -14521806.06547                  20641591.6474
        27.7504         27.0004
  24032952.0424   12940091.47544
         7.2504
  21395583.3234  -15405157.04947 -12004015.57546                  21395590.0264
        26.2504         21.7504
  21873874.7924       4524.06647      3519.58746                  21873881.6754
        27.2504         24.5004
  19918883.0264  -13811387.89848 -10762115.41947                  19918889.5894
        29.5004         26.2504
  22920922.7064   -8815239.62246  -6705509.78746                  22920930.8314
        17.7504         16.0004
 98  6 17 16 50 59.9990000  0  8G10G 4G 5G 7G 8G 9G24G30
  23507370.7374   -2208112.37145  -1501520.81645                  23507382.0854
         8.2504          9.0004
  21231170.0814     959208.44747    747433.60046                  21231176.0934
        27.7504         24.2504
  20635053.2764  -18670649.61148 -14548554.41947                  20635059.2884
        28.2504         27.5004
  24037987.7224   12966550.01344
         7.2504
  21394206.6594  -15412391.72147 -12009652.98746                  21394213.2454
        26.2504         22.0004
  21878462.0584      28631.25847     22304.36146                  21878468.9874
        27.0004         24.2504
  19917639.8864  -13817921.73148 -10767206.71447                  19917646.4374
        29.7504         26.5004
  22910392.3394   -8870576.60646  -6748629.49146                  22910400.0304
        17.5004         16.0004
 98  6 17 16 51 14.9990000  0  8G10G 4G 5G 7G 8G 9G24G30
  23496697.2844   -2264206.66345  -1545230.57845                  23496708.6674
         7.5004          9.0004
  21236243.8624     985871.07347    768209.65546                  21236249.7574
        27.2504         24.0004
  20628533.0814  -18704913.12448 -14575253.25147                  20628539.2574
        28.2504         28.0004
  24043020.5264   12992996.92945
         7.7504
  21392856.4644  -15419487.12047 -12015181.88046                  21392863.0034
        26.5004         22.0004
  21883063.6904      52811.45047     41146.01446                  21883070.8194
        27.0004         24.2504
  19916418.1054  -13824341.50948 -10772209.13547                  19916424.3154
        30.5004         26.5004
  22899864.3554   -8925903.13046  -6791741.04746                  22899872.1754
        17.5004         16.2504
 98  6 17 16 51 29.9990000  0  8G10G 4G 5G 7G 8G 9G24G30
  23486021.9954   -2320300.78845  -1588940.23845                  23486032.9334
         7.5004          8.2504
  21241332.0344    1012609.36047    789044.66846                  21241337.8124
        27.2504         24.2504
  20622026.4094  -18739107.16748 -14601897.95247                  20622032.5624
        28.5004         28.0004
  24048050.8864   13019433.15144     10982.87755                  24048060.5464
         7.2504          6.5004
  21391532.6834  -15426443.66547 -12020602.57446                  21391539.0584
        26.2504         22.2504
  21887678.7534      77063.19347     60043.43246                  21887685.8824
        26.7504         24.2504
  19915218.1204  -13830648.12248 -10777123.37447                  19915224.5074
        30.7504         26.7504
  22889338.5654   -8981219.30446  -6834844.53246                  22889346.6904
        17.7504         16.0004
 98  6 17 16 51 44.9990000  0  8G10G 4G 5G 7G 8G 9G24G30
  23475348.9014   -2376389.34245  -1632645.49045                  23475359.2654
         7.5004          8.2504
  21246435.9954    1039430.82847    809944.50446                  21246441.9254
        27.0004         24.0004
  20615533.4484  -18773227.50848 -14628485.22447                  20615539.5894
        28.7504         28.5004
  24053079.4804   13045861.80844     31576.59445                  24053088.7304
         6.5004          6.2504
  21390235.8004  -15433259.09147 -12025913.30446                  21390242.1984
        26.0004         22.2504
  21892308.0264     101390.55847     78999.78046                  21892315.3314
        26.5004         24.5004
  19914039.3004  -13836840.52848 -10781948.62047                  19914045.5584
        31.2504         26.5004
  22878814.9094   -9036521.60546  -6877937.21946                  22878821.8974
        18.2504         16.5004
 98  6 17 16 51 59.9990000  0  8G10G 4G 5G 7G 8G 9G24G30
  23464674.8394   -2432484.39345  -1676355.84245                  23464683.5624
         8.0004          8.2504
  21251553.5034    1066323.83247    830900.07746                  21251559.2694
        27.2504         24.0004
  20609052.8944  -18807283.82648 -14655022.60547                  20609059.1634
        29.5004         29.0004
  24058105.3944   13072271.12844     52155.19645                  24058114.7724
         7.2504          6.5004
  21388962.9484  -15439947.67547 -12031125.20246                  21388969.4054
        26.5004         22.2504
  21896949.7614     125782.84247     98006.72046                  21896957.1944
        26.5004         24.5004
  19912880.5734  -13842929.98648 -10786693.64947                  19912886.9014
        31.5004         26.7504
  22868292.0654   -9091817.87646  -6921025.20746                  22868299.3944
        17.7504         16.5004
 98  6 17 16 52 14.9990000  0  8G10G 4G 5G 7G 8G 9G24G30
  23453998.9724   -2488584.65045  -1720070.25245                  23454010.0504
         8.7504          9.0004
  21256685.0264    1093290.00147    851912.66346                  21256690.8154
        27.2504         24.0004
  20602584.8394  -18841272.42948 -14681507.22047                  20602591.0974
        29.5004         29.5004
  24063128.4404   13098664.96945     72721.78745                  24063137.4804
         8.0004          6.2504
  21387715.4334  -15446503.77547 -12036233.85846                  21387721.9134
        26.2504         22.2504
  21901604.3624     150243.95147    117067.30046                  21901611.9014
        26.0004         24.0004
  19911742.1754  -13848912.78348 -10791355.56647                  19911748.5384
        31.7504         26.7504
  22857772.2924   -9147100.51946  -6964102.55646                  22857779.6904
        18.0004         15.7504
 98  6 17 16 52 29.9990000  0  8G10G 4G 5G 7G 8G 9G24G30
  23443321.7764   -2544693.34545  -1763791.22745                  23443331.3554
         9.0004          9.0004
  21261829.7374    1120325.12947    872978.98846                  21261835.5974
        27.2504         24.5004
  20596129.5974  -18875195.06848 -14707940.43947                  20596135.8314
        29.7504         29.7504
  24068147.1124   13125041.73745     93275.11645                  24068152.9724
         8.2504          6.2504
  21386493.5114  -15452925.41347 -12041237.74646                  21386499.9684
        26.7504         22.7504
  21906271.4804     174770.13647    136178.58846                  21906278.9484
        26.0004         24.0004
  19910622.9644  -13854794.87148 -10795939.00747                  19910629.2804
        31.7504         27.0004
  22847254.6124   -9202372.07046  -7007171.27446                  22847261.6474
        17.7504         16.0004
 98  6 17 16 52 44.9990000  0  8G10G 4G 5G 7G 8G 9G24G30
  23432642.4804   -2600810.70545  -1807519.01445                  23432651.8354
         9.2504          9.5004
  21266987.5344    1147428.74947    894098.67846                  21266993.6164
        27.0004         24.5004
  20589687.7304  -18909048.50048 -14734319.72847                  20589693.9404
        30.7504         30.0004
  24073162.9254   13151400.50145    113814.40445                  24073169.9604
         8.2504          6.5004
  21385297.0504  -15459212.31147 -12046136.64146                  21385303.6714
        26.7504         23.2504
  21910951.3154     199363.12047    155341.92646                  21910958.8434
        25.7504         23.7504
  19909522.7694  -13860575.82748 -10800443.64747                  19909528.9914
        30.2504         27.0004
  22836738.9014   -9257632.80046  -7050231.55546                  22836745.5344
        18.7504         16.0004
 98  6 17 16 52 59.9990000  0  8G10G 4G 5G 7G 8G 9G24G30
  23421962.5814   -2656935.75145  -1851252.71245                  23421971.7264
        10.0004          9.7504
  21272157.9724    1174600.10247    915271.14946                  21272163.9374
        27.7504         24.5004
  20583259.0504  -18942831.14448 -14760643.85947                  20583265.2494
        31.0004         30.2504
  24078175.6054   13177739.00445    134337.85545                  24078181.3944
         8.0004          6.7504
  21384125.5344  -15465369.47947 -12050934.44846                  21384132.1444
        26.7504         22.7504
  21915643.7694     224021.83447    174556.48846                  21915651.3434
        25.2504         23.2504
  19908441.8704  -13866256.29148 -10804869.98247                  19908448.1874
        29.2504         27.0004
  22826225.0264   -9312882.49346  -7093283.23346                  22826231.7304
        18.7504         16.2504
